Date StartTime U_cm/s V_cm/s W_cm/s Ustd_cm/s Vstd_cm/s Wstd_cm/s Uvar_(cm/s)^2 Vvar_(cm/s)^2 Wvar_(cm/s)^2 KE_(m/s)^2 TurbulentKE_(m/s)^2 HorizWindSpeed_cm/s FrictionSpeec_cm/s DragCoef SpeedOfSound_m/s SonicTemperature_C Pressure_mb 
01/21/2014  00:00:00     -112.457      -27.894       -8.892       20.188       18.937       15.574      407.564      358.624      242.557        0.726        0.050      115.865       13.589        0.014      331.994        0.368      871.085
01/21/2014  00:01:00     -115.332      -43.657       -4.317       22.367       17.485       15.232      500.280      305.711      232.017        0.813        0.052      123.318       15.871        0.017      331.912        0.233      871.068
01/21/2014  00:02:00     -116.038      -30.768       -2.201       26.376       22.502       15.889      695.704      506.320      252.475        0.794        0.073      120.048       14.620        0.015      331.900        0.213      871.039
01/21/2014  00:03:00     -119.940      -48.227       -3.642       29.865       21.849       13.812      891.913      477.368      190.785        0.914        0.078      129.273       14.767        0.013      331.933        0.268      871.007
01/21/2014  00:04:00     -139.470      -60.979       -8.816       12.987       18.141       11.789      168.656      329.083      138.980        1.194        0.032      152.218        7.974        0.003      331.896        0.206      870.991
01/21/2014  00:05:00     -136.789      -68.017       -2.169       35.183       27.705       17.968     1237.842      767.585      322.846        1.283        0.116      152.766       19.248        0.016      331.879        0.180      870.977
01/21/2014  00:06:00     -130.042      -61.992       -6.827       20.652       19.057       15.740      426.524      363.166      247.749        1.092        0.052      144.062       11.357        0.006      331.900        0.214      870.978
01/21/2014  00:07:00     -138.556      -59.820      -16.029       17.690       18.083       13.711      312.923      327.010      187.992        1.193        0.041      150.918        5.730        0.001      331.826        0.092      870.977
01/21/2014  00:08:00     -129.695      -56.062       -7.000       18.335       27.179       14.519      336.182      738.700      210.814        1.065        0.064      141.294        8.392        0.004      331.879        0.178      870.974
01/21/2014  00:09:00     -125.816      -52.091       -5.949       21.991       26.899       17.807      483.594      723.563      317.105        1.005        0.076      136.173       14.637        0.012      331.815        0.074      870.973
01/21/2014  00:10:00     -115.746      -32.047       -3.140       25.565       21.461       15.665      653.555      460.555      245.377        0.790        0.068      120.101       14.978        0.016      331.903        0.219      870.962
01/21/2014  00:11:00     -133.852      -23.166      -12.400       27.799       25.050       18.422      772.794      627.511      339.375        1.017        0.087      135.842       17.221        0.016      331.906        0.223      870.958
01/21/2014  00:12:00     -124.771      -44.269      -15.993       18.887       18.094       11.543      356.731      327.405      133.232        0.930        0.041      132.392        7.272        0.003      331.841        0.117      870.960
01/21/2014  00:13:00      -99.561      -24.318      -11.899       19.732       18.778       12.594      389.362      352.623      158.617        0.577        0.045      102.488        4.869        0.002      331.875        0.172      870.967
01/21/2014  00:14:00     -118.964      -57.348       -9.979       14.925       21.836       16.767      222.759      476.795      281.127        0.926        0.049      132.065        9.110        0.005      331.763       -0.010      870.963
01/21/2014  00:15:00     -145.032      -42.196      -12.736       17.507       13.114       10.567      306.497      171.973      111.665        1.178        0.030      151.046        7.543        0.002      331.765       -0.010      870.944
01/21/2014  00:16:00     -130.529      -44.119       -6.543       18.273       17.958       16.415      333.909      322.485      269.444        0.998        0.046      137.784       13.198        0.009      331.726       -0.072      870.927
01/21/2014  00:17:00      -95.372      -47.478       -3.996       25.026       19.445       17.892      626.312      378.108      320.141        0.635        0.066      106.536       14.248        0.018      331.706       -0.106      870.918
01/21/2014  00:18:00      -89.059      -54.433      -10.028       25.759       16.339       17.421      663.519      266.955      303.504        0.611        0.062      104.377       13.541        0.017      331.687       -0.135      870.920
01/21/2014  00:19:00     -112.030      -36.076      -15.576       23.727       17.828       14.496      562.957      317.828      210.137        0.759        0.055      117.695        5.930        0.003      331.680       -0.147      870.920
01/21/2014  00:20:00     -125.901      -35.482      -17.283       26.467       23.883       15.182      700.496      570.400      230.478        0.945        0.075      130.805       13.227        0.010      331.720       -0.082      870.892
01/21/2014  00:21:00     -114.426      -36.559      -14.185       14.296       18.112       11.564      204.372      328.056      133.727        0.765        0.033      120.124       10.811        0.008      331.655       -0.190      870.867
01/21/2014  00:22:00     -105.375      -47.319       -7.478       22.572       27.426       24.713      509.480      752.190      610.742        0.764        0.094      115.511       15.395        0.018      331.548       -0.366      870.841
01/21/2014  00:23:00     -100.005      -53.116      -15.347       24.556       27.700       17.737      603.005      767.269      314.612        0.737        0.084      113.236        7.376        0.004      331.568       -0.334      870.826
01/21/2014  00:24:00      -81.309      -71.659      -12.124       35.459       21.689       22.339     1257.342      470.411      499.037        0.706        0.111      108.380       21.544        0.040      331.572       -0.327      870.822
01/21/2014  00:25:00      -85.868      -45.716      -21.256       31.195       18.893       13.439      973.131      356.940      180.600        0.571        0.076       97.279       13.838        0.020      331.602       -0.277      870.820
01/21/2014  00:26:00      -69.976      -45.951       -7.195       33.233       23.874       16.888     1104.406      569.944      285.197        0.451        0.098       83.715       15.157        0.033      331.578       -0.315      870.828
01/21/2014  00:27:00     -107.117      -37.311      -13.615       24.281       20.645       15.156      589.584      426.224      229.690        0.715        0.062      113.429       13.632        0.014      331.584       -0.305      870.827
01/21/2014  00:28:00      -91.258      -39.298       -9.340       20.963       23.631       16.516      439.435      558.408      272.773        0.561        0.064       99.360       11.023        0.012      331.578       -0.316      870.820
01/21/2014  00:29:00      -95.696      -40.807      -18.292       16.417       17.731        9.292      269.513      314.382       86.344        0.591        0.034      104.033        5.501        0.003      331.602       -0.276      870.813
01/21/2014  00:30:00     -118.815      -56.411      -12.499       20.073       18.992       11.016      402.907      360.692      121.349        0.917        0.044      131.527        8.453        0.004      331.610       -0.264      870.796
01/21/2014  00:31:00     -142.607      -45.720      -14.812       17.024       21.728        9.010      289.820      472.097       81.176        1.174        0.042      149.756        7.057        0.002      331.752       -0.032      870.786
01/21/2014  00:32:00     -111.351      -36.433       -7.131       20.059       19.404       15.747      402.360      376.501      247.983        0.740        0.051      117.160       12.042        0.011      331.768       -0.004      870.775
01/21/2014  00:33:00      -99.252      -40.059      -12.976       29.729       23.086       11.995      883.808      532.942      143.868        0.659        0.078      107.031        7.979        0.006      331.649       -0.199      870.759
01/21/2014  00:34:00     -122.366      -58.714       -9.606       21.662       19.085       16.600      469.234      364.226      275.543        0.981        0.055      135.723        4.907        0.001      331.508       -0.432      870.745
01/21/2014  00:35:00     -135.792      -59.421      -12.852       14.019       16.294        9.936      196.538      265.501       98.726        1.135        0.028      148.223        6.199        0.002      331.470       -0.496      870.733
01/21/2014  00:36:00     -118.621      -39.492       -6.835       30.754       21.339       17.574      945.831      455.356      308.831        0.869        0.086      125.022       18.225        0.021      331.503       -0.440      870.724
01/21/2014  00:37:00     -108.685      -59.154        3.199       49.639       28.272       19.727     2464.037      799.330      389.164        0.949        0.183      123.740       23.046        0.035      331.500       -0.445      870.726
01/21/2014  00:38:00     -110.990      -62.510       -2.153       34.528       27.104       19.261     1192.195      734.650      370.984        0.926        0.115      127.382       21.124        0.027      331.545       -0.371      870.729
01/21/2014  00:39:00     -129.161      -48.821       -4.437       22.461       23.727       17.793      504.502      562.962      316.575        1.023        0.069      138.080        9.770        0.005      331.522       -0.409      870.733
01/21/2014  00:40:00     -119.685      -47.699      -19.353       13.108       15.430        9.560      171.827      238.089       91.396        0.874        0.025      128.840        4.327        0.001      331.570       -0.331      870.727
01/21/2014  00:41:00      -97.584      -58.460       -4.688       26.577       18.336       19.792      706.323      336.196      391.733        0.720        0.072      113.755       16.215        0.020      331.646       -0.206      870.721
01/21/2014  00:42:00      -97.504      -51.861        3.464       28.242       23.435       19.454      797.619      549.205      378.444        0.697        0.086      110.439       14.914        0.018      331.758       -0.019      870.731
01/21/2014  00:43:00      -99.225      -51.901        0.423       26.170       21.256       15.959      684.849      451.797      254.678        0.697        0.070      111.979       13.697        0.015      331.788        0.029      870.741
01/21/2014  00:44:00     -120.483      -48.807       -3.390       18.841       14.856       11.321      355.001      220.714      128.170        0.881        0.035      129.993        5.883        0.002      331.796        0.042      870.742
01/21/2014  00:45:00     -117.178      -42.706       -1.129       17.846       17.501       11.525      318.494      306.280      132.826        0.816        0.038      124.718        9.956        0.006      331.822        0.085      870.736
01/21/2014  00:46:00     -108.482      -21.955        1.590       29.694       19.670       17.626      881.727      386.924      310.667        0.692        0.079      110.681       17.191        0.024      331.762       -0.014      870.732
01/21/2014  00:47:00      -97.900      -16.665        1.800       26.183       19.626       16.759      685.553      385.165      280.874        0.561        0.068       99.309       16.461        0.027      331.688       -0.136      870.740
01/21/2014  00:48:00      -76.956      -15.975        6.359       34.531       23.144       17.173     1192.384      535.668      294.909        0.412        0.101       78.597       13.763        0.031      331.668       -0.168      870.753
01/21/2014  00:49:00     -105.415      -31.779        2.515       29.583       25.594       15.278      875.160      655.050      233.412        0.695        0.088      110.101       14.744        0.018      331.599       -0.283      870.754
01/21/2014  00:50:00     -121.431      -40.251        0.635       30.847       27.872       16.820      951.546      776.832      282.908        0.919        0.101      127.928       11.564        0.008      331.534       -0.389      870.754
01/21/2014  00:51:00     -121.054      -40.589       -4.372       27.492       23.058       18.944      755.816      531.670      358.888        0.898        0.082      127.677       13.741        0.012      331.586       -0.303      870.751
01/21/2014  00:52:00     -142.722      -42.427       -5.272       33.598       21.815       19.735     1128.829      475.903      389.473        1.210        0.100      148.895       19.355        0.017      331.556       -0.352      870.755
01/21/2014  00:53:00     -145.987      -63.939       -6.010       21.684       22.573       12.877      470.202      509.536      165.829        1.329        0.057      159.375       11.401        0.005      331.612       -0.259      870.763
01/21/2014  00:54:00     -155.641      -58.212       -3.107       22.628       18.493       16.844      512.014      341.998      283.710        1.438        0.057      166.171       15.216        0.008      331.539       -0.381      870.764
01/21/2014  00:55:00     -146.631      -66.662       -5.241       25.445       21.556       18.750      647.429      464.666      351.556        1.372        0.073      161.073       14.138        0.008      331.552       -0.360      870.768
01/21/2014  00:56:00     -156.707      -44.659      -12.573       22.251       21.736       14.313      495.091      472.451      204.859        1.394        0.059      162.946       11.472        0.005      331.587       -0.302      870.764
01/21/2014  00:57:00     -150.591      -45.922      -14.119       26.821       20.499       15.230      719.360      420.222      231.949        1.318        0.069      157.437       14.841        0.009      331.578       -0.317      870.764
01/21/2014  00:58:00     -154.274      -27.821      -18.820       15.585       19.291       14.665      242.903      372.156      215.052        1.288        0.042      156.763        5.178        0.001      331.471       -0.492      870.758
01/21/2014  00:59:00     -140.619      -31.757      -12.702       24.174       21.880       18.187      584.401      478.747      330.777        1.117        0.070      144.160       11.033        0.006      331.343       -0.702      870.752
01/21/2014  01:00:00     -134.805      -19.479       -5.739       49.729       27.100       24.398     2472.925      734.422      595.262        1.119        0.190      136.205       26.453        0.038      331.315       -0.749      870.743
01/21/2014  01:01:00     -130.298      -53.338       -6.436       41.143       32.941       19.865     1692.713     1085.100      394.602        1.152        0.159      140.792       14.237        0.010      331.275       -0.815      870.734
01/21/2014  01:02:00     -125.238      -39.175        2.530       32.495       34.682       21.235     1055.918     1202.836      450.930        0.997        0.135      131.222       16.855        0.016      331.244       -0.866      870.728
01/21/2014  01:03:00     -119.512      -43.072       -0.321       49.978       34.810       24.538     2497.761     1211.758      602.106        1.022        0.216      127.037       23.563        0.034      331.229       -0.890      870.714
01/21/2014  01:04:00      -62.885      -54.718       -0.673       52.267       41.416       29.928     2731.872     1715.265      895.664        0.614        0.267       83.358       21.245        0.065      331.197       -0.944      870.703
01/21/2014  01:05:00      -11.289      -23.543       15.318       53.317       32.202       25.039     2842.707     1036.979      626.958        0.271        0.225       26.110       30.615        1.375      331.206       -0.928      870.691
01/21/2014  01:06:00     -112.055      -61.993       -4.509       52.787       37.747       25.707     2786.489     1424.836      660.864        1.064        0.244      128.060       23.016        0.032      331.104       -1.096      870.673
01/21/2014  01:07:00     -156.584      -43.866       -8.346       35.353       30.012       21.464     1249.823      900.740      460.710        1.456        0.131      162.613       15.851        0.010      331.050       -1.186      870.658
01/21/2014  01:08:00     -126.256      -31.358       -7.294       28.766       29.125       16.926      827.474      848.279      286.493        0.947        0.098      130.092       12.466        0.009      331.080       -1.135      870.659
01/21/2014  01:09:00     -123.074      -36.214        2.624       42.594       33.530       17.472     1814.240     1124.268      305.257        0.985        0.162      128.291       21.760        0.029      331.109       -1.088      870.672
01/21/2014  01:10:00     -102.236      -36.912       -1.217       50.299       28.475       21.554     2529.972      810.805      464.593        0.781        0.190      108.696       21.033        0.037      331.141       -1.035      870.678
01/21/2014  01:11:00     -115.275      -17.697       -3.233       34.607       24.334       20.388     1197.632      592.158      415.656        0.791        0.110      116.626       18.938        0.026      331.173       -0.984      870.677
01/21/2014  01:12:00      -94.579      -20.053        1.369       44.250       26.780       21.947     1958.046      717.173      481.666        0.625        0.158       96.682       25.804        0.071      331.132       -1.051      870.666
01/21/2014  01:13:00     -100.640       -8.263        2.381       41.545       27.185       19.294     1725.975      739.004      372.246        0.652        0.142      100.979       18.717        0.034      331.220       -0.905      870.660
01/21/2014  01:14:00     -111.893      -13.526       -3.868       24.708       21.764       15.730      610.469      473.654      247.422        0.702        0.067      112.708       11.078        0.010      331.137       -1.043      870.660
01/21/2014  01:15:00     -111.980      -38.359      -10.015       17.796       16.908       11.173      316.709      285.869      124.828        0.742        0.036      118.368        6.640        0.003      331.171       -0.986      870.650
01/21/2014  01:16:00      -80.776      -26.433       -8.738       20.382       16.414       13.492      415.422      269.411      182.034        0.408        0.043       84.991       11.137        0.017      331.234       -0.881      870.637
01/21/2014  01:17:00      -76.938      -30.675      -11.272       14.238       14.269        7.374      202.720      203.598       54.378        0.372        0.023       82.828        4.221        0.003      331.398       -0.613      870.628
01/21/2014  01:18:00      -75.161      -30.824      -10.792       10.919       10.578        8.815      119.226      111.894       77.705        0.351        0.015       81.236        4.532        0.003      331.540       -0.380      870.629
01/21/2014  01:19:00      -55.664      -14.546       -8.407       15.855       12.845        9.498      251.386      165.003       90.212        0.194        0.025       57.534        8.230        0.020      331.567       -0.336      870.629
01/21/2014  01:20:00      -62.859      -23.163       -9.518       10.831        7.096        8.962      117.312       50.349       80.318        0.241        0.012       66.991        6.613        0.010      331.486       -0.468      870.628
01/21/2014  01:21:00      -98.956      -34.865      -15.346       10.613        6.682        7.388      112.633       44.653       54.578        0.573        0.011      104.918        2.536        0.001      331.388       -0.629      870.629
01/21/2014  01:22:00     -115.356      -27.571      -14.456        8.792       11.651        8.377       77.302      135.754       70.181        0.728        0.014      118.605        4.279        0.001      331.343       -0.703      870.640
01/21/2014  01:23:00     -111.079      -16.069      -18.150       11.267       11.214        9.462      126.956      125.747       89.534        0.663        0.017      112.236        3.653        0.001      331.298       -0.777      870.650
01/21/2014  01:24:00     -104.040      -14.829      -15.232       13.739       12.041        9.363      188.753      144.979       87.657        0.585        0.021      105.092        5.722        0.003      331.322       -0.736      870.646
01/21/2014  01:25:00     -118.444      -13.819      -13.142       14.077       16.069       13.098      198.155      258.229      171.561        0.751        0.031      119.247        8.819        0.005      331.244       -0.866      870.654
01/21/2014  01:26:00     -126.199      -30.163      -13.335       29.120       17.263       13.955      847.968      298.018      194.749        0.918        0.067      129.753       10.833        0.007      331.249       -0.858      870.670
01/21/2014  01:27:00     -140.741      -39.220      -19.764       22.590       15.174       12.351      510.287      230.259      152.552        1.131        0.045      146.104        8.734        0.004      331.149       -1.022      870.691
01/21/2014  01:28:00     -106.435      -22.072       -6.666       50.415       25.076       19.028     2541.682      628.806      362.047        0.770        0.177      108.699       26.061        0.057      331.142       -1.034      870.702
01/21/2014  01:29:00     -127.403      -59.940        2.374       22.296       23.715       14.409      497.095      562.382      207.629        1.055        0.063      140.799       13.127        0.009      331.257       -0.845      870.706
01/21/2014  01:30:00     -138.783      -68.792       -6.595       31.785       19.044       16.185     1010.288      362.688      261.951        1.284        0.082      154.897       18.818        0.015      331.342       -0.705      870.709
01/21/2014  01:31:00     -158.047      -63.431       -9.503       16.402       15.789       13.730      269.017      249.299      188.518        1.490        0.035      170.301       11.529        0.005      331.294       -0.782      870.703
01/21/2014  01:32:00     -126.033      -33.088       -8.733       22.367       25.625       15.077      500.267      656.634      227.317        0.922        0.069      130.304        8.510        0.004      331.303       -0.769      870.702
01/21/2014  01:33:00     -111.308      -15.330      -10.112       26.835       20.820       16.847      720.125      433.456      283.819        0.708        0.072      112.359       14.361        0.016      331.217       -0.910      870.704
01/21/2014  01:34:00     -138.357      -28.683      -14.173       23.747       17.959       19.096      563.902      322.514      364.648        1.071        0.063      141.299       14.128        0.010      331.135       -1.045      870.717
01/21/2014  01:35:00     -155.660      -38.806       -8.035       35.496       21.431       18.925     1259.943      459.282      358.144        1.394        0.104      160.424       19.795        0.015      331.159       -1.006      870.727
01/21/2014  01:36:00     -150.910      -48.409      -15.428       25.088       19.541       13.390      629.424      381.833      179.290        1.327        0.060      158.484       10.534        0.004      331.314       -0.751      870.736
01/21/2014  01:37:00     -132.675      -51.886       -5.399       32.665       23.309       17.305     1067.016      543.331      299.466        1.112        0.095      142.459       15.508        0.012      331.308       -0.759      870.735
01/21/2014  01:38:00     -138.076      -36.754       -9.268       21.872       21.268       14.088      478.393      452.333      198.459        1.082        0.056      142.884        5.189        0.001      331.343       -0.704      870.729
01/21/2014  01:39:00     -128.351      -30.956       -0.022       36.764       27.220       19.494     1351.581      740.921      380.031        0.995        0.124      132.031       16.752        0.016      331.284       -0.800      870.739
01/21/2014  01:40:00     -112.146      -19.636       -9.380       25.966       16.348       15.543      674.231      267.248      241.592        0.712        0.059      113.852       14.211        0.016      331.267       -0.826      870.761
01/21/2014  01:41:00     -107.887      -39.141       -2.723       24.730       20.353       13.131      611.569      414.227      172.420        0.719        0.060      114.768       12.116        0.011      331.243       -0.868      870.783
01/21/2014  01:42:00     -124.837      -45.512       -7.158       17.571       19.092       11.629      308.724      364.515      135.227        0.926        0.040      132.874        3.374        0.001      331.228       -0.892      870.796
01/21/2014  01:43:00      -88.658      -20.981       -2.622       27.880       25.609       15.707      777.270      655.833      246.722        0.499        0.084       91.107       12.950        0.020      331.250       -0.857      870.781
01/21/2014  01:44:00      -93.698      -14.990       -8.478       19.115       16.880       11.313      365.367      284.950      127.995        0.493        0.039       94.889        5.941        0.004      331.225       -0.896      870.758
01/21/2014  01:45:00     -122.636      -20.969      -13.116       24.676       15.306       15.500      608.881      234.261      240.235        0.837        0.054      124.416       10.495        0.007      331.225       -0.897      870.751
01/21/2014  01:46:00     -146.966      -39.915      -10.048       29.261       22.923       16.154      856.219      525.458      260.957        1.247        0.082      152.290       10.825        0.005      331.204       -0.931      870.760
01/21/2014  01:47:00     -133.733      -46.906       -4.026       29.959       28.899       18.626      897.536      835.140      346.912        1.109        0.104      141.720       17.221        0.015      331.184       -0.965      870.751
01/21/2014  01:48:00     -150.068      -20.766      -14.025       24.677       18.893       16.311      608.969      356.963      266.063        1.219        0.062      151.498       14.196        0.009      331.105       -1.095      870.737
01/21/2014  01:49:00     -144.246      -19.622      -15.850       22.919       19.237       14.623      525.278      370.059      213.835        1.128        0.055      145.574       11.921        0.007      331.058       -1.172      870.726
01/21/2014  01:50:00     -147.152      -22.848      -11.750       17.323       19.009       16.194      300.094      361.350      262.246        1.162        0.046      148.916       10.292        0.005      330.969       -1.317      870.707
01/21/2014  01:51:00     -153.479       -2.272      -10.815       43.560       29.241       26.278     1897.457      855.017      690.514        1.356        0.172      153.496       24.750        0.026      330.886       -1.453      870.707
01/21/2014  01:52:00     -131.227      -14.454       -5.147       38.487       27.920       20.734     1481.241      779.508      429.900        1.007        0.135      132.021       19.816        0.023      330.952       -1.346      870.701
01/21/2014  01:53:00     -102.488      -28.659       -3.588       32.984       34.446       19.095     1087.915     1186.543      364.607        0.699        0.132      106.420       20.411        0.037      330.909       -1.417      870.690
01/21/2014  01:54:00     -118.679      -40.374      -11.033       25.262       21.603       18.118      638.165      466.701      328.258        0.863        0.072      125.359       17.968        0.021      330.883       -1.457      870.690
01/21/2014  01:55:00     -133.939      -32.171      -18.473       19.551       22.649       15.777      382.237      512.994      248.915        1.023        0.057      137.748        9.538        0.005      330.909       -1.416      870.688
01/21/2014  01:56:00     -145.024      -55.726      -11.659       22.171       22.276       19.651      491.559      496.234      386.148        1.282        0.069      155.362       11.321        0.005      330.956       -1.339      870.680
01/21/2014  01:57:00     -147.371      -47.528       -6.456       36.141       33.804       23.635     1306.144     1142.703      558.620        1.351        0.150      154.845       18.558        0.014      330.944       -1.359      870.678
01/21/2014  01:58:00     -159.993      -56.019       -6.820       55.258       40.795       28.712     3053.418     1664.263      824.366        1.716        0.277      169.517       31.169        0.034      330.942       -1.363      870.685
01/21/2014  01:59:00     -162.213      -31.779        1.535       53.912       36.063       29.732     2906.468     1300.574      883.972        1.621        0.255      165.297       29.953        0.033      330.913       -1.410      870.695
01/21/2014  02:00:00     -131.690       -1.873       -0.961       54.711       37.542       28.443     2993.324     1409.386      809.003        1.128        0.261      131.703       29.364        0.050      330.903       -1.426      870.708
01/21/2014  02:01:00     -137.482       -8.737      -13.474       36.613       23.682       20.892     1340.507      560.833      436.490        1.075        0.117      137.759       22.803        0.027      330.892       -1.443      870.719
01/21/2014  02:02:00     -132.965      -11.368      -11.121       36.174       20.291       19.558     1308.530      411.713      382.501        1.002        0.105      133.450       19.662        0.022      330.850       -1.512      870.735
01/21/2014  02:03:00     -119.491       -7.506       -9.447       41.176       31.239       24.042     1695.455      975.852      578.008        0.884        0.162      119.726       26.251        0.048      330.914       -1.408      870.748
01/21/2014  02:04:00     -111.104      -42.124       -3.620       28.202       32.769       19.790      795.365     1073.793      391.632        0.820        0.113      118.822       16.280        0.019      330.986       -1.290      870.750
01/21/2014  02:05:00      -93.733      -27.749       -2.868       42.159       39.455       19.166     1777.349     1556.664      367.325        0.663        0.185       97.754       18.187        0.035      330.989       -1.284      870.738
01/21/2014  02:06:00      -82.501      -23.042       -2.355       60.707       36.574       24.601     3685.349     1337.661      605.216        0.648        0.281       85.658       28.496        0.111      331.065       -1.161      870.731
01/21/2014  02:07:00     -112.056       -5.937       -8.595       54.996       37.593       21.196     3024.613     1413.253      449.250        0.878        0.244      112.213       16.239        0.021      331.074       -1.147      870.755
01/21/2014  02:08:00     -108.971      -23.728      -14.777       26.870       37.233       18.885      722.000     1386.307      356.639        0.756        0.123      111.525        9.871        0.008      331.031       -1.217      870.786
01/21/2014  02:09:00      -96.081      -19.140       -8.010       24.599       39.534       20.406      605.098     1562.954      416.406        0.612        0.129       97.968       11.273        0.013      330.998       -1.270      870.791
01/21/2014  02:10:00     -120.256      -13.090      -10.912       39.467       38.731       24.892     1557.637     1500.062      619.627        0.921        0.184      120.967       22.249        0.034      331.015       -1.242      870.776
01/21/2014  02:11:00     -107.694      -15.656       -7.508       43.008       46.885       23.222     1849.710     2198.204      539.240        0.824        0.229      108.826       21.752        0.040      331.010       -1.249      870.769
01/21/2014  02:12:00      -84.552      -31.509      -11.782       36.549       31.307       19.991     1335.818      980.150      399.658        0.550        0.136       90.232       18.563        0.042      330.965       -1.325      870.770
01/21/2014  02:13:00      -63.317      -59.118        2.376       62.464       33.182       22.075     3901.794     1101.061      487.288        0.650        0.275       86.625       30.211        0.122      330.946       -1.354      870.764
01/21/2014  02:14:00      -60.744      -46.683        1.872       41.461       37.151       24.313     1719.046     1380.180      591.117        0.478        0.185       76.610       21.292        0.077      330.954       -1.343      870.754
01/21/2014  02:15:00      -81.184      -46.283       -1.437       41.499       34.650       24.556     1722.184     1200.649      602.978        0.613        0.176       93.450       23.959        0.066      330.954       -1.342      870.757
01/21/2014  02:16:00      -69.750      -35.409       -1.567       30.930       34.903       20.721      956.642     1218.190      429.358        0.436        0.130       78.223       15.579        0.040      330.914       -1.407      870.768
01/21/2014  02:17:00     -113.009      -35.548      -12.060       37.262       39.564       24.641     1388.481     1565.338      607.169        0.887        0.178      118.468       15.771        0.018      330.894       -1.439      870.778
01/21/2014  02:18:00      -71.836      -52.815      -15.947       35.685       27.810       19.934     1273.393      773.402      397.371        0.532        0.122       89.161        6.540        0.005      331.003       -1.261      870.776
01/21/2014  02:19:00      -98.699      -38.945      -13.370       23.217       29.814       15.635      539.017      888.879      244.458        0.655        0.084      106.105       14.294        0.018      330.923       -1.393      870.777
01/21/2014  02:20:00     -122.273      -37.099       -9.687       20.796       20.279       14.246      432.482      411.237      202.960        0.873        0.052      127.777        9.416        0.005      330.913       -1.409      870.789
01/21/2014  02:21:00      -98.903      -31.484       -3.191       50.145       30.691       19.698     2514.504      941.964      387.994        0.731        0.192      103.794       22.815        0.048      330.938       -1.369      870.801
01/21/2014  02:22:00     -100.150      -58.344       -5.983       30.452       26.839       23.003      927.326      720.327      529.126        0.782        0.109      115.906       14.936        0.017      330.965       -1.325      870.800
01/21/2014  02:23:00      -80.160      -49.510       -4.315       19.816       19.744       13.961      392.665      389.842      194.911        0.494        0.049       94.218       11.966        0.016      330.952       -1.346      870.802
01/21/2014  02:24:00     -112.164      -47.063       -8.211       22.361       16.870       14.374      500.034      284.585      206.616        0.793        0.050      121.638       11.494        0.009      331.048       -1.188      870.796
01/21/2014  02:25:00     -121.589      -32.396       -9.131       12.751       17.260       11.009      162.600      297.895      121.199        0.825        0.029      125.830        4.525        0.001      331.050       -1.186      870.789
01/21/2014  02:26:00     -100.957      -33.929       -6.321       16.798       19.933       10.810      282.158      397.326      116.848        0.609        0.040      106.506        7.504        0.005      331.038       -1.207      870.786
01/21/2014  02:27:00      -87.189      -39.165       -9.442        9.140        6.774        6.179       83.548       45.888       38.186        0.470        0.008       95.582        3.317        0.001      331.036       -1.209      870.785
01/21/2014  02:28:00     -121.097      -42.992      -11.950       12.365       14.302        7.886      152.898      204.541       62.186        0.854        0.021      128.502        5.778        0.002      331.046       -1.193      870.800
01/21/2014  02:29:00     -121.506      -65.140      -13.705       20.303       17.366       13.681      412.205      301.585      187.163        1.005        0.045      137.866        9.880        0.005      330.943       -1.360      870.820
01/21/2014  02:30:00     -135.303      -58.821      -13.900       15.458       12.511        9.033      238.938      156.534       81.604        1.122        0.024      147.536        3.815        0.001      330.936       -1.372      870.827
01/21/2014  02:31:00     -109.460      -45.017      -10.122       16.652       19.406       11.604      277.302      376.581      134.650        0.745        0.039      118.356        8.652        0.005      330.945       -1.357      870.822
01/21/2014  02:32:00      -99.634      -51.927       -7.783       18.107       16.947       13.694      327.868      287.208      187.533        0.674        0.040      112.353        8.614        0.006      330.888       -1.449      870.812
01/21/2014  02:33:00      -95.766      -42.236       -3.623       22.975       18.675       14.934      527.850      348.768      223.033        0.603        0.055      104.666       10.765        0.011      330.918       -1.402      870.801
01/21/2014  02:34:00      -91.716      -53.582       -4.207       21.074       13.781       10.427      444.125      189.912      108.726        0.602        0.037      106.221       11.066        0.011      330.901       -1.429      870.808
01/21/2014  02:35:00      -64.416      -29.629       -1.870       22.319       17.014       12.095      498.155      289.486      146.297        0.298        0.047       70.903        8.203        0.013      330.904       -1.423      870.814
01/21/2014  02:36:00      -58.710      -33.397       -8.597       11.410        8.971        7.309      130.183       80.471       53.418        0.245        0.013       67.544        2.864        0.002      330.964       -1.326      870.815
01/21/2014  02:37:00      -57.908      -28.619       -4.708       21.193       14.755        9.887      449.148      217.717       97.760        0.248        0.038       64.594        6.867        0.011      330.968       -1.318      870.826
01/21/2014  02:38:00      -75.102       -9.631       -8.064       20.324       16.500        9.767      413.058      272.243       95.390        0.329        0.039       75.717        7.586        0.010      330.919       -1.399      870.845
01/21/2014  02:39:00      -92.962      -34.810      -14.859       13.273       18.389       11.977      176.186      338.149      143.441        0.537        0.033       99.265       10.046        0.010      330.853       -1.508      870.856
01/21/2014  02:40:00      -91.569      -32.389       -7.994       16.848       17.838       11.437      283.867      318.201      130.796        0.512        0.037       97.128        5.338        0.003      330.851       -1.510      870.857
01/21/2014  02:41:00      -86.813      -13.480       -5.432       25.235       16.745       13.591      636.828      280.379      184.720        0.442        0.055       87.854       14.561        0.027      330.774       -1.639      870.856
01/21/2014  02:42:00      -47.938      -18.714       -0.762       29.244       15.744       11.854      855.186      247.888      140.512        0.195        0.062       51.461       13.691        0.071      330.749       -1.680      870.845
01/21/2014  02:43:00      -82.881       -5.996       -4.681       24.907       20.328       14.728      620.379      413.208      216.914        0.409        0.063       83.098       12.647        0.023      330.754       -1.672      870.840
01/21/2014  02:44:00     -105.005      -23.671      -11.782       30.891       15.627        9.605      954.282      244.209       92.252        0.651        0.065      107.640       12.649        0.014      330.751       -1.677      870.845
01/21/2014  02:45:00     -128.227      -52.544      -13.167       15.996       23.807       15.757      255.879      566.750      248.288        1.022        0.054      138.575       13.665        0.010      330.741       -1.693      870.868
01/21/2014  02:46:00     -131.304      -44.830       -8.637       10.800       18.921       10.845      116.648      357.985      117.609        0.996        0.030      138.746        7.311        0.003      330.786       -1.620      870.883
01/21/2014  02:47:00     -102.200      -27.246       -5.324       23.720       16.442       14.646      562.654      270.323      214.519        0.613        0.052      105.769       14.613        0.019      330.853       -1.507      870.889
01/21/2014  02:48:00      -76.032      -25.071        0.476       26.454       15.975       13.088      699.829      255.208      171.288        0.377        0.056       80.059       13.037        0.027      330.813       -1.574      870.872
01/21/2014  02:49:00      -88.882      -21.948       -8.177       18.530       11.793        9.379      343.354      139.086       87.967        0.451        0.029       91.552        9.068        0.010      330.799       -1.599      870.865
01/21/2014  02:50:00      -94.099      -14.189       -3.886       22.847       16.688       13.855      521.973      278.499      191.956        0.503        0.050       95.162       12.562        0.017      330.832       -1.542      870.864
01/21/2014  02:51:00      -97.259       -4.389      -10.361       18.000       13.689        9.726      324.005      187.380       94.589        0.510        0.030       97.358        9.348        0.009      330.872       -1.476      870.851
01/21/2014  02:52:00     -116.245       -1.269      -10.813       16.860       11.364       12.717      284.261      129.139      161.731        0.710        0.029      116.251        8.969        0.006      330.880       -1.464      870.842
01/21/2014  02:53:00      -89.551      -18.135       -1.303       21.803       16.661       14.270      475.358      277.591      203.637        0.465        0.048       91.369       12.504        0.019      330.875       -1.473      870.857
01/21/2014  02:54:00      -98.488      -27.470       -1.621       20.927       19.053       18.897      437.927      363.024      357.082        0.581        0.058      102.247       14.086        0.019      330.811       -1.576      870.889
01/21/2014  02:55:00      -87.717      -16.067        2.381       31.717       20.061       12.572     1005.952      402.461      158.053        0.476        0.078       89.176       11.864        0.018      330.753       -1.673      870.916
01/21/2014  02:56:00      -89.570      -21.808       -1.143       21.376       17.061       13.054      456.947      291.086      170.413        0.471        0.046       92.186       10.491        0.013      330.757       -1.667      870.929
01/21/2014  02:57:00      -74.315      -15.447        0.289       23.570       16.488       13.987      555.525      271.842      195.628        0.339        0.051       75.903        9.884        0.017      330.704       -1.754      870.939
01/21/2014  02:58:00      -89.208      -11.607       -1.534       27.141       14.358       13.622      736.627      206.164      185.562        0.461        0.056       89.960       12.751        0.020      330.649       -1.843      870.932
01/21/2014  02:59:00      -90.682       -1.471       -7.564       19.939        9.825        9.680      397.570       96.532       93.709        0.444        0.029       90.694        5.946        0.004      330.682       -1.789      870.922
01/21/2014  03:00:00      -81.238        2.313       -7.671       12.623        9.628        7.017      159.333       92.702       49.242        0.348        0.015       81.271        2.064        0.001      330.753       -1.674      870.910
01/21/2014  03:01:00      -83.468        3.513       -9.539       13.692       13.493        7.503      187.460      182.066       56.297        0.375        0.021       83.542        5.405        0.004      330.730       -1.710      870.904
01/21/2014  03:02:00      -72.948       -5.847      -10.134       26.424       14.805       15.165      698.230      219.189      229.972        0.330        0.057       73.182       12.505        0.029      330.650       -1.842      870.904
01/21/2014  03:03:00      -68.416      -19.338      -13.960       15.171       15.202        8.293      230.169      231.111       68.767        0.289        0.027       71.097        6.203        0.008      330.599       -1.923      870.919
01/21/2014  03:04:00      -63.000      -19.284       -8.468       15.274       21.825       10.991      233.280      476.311      120.804        0.262        0.042       65.886        7.478        0.013      330.525       -2.047      870.923
01/21/2014  03:05:00      -36.886       -8.944       -7.393       20.399       15.399       10.292      416.138      237.137      105.925        0.113        0.038       37.955       10.472        0.076      330.569       -1.975      870.895
01/21/2014  03:06:00      -36.774        3.859       -2.167       12.132       10.236       10.356      147.175      104.783      107.254        0.087        0.018       36.976        5.690        0.024      330.662       -1.823      870.871
01/21/2014  03:07:00      -66.306      -27.334       -9.428       13.929       12.484       10.532      194.006      155.849      110.924        0.285        0.023       71.719        6.276        0.008      330.552       -2.002      870.875
01/21/2014  03:08:00      -82.952      -23.933      -11.812       18.806       22.097        9.585      353.672      488.296       91.877        0.426        0.047       86.335        6.419        0.006      330.457       -2.157      870.879
01/21/2014  03:09:00      -88.513        0.773      -13.398       22.821       19.252       11.092      520.812      370.623      123.039        0.451        0.051       88.517        9.871        0.012      330.425       -2.211      870.866
01/21/2014  03:10:00      -51.846       -2.945      -12.482       18.587       11.078       13.778      345.480      122.730      189.830        0.176        0.033       51.930       13.907        0.072      330.576       -1.964      870.844
01/21/2014  03:11:00      -28.920       -3.614       -4.658        9.810       11.397        7.411       96.244      129.880       54.919        0.058        0.014       29.145        5.663        0.038      330.696       -1.766      870.834
01/21/2014  03:12:00      -17.674      -11.945       -8.446       10.673       15.742        7.632      113.911      247.820       58.254        0.047        0.021       21.332        8.037        0.142      330.848       -1.516      870.833
01/21/2014  03:13:00      -13.237        3.249       -1.145       12.212        8.467        8.330      149.131       71.686       69.385        0.024        0.015       13.630        5.351        0.154      331.052       -1.181      870.811
01/21/2014  03:14:00      -16.451       -6.984        2.905        9.773       11.650        6.891       95.502      135.720       47.491        0.030        0.014       17.872        7.289        0.166      331.089       -1.120      870.784
01/21/2014  03:15:00      -22.510       -3.311        2.769       22.804       17.279       13.302      520.042      298.578      176.947        0.076        0.050       22.752       11.722        0.265      331.048       -1.188      870.769
01/21/2014  03:16:00      -10.760       -8.112       -0.380       30.238       19.430       17.668      914.346      377.524      312.162        0.089        0.080       13.475       15.182        1.269      330.993       -1.277      870.763
01/21/2014  03:17:00      -22.216      -16.454       -1.589       12.404       12.861        9.238      153.862      165.409       85.343        0.059        0.020       27.646        5.681        0.042      330.846       -1.521      870.757
01/21/2014  03:18:00       -4.638      -17.511       -1.020       13.122       12.366        7.984      172.191      152.922       63.746        0.036        0.019       18.115        3.659        0.041      331.097       -1.109      870.764
01/21/2014  03:19:00       -9.607      -15.513       -3.726       14.700        8.056       11.814      216.079       64.896      139.562        0.038        0.021       18.247        9.728        0.284      330.968       -1.321      870.787
01/21/2014  03:20:00      -23.826      -15.137      -11.307       13.385        9.628        7.672      179.148       92.691       58.855        0.063        0.017       28.227        5.158        0.033      330.708       -1.747      870.796
01/21/2014  03:21:00       -0.812       11.988        3.860       16.697       15.339        6.899      278.775      235.278       47.602        0.036        0.028       12.016        5.718        0.226      330.976       -1.307      870.790
01/21/2014  03:22:00      -12.179        6.732        5.177       21.961       18.969       14.948      482.288      359.830      223.445        0.064        0.053       13.916       13.513        0.943      331.019       -1.235      870.786
01/21/2014  03:23:00      -63.913      -20.227      -14.964       15.009       11.243        7.359      225.285      126.396       54.156        0.256        0.020       67.038        4.897        0.005      330.588       -1.943      870.802
01/21/2014  03:24:00      -83.529      -27.338      -13.470       11.847       14.141        9.433      140.347      199.981       88.983        0.417        0.021       87.889        5.707        0.004      330.380       -2.286      870.825
01/21/2014  03:25:00      -76.543       -5.595      -14.956        9.489        8.761        7.765       90.050       76.755       60.294        0.317        0.011       76.747        2.857        0.001      330.388       -2.273      870.840
01/21/2014  03:26:00      -70.509      -12.412      -11.505       11.297       11.873       10.231      127.632      140.966      104.672        0.282        0.019       71.593        7.894        0.012      330.386       -2.274      870.837
01/21/2014  03:27:00      -65.217      -18.495      -11.905       14.681       13.408        9.662      215.534      179.774       93.363        0.261        0.024       67.789        7.480        0.012      330.413       -2.232      870.837
01/21/2014  03:28:00      -62.635      -12.950      -15.515       11.733       10.681       10.105      137.670      114.084      102.106        0.234        0.018       63.960        5.900        0.009      330.413       -2.230      870.833
01/21/2014  03:29:00      -41.378      -21.646      -13.310       12.789       12.556        8.971      163.565      157.661       80.483        0.138        0.020       46.698        8.711        0.035      330.560       -1.990      870.823
01/21/2014  03:30:00      -64.223      -23.171      -12.166       13.318        9.046        7.767      177.366       81.839       60.319        0.256        0.016       68.275        7.010        0.011      330.417       -2.224      870.805
01/21/2014  03:31:00      -93.052      -15.142      -18.867       13.122       11.680        9.185      172.185      136.419       84.357        0.482        0.020       94.276        7.684        0.007      330.378       -2.288      870.800
01/21/2014  03:32:00      -88.388      -22.694      -15.564       14.778       12.179        8.533      218.394      148.327       72.804        0.450        0.022       91.255        6.892        0.006      330.449       -2.170      870.810
01/21/2014  03:33:00      -84.119      -21.359      -14.285       16.098        9.467        7.753      259.159       89.631       60.112        0.407        0.020       86.788        5.169        0.004      330.497       -2.091      870.824
01/21/2014  03:34:00      -61.750       -9.203      -12.069        7.787        6.772        7.115       60.631       45.862       50.620        0.210        0.008       62.432        4.327        0.005      330.576       -1.963      870.812
01/21/2014  03:35:00      -60.669       -3.392      -13.045        8.234        5.471        5.154       67.801       29.929       26.563        0.199        0.006       60.764        3.658        0.004      330.709       -1.746      870.793
01/21/2014  03:36:00      -75.586        2.482      -12.206       15.765        9.241        7.555      248.537       85.396       57.084        0.313        0.020       75.627        3.571        0.002      330.667       -1.814      870.786
01/21/2014  03:37:00      -85.892       -9.521      -15.929       11.638       12.442        6.430      135.438      154.812       41.340        0.403        0.017       86.418        5.164        0.004      330.610       -1.905      870.802
01/21/2014  03:38:00     -103.369      -19.520      -14.890       14.861       11.908       10.715      220.845      141.791      114.810        0.588        0.024      105.196        9.257        0.008      330.473       -2.132      870.823
01/21/2014  03:39:00     -103.660      -14.371      -19.447       12.227        8.844       10.215      149.511       78.213      104.344        0.583        0.017      104.651        4.414        0.002      330.455       -2.160      870.820
01/21/2014  03:40:00     -100.248      -11.507      -13.095       15.175       17.659       14.770      230.280      311.825      218.165        0.556        0.038      100.906       11.818        0.014      330.494       -2.097      870.815
01/21/2014  03:41:00     -110.116       -9.286      -17.274       18.441       15.474       13.733      340.074      239.458      188.586        0.664        0.038      110.507       13.143        0.014      330.443       -2.181      870.809
01/21/2014  03:42:00     -117.088      -29.999      -12.549       27.021       22.655       17.344      730.125      513.255      300.812        0.816        0.077      120.870       15.727        0.017      330.308       -2.402      870.815
01/21/2014  03:43:00     -124.711      -22.761      -22.962       22.567       18.874       13.457      509.264      356.244      181.083        0.882        0.052      126.771       14.810        0.014      330.295       -2.423      870.826
01/21/2014  03:44:00      -97.713       -2.437      -23.565       23.845       13.105       11.732      568.600      171.728      137.631        0.549        0.044       97.743        8.003        0.007      330.355       -2.324      870.818
01/21/2014  03:45:00      -85.070       -5.566       -9.319        6.584        7.635        5.961       43.350       58.295       35.538        0.375        0.007       85.252        1.875        0.000      330.520       -2.055      870.809
01/21/2014  03:46:00      -99.923       -7.592      -11.907       27.239       13.345        8.928      741.951      178.085       79.706        0.559        0.050      100.211       10.516        0.011      330.455       -2.161      870.798
01/21/2014  03:47:00     -124.000       -2.722      -20.369       20.077       17.626       11.938      403.070      310.680      142.527        0.833        0.043      124.030       12.255        0.010      330.328       -2.371      870.794
01/21/2014  03:48:00      -77.926      -15.544      -11.051       25.010       21.282       18.826      625.489      452.935      354.413        0.393        0.072       79.461       16.429        0.043      330.294       -2.426      870.799
01/21/2014  03:49:00      -43.260      -20.208       -9.465       20.643       20.728       13.951      426.150      429.659      194.639        0.171        0.053       47.747       11.026        0.053      330.375       -2.292      870.805
01/21/2014  03:50:00      -51.064      -10.242      -12.758        8.621        7.892        6.626       74.324       62.282       43.909        0.153        0.009       52.081        3.486        0.004      330.328       -2.372      870.800
01/21/2014  03:51:00      -37.161       -8.531       -9.437        8.365        8.742        6.977       69.976       76.430       48.673        0.087        0.010       38.128        4.668        0.015      330.504       -2.081      870.805
01/21/2014  03:52:00      -41.308      -14.515      -14.377        9.210        9.459        8.528       84.826       89.474       72.720        0.119        0.012       43.784        3.737        0.007      330.551       -2.003      870.799
01/21/2014  03:53:00      -25.654      -12.238       -8.513        9.053        7.644        5.234       81.959       58.423       27.395        0.052        0.008       28.423        2.927        0.011      330.546       -2.012      870.783
01/21/2014  03:54:00      -26.617        3.356       -5.996        6.720        8.230        5.447       45.158       67.734       29.666        0.045        0.007       26.828        3.047        0.013      330.801       -1.594      870.776
01/21/2014  03:55:00      -54.244      -12.000       -6.615       11.382        7.594        7.794      129.547       57.669       60.740        0.169        0.012       55.555        7.680        0.019      330.567       -1.978      870.778
01/21/2014  03:56:00      -63.719      -31.813       -8.154       16.545        9.880        9.357      273.727       97.621       87.555        0.280        0.023       71.219        1.367        0.000      330.366       -2.307      870.788
01/21/2014  03:57:00      -97.991      -12.696      -14.188       20.354       20.044       10.459      414.291      401.781      109.390        0.544        0.046       98.810        8.223        0.007      330.100       -2.742      870.791
01/21/2014  03:58:00      -93.376       -1.596      -15.286       21.136       11.332       10.793      446.733      128.424      116.495        0.482        0.035       93.390        9.197        0.010      330.129       -2.696      870.799
01/21/2014  03:59:00      -73.653        5.523      -17.212       21.384       13.299       10.667      457.268      176.872      113.792        0.325        0.037       73.860       10.500        0.020      330.131       -2.695      870.790
01/21/2014  04:00:00      -81.048       -8.388      -14.332       20.034       12.967       10.984      401.370      168.135      120.653        0.377        0.035       81.481        9.274        0.013      330.091       -2.759      870.777
01/21/2014  04:01:00      -89.398      -15.060      -15.298       11.744       11.176       11.049      137.914      124.895      122.083        0.442        0.019       90.658        6.998        0.006      330.109       -2.730      870.762
01/21/2014  04:02:00      -92.356       -7.423      -15.370       10.730       10.254        8.223      115.139      105.145       67.620        0.455        0.014       92.653        5.528        0.004      330.168       -2.634      870.752
01/21/2014  04:03:00      -86.004       -5.074      -13.635       13.409       13.988       10.897      179.807      195.654      118.754        0.405        0.025       86.154        7.018        0.007      330.256       -2.487      870.743
01/21/2014  04:04:00      -66.490      -11.332      -12.045       13.511       17.317       10.860      182.555      299.873      117.937        0.265        0.030       67.448        8.201        0.015      330.225       -2.539      870.737
01/21/2014  04:05:00      -76.284      -15.470      -13.438       16.280       14.286       12.941      265.044      204.102      167.467        0.344        0.032       77.837        8.221        0.011      330.094       -2.753      870.732
01/21/2014  04:06:00      -66.771      -18.223       -7.888       11.871       15.493        9.238      140.910      240.043       85.341        0.266        0.023       69.213        5.677        0.007      330.173       -2.625      870.728
01/21/2014  04:07:00      -30.093       -3.615      -12.816        7.641        6.995        4.383       58.390       48.934       19.209        0.060        0.006       30.309        1.544        0.003      330.337       -2.354      870.722
01/21/2014  04:08:00      -23.026        6.397       -4.596        8.456        8.546        6.046       71.496       73.033       36.559        0.039        0.009       23.899        2.804        0.014      330.652       -1.838      870.728
01/21/2014  04:09:00      -39.125      -13.696       -5.325       12.125       12.075        9.525      147.015      145.801       90.719        0.107        0.019       41.453        8.876        0.046      330.589       -1.942      870.749
01/21/2014  04:10:00      -76.573      -17.062      -16.599       13.231       12.595        8.245      175.068      158.632       67.980        0.342        0.020       78.451        7.167        0.008      330.219       -2.547      870.756
01/21/2014  04:11:00      -75.117        5.877       -5.442       23.190       13.389       14.287      537.788      179.255      204.108        0.331        0.046       75.346       11.789        0.024      330.191       -2.595      870.749
01/21/2014  04:12:00      -65.096        3.045      -11.313        9.428       12.927        8.579       88.891      167.105       73.595        0.235        0.016       65.167        7.709        0.014      330.323       -2.378      870.728
01/21/2014  04:13:00      -51.530       14.799       -6.950        9.511       11.117        9.446       90.451      123.581       89.224        0.161        0.015       53.613        5.422        0.010      330.429       -2.203      870.713
01/21/2014  04:14:00      -66.949       -8.331      -19.182        8.635       17.696        6.877       74.560      313.134       47.299        0.268        0.022       67.465        4.006        0.004      330.428       -2.204      870.725
01/21/2014  04:15:00      -80.345      -30.520      -13.692       11.418       13.766        9.230      130.368      189.490       85.192        0.399        0.020       85.946        4.004        0.002      330.179       -2.615      870.728
01/21/2014  04:16:00      -82.753       -2.652      -15.380       11.437        9.234       10.703      130.800       85.261      114.555        0.371        0.017       82.795        4.323        0.003      330.151       -2.662      870.729
01/21/2014  04:17:00      -59.605        0.964      -14.435       18.480       16.095       12.869      341.494      259.044      165.609        0.226        0.038       59.613       10.690        0.032      330.183       -2.608      870.733
01/21/2014  04:18:00      -46.132      -12.961      -11.556        7.944        7.523        6.646       63.113       56.602       44.174        0.130        0.008       47.918        4.476        0.009      330.325       -2.372      870.733
01/21/2014  04:19:00      -53.316      -23.925      -10.285        9.743       10.268        8.563       94.929      105.440       73.325        0.190        0.014       58.438        5.072        0.008      330.314       -2.392      870.730
01/21/2014  04:20:00      -31.773      -22.075      -11.043       21.793       11.114        9.066      474.919      123.517       82.191        0.115        0.034       38.689        2.872        0.006      330.321       -2.381      870.731
01/21/2014  04:21:00      -47.332      -27.108      -12.250       10.037        8.127        9.085      100.734       66.048       82.531        0.169        0.012       54.545        3.447        0.004      330.312       -2.395      870.731
01/21/2014  04:22:00      -63.319      -13.499      -14.916       15.848       12.545        9.454      251.160      157.376       89.371        0.246        0.025       64.742        7.348        0.013      330.264       -2.474      870.728
01/21/2014  04:23:00     -101.973      -10.175      -19.796       19.313       12.011        8.425      373.008      144.259       70.980        0.574        0.029      102.479        5.168        0.003      330.120       -2.712      870.723
01/21/2014  04:24:00     -106.832      -14.353      -20.492       19.492       17.857       17.078      379.942      318.871      291.668        0.651        0.050      107.792       11.841        0.012      330.044       -2.834      870.738
01/21/2014  04:25:00     -110.946      -16.086      -17.741       24.981       14.178       11.016      624.074      201.023      121.353        0.691        0.047      112.106       11.718        0.011      330.046       -2.831      870.747
01/21/2014  04:26:00     -110.269      -13.588      -13.540       32.953       14.782       10.945     1085.905      218.513      119.799        0.698        0.071      111.103       10.577        0.009      330.011       -2.888      870.756
01/21/2014  04:27:00      -98.246       -9.376      -15.239       19.382       19.322       14.232      375.664      373.336      202.546        0.546        0.048       98.692       12.958        0.017      330.060       -2.808      870.757
01/21/2014  04:28:00      -84.006      -21.867      -19.886       12.709       15.401       12.164      161.518      237.180      147.965        0.424        0.027       86.806        9.171        0.011      330.087       -2.765      870.762
01/21/2014  04:29:00      -85.449      -22.554      -14.782       26.628       16.242       14.618      709.028      263.799      213.698        0.461        0.059       88.375       11.103        0.016      330.071       -2.791      870.762
01/21/2014  04:30:00      -95.717       -4.191      -21.765       17.880       15.349       13.963      319.707      235.584      194.952        0.520        0.038       95.808        5.605        0.003      330.103       -2.738      870.768
01/21/2014  04:31:00     -104.511      -21.891      -15.233       15.006       18.944       14.902      225.189      358.892      222.060        0.622        0.040      106.779        8.026        0.006      330.096       -2.751      870.754
01/21/2014  04:32:00      -97.065       -4.695      -16.986       15.585       16.861       10.398      242.879      284.278      108.112        0.518        0.032       97.178        9.076        0.009      330.136       -2.683      870.738
01/21/2014  04:33:00     -110.951        1.060      -20.743       23.334       12.487       14.245      544.491      155.937      202.923        0.682        0.045      110.956       13.898        0.016      330.217       -2.552      870.724
01/21/2014  04:34:00      -88.293      -16.746      -12.128       29.959       24.195       17.846      897.536      585.392      318.463        0.501        0.090       89.867       16.936        0.036      330.134       -2.688      870.727
01/21/2014  04:35:00      -77.462      -24.718      -15.094       15.681       21.251       12.625      245.894      451.586      159.384        0.385        0.043       81.310        8.740        0.012      330.106       -2.735      870.731
01/21/2014  04:36:00      -72.785      -16.957      -16.086       19.931       14.657       11.678      397.241      214.824      136.376        0.330        0.037       74.734       10.986        0.022      330.196       -2.588      870.725
01/21/2014  04:37:00      -70.271      -23.270       -7.724       21.154       24.292       14.694      447.474      590.121      215.907        0.340        0.063       74.024       12.809        0.030      330.168       -2.633      870.720
01/21/2014  04:38:00      -76.562      -44.014      -12.101       19.838       18.718       11.965      393.561      350.376      143.155        0.442        0.044       88.312        2.493        0.001      330.138       -2.683      870.727
01/21/2014  04:39:00      -92.923      -30.312      -14.621       20.004       21.166       11.583      400.164      447.984      134.176        0.537        0.049       97.742        8.572        0.008      330.121       -2.710      870.726
01/21/2014  04:40:00     -100.184      -22.419      -18.859       19.566       22.377       10.764      382.818      500.731      115.873        0.595        0.050      102.662        9.581        0.009      330.055       -2.817      870.716
01/21/2014  04:41:00      -80.015       -9.397      -13.180       21.868       18.506       10.738      478.202      342.462      115.301        0.380        0.047       80.565        7.983        0.010      330.061       -2.808      870.709
01/21/2014  04:42:00      -75.805       -3.051       -8.491       20.897       21.579       11.654      436.680      465.674      135.820        0.343        0.052       75.866        8.121        0.011      330.107       -2.733      870.702
01/21/2014  04:43:00      -93.874      -18.681       -5.979       33.711       19.146       16.552     1136.461      366.551      273.980        0.549        0.089       95.715       16.190        0.029      330.103       -2.739      870.710
01/21/2014  04:44:00     -104.475       -0.266      -12.734       39.174       19.291       14.411     1534.592      372.143      207.687        0.660        0.106      104.475       12.707        0.015      330.068       -2.796      870.700
01/21/2014  04:45:00      -34.674       12.795       -4.308       26.146       29.476       19.769      683.596      868.843      390.810        0.166        0.097       36.959       11.547        0.098      330.084       -2.770      870.684
01/21/2014  04:46:00      -20.184       -7.178       -0.810       24.007       21.536       15.756      576.324      463.807      248.247        0.087        0.064       21.422       13.601        0.403      330.102       -2.742      870.670
01/21/2014  04:47:00      -58.345      -12.147      -14.196       22.865       17.916       12.501      522.803      320.974      156.268        0.238        0.050       59.596       10.995        0.034      330.191       -2.595      870.659
01/21/2014  04:48:00      -69.958        0.288      -12.993       22.223       15.394       12.624      493.851      236.986      159.367        0.298        0.045       69.958        9.710        0.019      330.069       -2.793      870.660
01/21/2014  04:49:00      -62.754       -8.022      -11.180       15.201       10.498       10.228      231.073      110.201      104.618        0.229        0.022       63.265        9.404        0.022      330.097       -2.746      870.663
01/21/2014  04:50:00      -59.764      -18.191      -15.234       10.003       11.247        6.088      100.062      126.492       37.061        0.220        0.013       62.471        5.234        0.007      330.209       -2.565      870.672
01/21/2014  04:51:00      -60.528      -33.274      -15.312       10.665       11.227        9.097      113.750      126.045       82.747        0.266        0.016       69.071        5.278        0.006      330.220       -2.545      870.677
01/21/2014  04:52:00      -49.426      -22.541       -9.328       11.910       14.917        7.867      141.845      222.520       61.887        0.173        0.021       54.324        5.464        0.010      330.217       -2.550      870.672
01/21/2014  04:53:00      -62.506      -12.053      -14.056       13.850       11.035        9.027      191.817      121.780       81.486        0.232        0.020       63.658        4.727        0.006      330.252       -2.494      870.666
01/21/2014  04:54:00      -66.295       -6.810       -5.963        8.235        8.852        5.304       67.818       78.350       28.132        0.233        0.009       66.644        3.924        0.003      330.221       -2.546      870.656
01/21/2014  04:55:00      -53.629      -26.460       -8.903       13.478       12.199        9.827      181.646      148.822       96.569        0.204        0.021       59.801        6.651        0.012      330.043       -2.837      870.646
01/21/2014  04:56:00      -40.563      -30.010       -8.622       18.040       15.699       13.278      325.450      246.446      176.315        0.168        0.037       50.458        9.079        0.032      330.258       -2.484      870.635
01/21/2014  04:57:00      -59.553      -25.613      -16.197       11.113       13.532        8.852      123.501      183.105       78.363        0.242        0.019       64.827        4.659        0.005      330.095       -2.751      870.628
01/21/2014  04:58:00      -65.968      -23.962      -14.739        9.321       13.835        9.034       86.875      191.406       81.605        0.275        0.018       70.185        3.894        0.003      330.004       -2.901      870.629
01/21/2014  04:59:00      -52.386      -13.418      -11.772       10.670        7.756        5.485      113.852       60.148       30.087        0.163        0.010       54.077        3.928        0.005      330.045       -2.834      870.624
01/21/2014  05:00:00      -38.508      -27.660       -8.413       12.008        8.771        6.306      144.199       76.929       39.762        0.129        0.013       47.412        4.373        0.009      330.202       -2.578      870.627
01/21/2014  05:01:00      -64.549      -22.290       -9.958       11.702        6.467        6.033      136.929       41.824       36.402        0.249        0.011       68.290        3.677        0.003      330.039       -2.845      870.642
01/21/2014  05:02:00     -108.100      -22.317      -15.737        9.112        9.513        7.738       83.027       90.501       59.879        0.633        0.012      110.380        5.259        0.002      329.899       -3.073      870.646
01/21/2014  05:03:00      -81.526      -22.392      -15.324       14.252       16.821       12.685      203.114      282.956      160.908        0.401        0.032       84.545       10.092        0.014      329.912       -3.050      870.642
01/21/2014  05:04:00     -108.390       -3.582      -19.217       10.269       11.155       10.668      105.445      124.444      113.815        0.624        0.017      108.449        3.079        0.001      329.837       -3.175      870.632
01/21/2014  05:05:00      -90.664        8.694      -12.730       21.106        9.619        9.525      445.481       92.532       90.724        0.454        0.031       91.080        8.490        0.009      329.975       -2.949      870.620
01/21/2014  05:06:00      -51.457      -13.278       -1.822        9.853        9.426        8.982       97.073       88.844       80.670        0.155        0.013       53.143        5.143        0.009      330.029       -2.859      870.613
01/21/2014  05:07:00      -50.748      -23.867      -13.038       11.464        9.025        8.157      131.420       81.451       66.539        0.180        0.014       56.080        5.977        0.011      330.064       -2.804      870.617
01/21/2014  05:08:00      -71.051      -31.733      -13.702       15.499       13.213       11.860      240.219      174.574      140.658        0.340        0.028       77.816        6.280        0.007      330.041       -2.839      870.619
01/21/2014  05:09:00      -89.448       -7.594      -12.660       15.920       18.873        9.889      253.451      356.176       97.789        0.446        0.035       89.769        7.612        0.007      329.921       -3.037      870.618
01/21/2014  05:10:00      -84.498      -10.762       -5.816       19.935       21.009       14.640      397.391      441.375      214.335        0.417        0.053       85.181       11.324        0.018      329.890       -3.086      870.617
01/21/2014  05:11:00      -74.695      -24.676       -7.769       21.022       21.483       11.527      441.935      461.521      132.865        0.364        0.052       78.665        7.428        0.009      329.959       -2.975      870.613
01/21/2014  05:12:00     -100.461       -6.600      -15.605       13.419       11.952        9.684      180.063      142.845       93.778        0.540        0.021      100.678        6.711        0.004      329.950       -2.992      870.616
01/21/2014  05:13:00      -70.508       -9.502      -18.356       17.370       10.217       10.098      301.703      104.390      101.970        0.295        0.025       71.145        9.259        0.017      329.940       -3.005      870.619
01/21/2014  05:14:00      -70.121      -11.841      -16.741        9.463       11.013        7.322       89.543      121.280       53.612        0.280        0.013       71.114        3.773        0.003      329.912       -3.052      870.613
01/21/2014  05:15:00      -49.065      -12.354      -10.106        6.667        8.015        6.417       44.449       64.246       41.172        0.141        0.007       50.597        3.778        0.006      329.952       -2.986      870.605
01/21/2014  05:16:00      -49.341      -22.284      -15.903        6.856        6.443        6.563       46.999       41.513       43.071        0.166        0.007       54.139        2.946        0.003      329.954       -2.982      870.597
01/21/2014  05:17:00      -71.000      -20.086      -20.085       17.173        8.736        7.566      294.925       76.311       57.244        0.314        0.021       73.787        4.122        0.003      330.010       -2.891      870.598
01/21/2014  05:18:00      -75.464      -16.599      -11.378       13.343       14.374        7.911      178.038      206.598       62.591        0.327        0.022       77.268        4.829        0.004      329.914       -3.049      870.594
01/21/2014  05:19:00      -98.511      -14.441      -17.178       12.046       10.070       10.158      145.109      101.408      103.183        0.528        0.017       99.564        3.847        0.001      329.867       -3.124      870.586
01/21/2014  05:20:00      -61.284      -22.354      -16.334       14.333       16.123       10.217      205.448      259.964      104.382        0.255        0.028       65.234        4.295        0.004      329.883       -3.099      870.582
01/21/2014  05:21:00      -68.471      -34.929      -13.940       26.147       14.978       11.968      683.648      224.333      143.223        0.358        0.053       76.865        3.501        0.002      329.927       -3.027      870.585
01/21/2014  05:22:00      -96.278      -20.725      -10.599       21.408       20.610       10.189      458.300      424.764      103.813        0.540        0.049       98.483        4.484        0.002      329.875       -3.111      870.589
01/21/2014  05:23:00      -78.271      -32.559      -11.736       12.970       21.867       14.691      168.218      478.186      215.826        0.409        0.043       84.773        7.491        0.008      329.923       -3.034      870.600
01/21/2014  05:24:00      -74.698      -15.864       -8.924       10.819       13.516       11.862      117.041      182.680      140.702        0.318        0.022       76.364        5.294        0.005      329.932       -3.020      870.612
01/21/2014  05:25:00      -66.899       -9.578       -4.843       13.588       13.704       10.411      184.640      187.799      108.379        0.254        0.024       67.581        7.288        0.012      330.011       -2.889      870.620
01/21/2014  05:26:00      -68.751      -30.448       -6.755       13.026       13.864        8.965      169.686      192.221       80.366        0.307        0.022       75.191        7.433        0.010      330.073       -2.787      870.620
01/21/2014  05:27:00      -70.529      -34.303       -4.959       13.149       13.202       10.528      172.899      174.283      110.834        0.332        0.023       78.429        7.704        0.010      330.054       -2.818      870.618
01/21/2014  05:28:00      -76.789      -19.429       -5.665       13.483       12.415        7.444      181.784      154.122       55.417        0.335        0.020       79.209        7.130        0.008      330.064       -2.802      870.625
01/21/2014  05:29:00      -74.272      -33.646       -6.231       12.486       17.369        6.918      155.911      301.689       47.852        0.360        0.025       81.538        5.459        0.004      330.067       -2.797      870.635
01/21/2014  05:30:00      -78.057      -21.975       -2.919       10.312       10.277        7.389      106.333      105.618       54.597        0.343        0.013       81.091        5.317        0.004      330.036       -2.848      870.653
01/21/2014  05:31:00      -78.935      -27.753       -3.447       16.601       14.800        8.770      275.587      219.033       76.908        0.379        0.029       83.671        4.439        0.003      329.979       -2.942      870.667
01/21/2014  05:32:00     -112.112      -53.899       -6.853       15.639       18.655       11.407      244.588      348.002      130.125        0.812        0.036      124.396        6.376        0.003      329.837       -3.174      870.674
01/21/2014  05:33:00     -111.502      -42.850       -9.625       22.112       18.941       10.858      488.925      358.752      117.892        0.766        0.048      119.453        8.808        0.005      329.688       -3.417      870.685
01/21/2014  05:34:00      -81.908      -36.162       -6.278       29.464       24.776       14.229      868.104      613.833      202.466        0.487        0.084       89.536       15.319        0.029      329.746       -3.323      870.693
01/21/2014  05:35:00      -90.857      -28.878       -7.453       23.587       19.777       11.361      556.350      391.134      129.071        0.511        0.054       95.336        7.935        0.007      329.859       -3.139      870.703
01/21/2014  05:36:00      -98.796      -21.215       -3.875       30.188       23.702       18.537      911.286      561.789      343.636        0.602        0.091      101.048       18.110        0.032      329.833       -3.181      870.712
01/21/2014  05:37:00      -94.509       -5.356        3.215       36.916       17.877       16.574     1362.782      319.570      274.695        0.546        0.098       94.661       18.073        0.036      329.731       -3.347      870.723
01/21/2014  05:38:00      -70.124       -1.365        4.460       30.600       22.385       17.904      936.364      501.075      320.570        0.335        0.088       70.137       18.206        0.067      329.770       -3.283      870.722
01/21/2014  05:39:00      -77.580       -2.298       -0.029       29.662       16.807       11.864      879.821      282.472      140.752        0.366        0.065       77.614       12.954        0.028      329.960       -2.974      870.726
01/21/2014  05:40:00      -90.809      -19.879        0.598       22.823       24.073       13.570      520.885      579.528      184.157        0.496        0.064       92.959       11.127        0.014      329.988       -2.926      870.736
01/21/2014  05:41:00     -120.808      -29.146       -2.639       36.241       20.631       19.727     1313.407      425.654      389.159        0.879        0.106      124.275       21.243        0.029      329.930       -3.022      870.755
01/21/2014  05:42:00     -112.815      -25.476       -5.918       44.154       19.831       19.670     1949.618      393.267      386.901        0.807        0.136      115.655       23.092        0.040      329.767       -3.288      870.765
01/21/2014  05:43:00      -57.412       -9.234       -0.326       40.068       24.127       14.493     1605.429      582.115      210.035        0.289        0.120       58.150       17.751        0.093      329.772       -3.281      870.766
01/21/2014  05:44:00      -53.747      -11.474       -7.400       25.279       14.360       12.958      639.020      206.205      167.903        0.204        0.051       54.958       14.110        0.066      329.904       -3.066      870.769
01/21/2014  05:45:00      -62.964      -33.977      -16.002       17.165       22.791       11.214      294.651      519.422      125.757        0.316        0.047       71.547        8.698        0.015      329.747       -3.322      870.769
01/21/2014  05:46:00     -123.971      -38.973      -13.676       32.743       22.934       20.024     1072.074      525.975      400.954        0.954        0.100      129.953       18.143        0.019      329.611       -3.545      870.765
01/21/2014  05:47:00      -54.128      -11.332        6.230       46.035       42.942       27.575     2119.225     1843.983      760.359        0.391        0.236       55.301       19.629        0.126      329.574       -3.605      870.754
01/21/2014  05:48:00      -98.668       15.500       -4.879       35.987       28.797       20.867     1295.098      829.240      435.422        0.628        0.128       99.878       15.399        0.024      329.819       -3.204      870.742
01/21/2014  05:49:00     -116.217       10.957       -9.044       31.300       34.876       18.671      979.711     1216.355      348.589        0.813        0.127      116.733       14.967        0.016      329.959       -2.973      870.741
01/21/2014  05:50:00     -112.620      -14.288       -7.438       40.104       31.365       22.334     1608.314      983.763      498.825        0.802        0.155      113.523       21.928        0.037      329.912       -3.052      870.754
01/21/2014  05:51:00      -82.114       -2.236       -6.518       37.971       30.275       20.445     1441.822      916.558      417.999        0.478        0.139       82.144       17.063        0.043      329.855       -3.146      870.773
01/21/2014  05:52:00      -94.887       10.476       -7.257       53.206       25.453       20.344     2830.927      647.834      413.868        0.653        0.195       95.463       23.481        0.061      329.887       -3.093      870.774
01/21/2014  05:53:00      -91.414        8.191       -3.154       30.629       28.632       18.141      938.134      819.763      329.086        0.526        0.104       91.780       13.364        0.021      329.845       -3.161      870.773
01/21/2014  05:54:00      -79.127      -32.781       -4.627       24.864       28.440       14.465      618.242      808.829      209.233        0.450        0.082       85.649        9.245        0.012      329.869       -3.123      870.773
01/21/2014  05:55:00      -81.029      -40.898       -2.949       24.051       27.697       19.086      578.428      767.129      364.273        0.498        0.085       90.766       16.501        0.033      329.855       -3.146      870.785
01/21/2014  05:56:00      -71.142      -40.335       -8.757       30.194       23.429       21.029      911.697      548.929      442.227        0.433        0.095       81.781       18.043        0.049      329.824       -3.195      870.799
01/21/2014  05:57:00      -56.747      -43.512       -6.564       35.339       21.919       17.271     1248.851      480.464      298.279        0.359        0.101       71.509       17.089        0.057      329.788       -3.254      870.799
01/21/2014  05:58:00      -75.053        6.276       -4.158       39.731       24.717       17.633     1578.577      610.921      310.920        0.409        0.125       75.314       18.525        0.061      329.771       -3.281      870.789
01/21/2014  05:59:00      -47.397        1.473      -13.998       12.889       16.314       11.364      166.115      266.148      129.138        0.150        0.028       47.420        9.367        0.039      329.851       -3.151      870.784
01/21/2014  06:00:00      -67.863      -19.947      -11.281       13.654       14.305       10.210      186.433      204.635      104.239        0.281        0.025       70.734        4.604        0.004      329.882       -3.100      870.793
01/21/2014  06:01:00      -81.798      -30.331       -7.479       24.540       20.367       14.198      602.207      414.834      201.579        0.444        0.061       87.241        4.374        0.003      329.864       -3.131      870.812
01/21/2014  06:02:00      -78.519      -28.298      -17.836       15.029       24.004       15.200      225.874      576.194      231.046        0.416        0.052       83.462        6.246        0.006      329.705       -3.390      870.822
01/21/2014  06:03:00      -61.239      -25.656      -14.459       19.505       19.076       15.096      380.461      363.881      227.880        0.279        0.049       66.396        7.673        0.013      329.691       -3.413      870.834
01/21/2014  06:04:00      -74.083      -22.373      -15.027       15.213       20.101       13.585      231.436      404.038      184.546        0.352        0.041       77.387       11.537        0.022      329.573       -3.606      870.850
01/21/2014  06:05:00      -91.626      -15.462      -11.493       12.899       14.237       11.776      166.389      202.688      138.674        0.464        0.025       92.922        7.946        0.007      329.493       -3.737      870.867
01/21/2014  06:06:00      -83.644      -10.784       -7.677       18.510       14.708       12.452      342.616      216.327      155.045        0.394        0.036       84.336       12.445        0.022      329.541       -3.658      870.872
01/21/2014  06:07:00      -85.467        5.045      -11.171       12.866        8.826       10.643      165.532       77.894      113.273        0.391        0.018       85.616        6.920        0.007      329.649       -3.482      870.868
01/21/2014  06:08:00      -57.174      -16.298       -9.026       18.700       11.931        8.014      349.697      142.354       64.218        0.209        0.028       59.452        2.709        0.002      329.676       -3.438      870.863
01/21/2014  06:09:00      -69.039      -27.167      -13.228       14.829       14.962       10.854      219.914      223.866      117.814        0.312        0.028       74.192        4.167        0.003      329.622       -3.526      870.868
01/21/2014  06:10:00      -83.551      -13.134      -12.335       13.152       16.751        9.012      172.975      280.596       81.212        0.392        0.027       84.577        8.307        0.010      329.485       -3.748      870.870
01/21/2014  06:11:00      -59.360      -10.237      -12.193        9.056       11.142       10.086       82.013      124.147      101.727        0.204        0.015       60.236        5.598        0.009      329.532       -3.672      870.877
01/21/2014  06:12:00      -54.521      -14.359      -12.649        8.542       12.058        8.369       72.964      145.390       70.042        0.181        0.014       56.380        6.083        0.012      329.564       -3.621      870.878
01/21/2014  06:13:00      -53.301      -16.622       -6.697       11.622        9.544        8.673      135.061       91.090       75.219        0.173        0.015       55.832        5.972        0.011      329.569       -3.613      870.891
01/21/2014  06:14:00      -62.046      -12.687      -14.365       11.716       12.092       10.430      137.275      146.220      108.779        0.230        0.020       63.330        3.915        0.004      329.585       -3.588      870.893
01/21/2014  06:15:00      -54.983       -7.315      -10.967        8.221        7.404        7.929       67.588       54.821       62.864        0.169        0.009       55.468        3.697        0.004      329.568       -3.615      870.895
01/21/2014  06:16:00      -45.035      -21.554       -9.206       11.206        5.719        6.151      125.582       32.701       37.831        0.139        0.010       49.927        4.923        0.010      329.699       -3.398      870.899
01/21/2014  06:17:00      -67.489      -14.542       -8.152       16.973        9.190        8.874      288.074       84.451       78.750        0.264        0.023       69.038        4.090        0.004      329.645       -3.488      870.916
01/21/2014  06:18:00      -65.146      -12.046      -10.415        9.796        8.926        6.543       95.961       79.672       42.806        0.236        0.011       66.251        3.964        0.004      329.629       -3.515      870.926
01/21/2014  06:19:00      -56.282       -6.023      -12.633       11.115        7.767        7.035      123.539       60.325       49.485        0.180        0.012       56.603        6.391        0.013      329.629       -3.514      870.926
01/21/2014  06:20:00      -90.492      -11.073      -13.997       11.007       12.748        8.325      121.148      162.511       69.309        0.443        0.018       91.167        6.119        0.005      329.509       -3.710      870.919
01/21/2014  06:21:00      -69.692      -21.045      -13.235       15.727       11.122        8.426      247.335      123.706       71.004        0.296        0.022       72.800        6.719        0.009      329.550       -3.644      870.923
01/21/2014  06:22:00      -60.568      -15.034       -9.237        8.266        8.019        9.698       68.329       64.307       94.054        0.210        0.011       62.406        3.070        0.002      329.624       -3.522      870.929
01/21/2014  06:23:00      -46.651        5.123       -9.208       11.520        8.908        5.798      132.706       79.361       33.618        0.127        0.012       46.931        3.975        0.007      329.739       -3.334      870.943
01/21/2014  06:24:00        6.116       37.648        0.583       13.042        9.770        6.865      170.100       95.447       47.126        0.088        0.016       38.142        3.011        0.006      330.198       -2.582      870.941
01/21/2014  06:25:00        1.436       38.067       -5.453       14.930       15.177        7.158      222.893      230.346       51.231        0.099        0.025       38.094        5.524        0.021      330.262       -2.479      870.938
01/21/2014  06:26:00      -34.358        6.914       -1.519       12.497       22.603        8.632      156.180      510.916       74.518        0.099        0.037       35.047        8.828        0.063      329.946       -2.996      870.947
01/21/2014  06:27:00      -63.186      -27.285      -12.768       11.784        9.787        8.506      138.861       95.789       72.358        0.260        0.015       68.825        5.011        0.005      329.571       -3.609      870.971
01/21/2014  06:28:00      -77.874       -9.508      -12.009       17.444       18.613       14.817      304.297      346.452      219.546        0.358        0.044       78.452       11.501        0.021      329.451       -3.805      870.988
01/21/2014  06:29:00      -67.054      -23.334       -8.255       26.439       21.299       12.548      698.995      453.633      157.461        0.321        0.066       70.998       13.212        0.035      329.354       -3.965      870.997
01/21/2014  06:30:00      -73.623      -23.297      -15.521       12.255       12.981       12.652      150.192      168.510      160.076        0.334        0.024       77.221        6.260        0.007      329.412       -3.870      870.997
01/21/2014  06:31:00      -84.175      -17.591      -12.979       11.517       11.566        7.868      132.646      133.766       61.911        0.395        0.016       85.993        5.316        0.004      329.328       -4.006      870.993
01/21/2014  06:32:00      -94.174       -8.589      -12.761        7.940        9.412        6.990       63.049       88.579       48.860        0.465        0.010       94.565        3.819        0.002      329.329       -4.007      870.991
01/21/2014  06:33:00      -85.528       -4.157      -14.289       14.482       12.971       11.231      209.725      168.250      126.125        0.402        0.025       85.629        8.102        0.009      329.349       -3.971      870.996
01/21/2014  06:34:00      -78.875      -14.249      -13.292       21.671       13.543       12.966      469.643      183.423      168.110        0.371        0.041       80.152       10.855        0.018      329.368       -3.942      871.001
01/21/2014  06:35:00      -92.927      -23.996      -18.157       25.576       14.791       13.397      654.123      218.761      179.467        0.530        0.053       95.975       12.794        0.018      329.346       -3.978      871.011
01/21/2014  06:36:00      -95.665      -19.828      -15.250       19.674       16.336       13.576      387.085      266.858      184.309        0.531        0.042       97.698       12.159        0.015      329.362       -3.953      871.012
01/21/2014  06:37:00     -102.791      -14.218      -13.307       18.460       18.500       14.815      340.769      342.243      219.485        0.592        0.045      103.769       10.275        0.010      329.298       -4.055      871.018
01/21/2014  06:38:00      -77.746      -22.765       -7.425       21.276       19.755       13.322      452.659      390.265      177.478        0.382        0.051       81.011       11.300        0.019      329.289       -4.072      871.026
01/21/2014  06:39:00      -86.134      -16.013      -13.874       11.973       11.807       11.835      143.355      139.403      140.076        0.415        0.021       87.610        9.230        0.011      329.400       -3.891      871.041
01/21/2014  06:40:00      -87.759       -5.672      -11.203       11.487       12.349        9.873      131.950      152.493       97.478        0.412        0.019       87.942        5.897        0.004      329.463       -3.787      871.061
01/21/2014  06:41:00     -113.990        2.064      -17.950       17.143       10.780        9.867      293.867      116.209       97.364        0.691        0.025      114.009        6.564        0.003      329.429       -3.843      871.083
01/21/2014  06:42:00     -124.502        0.615      -15.915       29.309       16.592       17.954      859.032      275.282      322.333        0.861        0.073      124.504       16.979        0.019      329.338       -3.991      871.104
01/21/2014  06:43:00     -118.838      -20.597       -9.105       38.144       25.347       16.627     1454.929      642.490      276.448        0.850        0.119      120.609       17.295        0.021      329.338       -3.991      871.111
01/21/2014  06:44:00     -110.810      -14.352       -3.488       34.654       21.809       19.840     1200.883      475.638      393.607        0.728        0.104      111.735       16.085        0.021      329.350       -3.971      871.115
01/21/2014  06:45:00     -126.820      -18.909      -14.098       25.205       19.116       14.192      635.276      365.429      201.414        0.892        0.060      128.221       13.272        0.011      329.342       -3.985      871.118
01/21/2014  06:46:00     -106.821      -16.424       -5.129       24.992       16.316       18.385      624.581      266.212      338.020        0.647        0.061      108.076       12.546        0.013      329.322       -4.017      871.107
01/21/2014  06:47:00     -118.278       -7.782       -9.180       28.869       17.739       19.152      833.407      314.680      366.805        0.782        0.076      118.534       18.518        0.024      329.329       -4.006      871.092
01/21/2014  06:48:00      -95.992      -22.840       -2.609       31.741       25.069       19.801     1007.463      628.457      392.065        0.589        0.101       98.672       19.571        0.039      329.357       -3.960      871.083
01/21/2014  06:49:00      -87.759       -4.830       -0.210       34.810       29.924       23.896     1211.724      895.438      571.023        0.520        0.134       87.891       20.778        0.056      329.385       -3.913      871.075
01/21/2014  06:50:00      -83.672      -17.933       -7.921       23.367       28.994       17.253      546.002      840.678      297.678        0.453        0.084       85.572       14.142        0.027      329.357       -3.962      871.073
01/21/2014  06:51:00     -106.206      -17.006       -5.942       30.910       25.643       20.229      955.439      657.551      409.196        0.681        0.101      107.559       16.534        0.024      329.343       -3.982      871.061
01/21/2014  06:52:00      -87.731      -13.514      -10.271       26.637       24.767       17.117      709.555      613.409      292.999        0.480        0.081       88.766       16.307        0.034      329.406       -3.879      871.058
01/21/2014  06:53:00     -105.496       -6.164      -15.051       21.262       20.283       14.853      452.082      411.409      220.624        0.624        0.054      105.676       10.780        0.010      329.394       -3.900      871.059
01/21/2014  06:54:00      -73.598      -11.584       -8.259       19.264       15.489       11.618      371.118      239.906      134.970        0.318        0.037       74.504        8.395        0.013      329.441       -3.821      871.064
01/21/2014  06:55:00      -82.544       -6.603       -5.845       15.619       14.001       10.375      243.964      196.039      107.646        0.372        0.027       82.808        5.560        0.005      329.444       -3.816      871.066
01/21/2014  06:56:00      -67.677      -20.764      -11.063       13.509       12.641       11.243      182.499      159.803      126.398        0.280        0.023       70.791        8.873        0.016      329.473       -3.767      871.075
01/21/2014  06:57:00      -63.558      -12.115      -17.440        9.493        8.278        7.634       90.110       68.533       58.273        0.235        0.011       64.702        3.292        0.003      329.527       -3.681      871.090
01/21/2014  06:58:00      -60.467       -6.663       -7.247        6.817        8.992        8.267       46.474       80.864       68.341        0.197        0.010       60.833        4.577        0.006      329.591       -3.576      871.101
01/21/2014  06:59:00      -33.286        3.961        4.725       13.014        5.408        5.323      169.364       29.248       28.334        0.069        0.011       33.521        6.346        0.036      329.603       -3.558      871.099
01/21/2014  07:00:00       18.571       19.110       -0.131       10.002        7.372        5.732      100.036       54.345       32.854        0.045        0.009       26.647        4.393        0.027      329.849       -3.153      871.098
01/21/2014  07:01:00       13.858       25.337       -2.019        9.013        9.873        6.267       81.237       97.477       39.272        0.053        0.011       28.879        4.858        0.028      329.847       -3.158      871.092
01/21/2014  07:02:00       21.223       70.176       -7.456       10.307       12.972        7.842      106.232      168.268       61.498        0.288        0.017       73.315        6.482        0.008      330.149       -2.663      871.086
01/21/2014  07:03:00       18.932       35.971       -4.797       14.755       29.293       12.304      217.698      858.091      151.383        0.145        0.061       40.649       10.134        0.062      330.087       -2.766      871.100
01/21/2014  07:04:00        2.094       -0.826       -2.150        8.719        7.867        8.181       76.021       61.892       66.924        0.011        0.010        2.251        6.551        8.470      330.003       -2.902      871.119
01/21/2014  07:05:00      -14.097        0.823       -2.755       10.110        9.401        6.636      102.217       88.383       44.039        0.022        0.012       14.121        5.393        0.146      329.994       -2.917      871.142
01/21/2014  07:06:00      -42.489      -14.178      -12.096       13.911       11.180        8.580      193.503      124.994       73.618        0.127        0.020       44.792        4.008        0.008      329.554       -3.637      871.150
01/21/2014  07:07:00      -39.103       -7.607       -8.546        9.625        7.196        5.618       92.641       51.778       31.565        0.092        0.009       39.836        3.824        0.009      329.640       -3.495      871.152
01/21/2014  07:08:00      -55.143      -18.345       -8.714       13.322       10.740        8.007      177.484      115.348       64.109        0.190        0.018       58.114        1.578        0.001      329.525       -3.684      871.165
01/21/2014  07:09:00      -59.489      -27.111       -9.367       10.554       10.591        7.985      111.395      112.171       63.752        0.232        0.014       65.375        4.689        0.005      329.448       -3.811      871.185
01/21/2014  07:10:00      -74.012      -11.686      -12.051       15.831       11.679        8.136      250.610      136.394       66.187        0.311        0.023       74.929        6.140        0.007      329.449       -3.809      871.199
01/21/2014  07:11:00      -89.803       -8.048      -15.287       13.104       10.122       10.211      171.727      102.464      104.270        0.437        0.019       90.163        8.341        0.009      329.468       -3.777      871.212
01/21/2014  07:12:00      -87.318      -11.785      -12.270       17.444       10.912        7.858      304.300      119.064       61.750        0.420        0.024       88.110        7.578        0.007      329.398       -3.891      871.225
01/21/2014  07:13:00      -83.798      -10.962      -11.654       20.223        9.902       10.021      408.963       98.054      100.422        0.394        0.030       84.512        5.934        0.005      329.461       -3.790      871.233
01/21/2014  07:14:00      -84.407       -5.546       -5.665       18.877       17.081        9.726      356.344      291.762       94.593        0.396        0.037       84.590        8.485        0.010      329.497       -3.731      871.239
01/21/2014  07:15:00      -81.535      -18.593       -2.389       21.186       15.846       12.804      448.849      251.096      163.946        0.393        0.043       83.628       11.722        0.020      329.523       -3.688      871.244
01/21/2014  07:16:00      -73.254       -9.528       -2.405       16.487       14.692       11.853      271.817      215.858      140.483        0.305        0.031       73.871       10.362        0.020      329.464       -3.785      871.243
01/21/2014  07:17:00      -61.902       -7.738       -1.572       20.561       14.643       11.243      422.756      214.428      126.399        0.233        0.038       62.384       11.218        0.032      329.498       -3.729      871.237
01/21/2014  07:18:00      -39.818       -4.900       -4.203       12.063        8.283       10.064      145.517       68.605      101.275        0.097        0.016       40.118        5.557        0.019      329.483       -3.754      871.225
01/21/2014  07:19:00      -36.911        0.184       -9.172        7.838       10.299        7.027       61.432      106.070       49.383        0.083        0.011       36.911        5.170        0.020      329.590       -3.577      871.215
01/21/2014  07:20:00      -43.290      -16.497       -6.934        9.812        9.768        5.633       96.267       95.412       31.729        0.121        0.011       46.327        4.118        0.008      329.710       -3.381      871.211
01/21/2014  07:21:00      -46.747      -31.405       -7.722       14.601        7.622        5.633      213.196       58.097       31.732        0.177        0.015       56.316        3.729        0.004      329.713       -3.376      871.219
01/21/2014  07:22:00      -70.978      -24.013      -11.887       11.814       11.189        7.506      139.579      125.195       56.337        0.304        0.016       74.931        4.602        0.004      329.557       -3.633      871.230
01/21/2014  07:23:00      -78.895      -25.548      -13.906       16.022       15.076        8.801      256.717      227.278       77.466        0.382        0.028       82.929        5.550        0.004      329.508       -3.712      871.225
01/21/2014  07:24:00      -45.628       11.727       -5.755       25.877       14.522       11.477      669.596      210.888      131.726        0.163        0.051       47.111       14.231        0.091      329.458       -3.795      871.212
01/21/2014  07:25:00      -58.912       10.084       -6.964       17.717       15.617       11.923      313.909      243.900      142.161        0.216        0.035       59.769       10.928        0.033      329.512       -3.706      871.203
01/21/2014  07:26:00      -69.680       -2.736      -10.381       15.439       11.374       11.439      238.378      129.372      130.856        0.273        0.025       69.734        8.077        0.013      329.546       -3.651      871.204
01/21/2014  07:27:00      -41.756        1.456       -6.393       12.793        6.421        5.827      163.665       41.227       33.954        0.101        0.012       41.781        5.379        0.017      329.525       -3.685      871.210
01/21/2014  07:28:00      -35.963        2.604       -6.400        5.943        7.641        6.087       35.325       58.390       37.052        0.074        0.007       36.058        4.059        0.013      329.617       -3.536      871.231
01/21/2014  07:29:00      -44.366       -9.470      -11.002       10.149        8.640        6.324      103.007       74.643       39.998        0.120        0.011       45.365        2.939        0.004      329.564       -3.619      871.258
01/21/2014  07:30:00      -28.377      -12.795       -1.796       10.362        8.014        7.491      107.362       64.226       56.112        0.060        0.011       31.128        3.203        0.011      329.559       -3.628      871.284
01/21/2014  07:31:00      -48.106      -12.893       -6.754       11.587       12.905        7.156      134.269      166.527       51.206        0.144        0.018       49.804        4.518        0.008      329.560       -3.630      871.301
01/21/2014  07:32:00      -28.525       -3.741       -5.735       10.552       10.619        9.502      111.349      112.759       90.290        0.059        0.016       28.770        6.965        0.059      329.561       -3.626      871.301
01/21/2014  07:33:00      -16.428       -9.617       -0.172        8.649       10.856        8.060       74.804      117.856       64.958        0.031        0.013       19.035        4.842        0.065      329.574       -3.606      871.291
01/21/2014  07:34:00      -28.845       -5.196       -4.119        8.833        6.878        5.356       78.019       47.309       28.690        0.051        0.008       29.309        5.188        0.031      329.729       -3.351      871.282
01/21/2014  07:35:00      -23.136      -13.177       -5.479        9.140        6.913        4.808       83.545       47.796       23.114        0.045        0.008       26.625        2.746        0.011      329.811       -3.216      871.285
01/21/2014  07:36:00      -32.410      -11.912       -7.499        6.813        5.888        5.511       46.411       34.674       30.367        0.068        0.006       34.530        1.919        0.003      329.732       -3.344      871.279
01/21/2014  07:37:00      -41.930       -3.042       -3.399        5.071        4.782        5.564       25.719       22.868       30.963        0.093        0.004       42.041        3.250        0.006      329.719       -3.366      871.273
01/21/2014  07:38:00      -32.933        0.731       -5.057        6.425        4.040        3.742       41.286       16.318       14.002        0.059        0.004       32.941        1.588        0.002      329.717       -3.370      871.270
01/21/2014  07:39:00      -28.817       -0.968       -2.685        5.022        5.170        7.318       25.219       26.732       53.556        0.047        0.005       28.833        3.671        0.016      329.813       -3.214      871.273
01/21/2014  07:40:00      -39.901        5.403       -3.006       13.858       12.372        7.449      192.058      153.075       55.494        0.102        0.020       40.265        8.347        0.043      329.827       -3.193      871.267
01/21/2014  07:41:00      -56.911       15.121       -4.807       13.856       13.207       15.376      191.994      174.412      236.421        0.205        0.030       58.886       10.972        0.035      329.753       -3.312      871.271
01/21/2014  07:42:00      -45.737       13.411       -0.058       16.590       10.660       10.128      275.220      113.630      102.582        0.138        0.025       47.663        8.042        0.028      329.740       -3.331      871.270
01/21/2014  07:43:00      -33.636        5.640        2.583       15.469       12.142        9.765      239.290      147.427       95.364        0.083        0.024       34.106        6.849        0.040      329.824       -3.195      871.264
01/21/2014  07:44:00      -40.346       -5.332       -4.781       17.295       23.967        7.646      299.112      574.436       58.468        0.131        0.047       40.697        3.973        0.010      329.836       -3.174      871.263
01/21/2014  07:45:00      -58.005      -13.834       -2.716       11.051       15.195        9.288      122.129      230.890       86.259        0.200        0.022       59.632        5.322        0.008      329.692       -3.413      871.259
01/21/2014  07:46:00      -26.440       -1.543        4.387       11.906       14.232        9.293      141.763      202.544       86.355        0.058        0.022       26.485        5.407        0.042      329.791       -3.249      871.262
01/21/2014  07:47:00      -17.675        0.951       -1.716        6.202        7.885        6.743       38.460       62.172       45.471        0.023        0.007       17.701        3.622        0.042      329.892       -3.084      871.247
01/21/2014  07:48:00      -19.683      -11.453       -1.643        5.277        5.964        4.691       27.850       35.573       22.001        0.030        0.004       22.772        3.280        0.021      329.941       -3.004      871.253
01/21/2014  07:49:00      -19.120       -7.897       -8.796        8.539        6.176        6.079       72.909       38.148       36.960        0.033        0.007       20.687        5.850        0.080      330.106       -2.734      871.250
01/21/2014  07:50:00      -18.762       -1.707       -3.484        7.522        3.377        6.236       56.585       11.405       38.894        0.024        0.005       18.839        4.281        0.052      330.085       -2.767      871.260
01/21/2014  07:51:00       -3.321      -10.495        5.406        7.786        7.859        4.634       60.628       61.769       21.473        0.015        0.007       11.008        4.984        0.205      330.262       -2.477      871.265
01/21/2014  07:52:00       12.871       12.798       18.060        8.649       10.034        6.298       74.802      100.683       39.671        0.044        0.011       18.151        5.655        0.097      330.426       -2.209      871.279
01/21/2014  07:53:00        9.551       13.707       22.874        9.754       10.362        4.718       95.145      107.365       22.261        0.051        0.011       16.707        5.510        0.109      330.516       -2.060      871.306
01/21/2014  07:54:00       14.438       13.743       18.637        8.894        9.822        5.352       79.096       96.480       28.647        0.047        0.010       19.933        2.791        0.020      330.430       -2.201      871.324
01/21/2014  07:55:00       34.387       24.669       12.814       14.112        8.161       11.208      199.139       66.608      125.623        0.117        0.020       42.320        5.238        0.015      330.345       -2.341      871.316
01/21/2014  07:56:00       51.251       32.465        5.223       12.794       12.618       13.466      163.683      159.223      181.334        0.211        0.025       60.668        5.009        0.007      330.296       -2.420      871.310
01/21/2014  07:57:00       59.753       32.996       -1.809       11.690        9.102       10.809      136.667       82.837      116.836        0.250        0.017       68.258        5.251        0.006      330.309       -2.400      871.306
01/21/2014  07:58:00       45.835       35.925       -0.550       15.019       12.914       11.655      225.565      166.784      135.833        0.196        0.026       58.236       10.071        0.030      330.360       -2.318      871.307
01/21/2014  07:59:00       31.689       22.006        7.764       18.419       17.000       15.217      339.274      289.007      231.559        0.120        0.043       38.581       10.412        0.073      330.499       -2.088      871.305
01/21/2014  08:00:00       33.097       35.958       -4.230       17.996       15.894       12.956      323.841      252.630      167.853        0.158        0.037       48.871        9.135        0.035      330.426       -2.209      871.298
01/21/2014  08:01:00       25.370       22.787        2.737       23.381       19.897       15.545      546.666      395.887      241.633        0.118        0.059       34.101       11.213        0.108      330.499       -2.088      871.274
01/21/2014  08:02:00       36.540       24.597       -3.276       18.216       20.400       18.591      331.824      416.171      345.617        0.152        0.055       44.047       15.164        0.119      330.489       -2.105      871.269
01/21/2014  08:03:00       61.686       28.640        2.074       24.893       18.001       18.982      619.639      324.030      360.325        0.297        0.065       68.010       12.539        0.034      330.491       -2.101      871.270
01/21/2014  08:04:00       65.298       23.838        3.847       26.007       17.436       17.013      676.371      304.013      289.437        0.306        0.063       69.513        9.571        0.019      330.496       -2.094      871.274
01/21/2014  08:05:00       63.677       41.934        5.408       26.985       19.708       18.728      728.200      388.419      350.719        0.365        0.073       76.244       17.113        0.050      330.468       -2.139      871.280
01/21/2014  08:06:00       61.775       53.265       -3.983       23.245       21.306       16.728      540.318      453.944      279.825        0.397        0.064       81.568       13.239        0.026      330.464       -2.145      871.287
01/21/2014  08:07:00       95.570       47.848        2.850       20.859       22.345       16.148      435.114      499.294      260.764        0.631        0.060      106.878       12.379        0.013      330.426       -2.207      871.297
01/21/2014  08:08:00       91.155       75.885       12.293       25.645       25.342       20.076      657.643      642.213      403.029        0.796        0.085      118.608       14.093        0.014      330.391       -2.265      871.313
01/21/2014  08:09:00       91.705       59.399        5.734       20.001       20.247       23.859      400.027      409.942      569.247        0.667        0.069      109.261       11.209        0.011      330.441       -2.185      871.321
01/21/2014  08:10:00       92.619       46.905       11.086       30.155       22.616       24.739      909.296      511.472      612.039        0.647        0.102      103.819       15.798        0.023      330.479       -2.121      871.328
01/21/2014  08:11:00       79.940       49.278       -1.237       30.515       23.668       16.184      931.140      560.161      261.915        0.529        0.088       93.908        7.932        0.007      330.456       -2.159      871.333
01/21/2014  08:12:00       76.928       63.059        9.973       12.877       17.969       18.202      165.813      322.882      331.312        0.541        0.041       99.470       10.168        0.010      330.484       -2.115      871.335
01/21/2014  08:13:00       55.553       49.093        5.286       27.879       16.744       19.718      777.215      280.350      388.801        0.348        0.072       74.136       15.283        0.042      330.541       -2.019      871.328
01/21/2014  08:14:00       46.424       35.313        2.735       25.091       18.870       17.657      629.552      356.070      311.755        0.235        0.065       58.328       15.741        0.073      330.719       -1.728      871.328
01/21/2014  08:15:00       71.737       41.603       -1.444       18.640       18.798       16.314      347.444      353.370      266.137        0.392        0.048       82.928       10.091        0.015      330.669       -1.810      871.342
01/21/2014  08:16:00       58.660       33.751        7.458       21.806       17.230       20.508      475.522      296.878      420.576        0.291        0.060       67.676       12.419        0.034      330.782       -1.625      871.358
01/21/2014  08:17:00       60.859       39.826       -5.717       15.954       13.781       12.423      254.541      189.915      154.334        0.296        0.030       72.731        7.077        0.009      330.642       -1.855      871.365
01/21/2014  08:18:00       62.327       45.549        7.285       14.341       12.889       14.792      205.658      166.135      218.804        0.330        0.030       77.197        5.489        0.005      330.665       -1.815      871.371
01/21/2014  08:19:00       57.762       39.280        4.556       14.106        8.404        8.526      198.967       70.619       72.693        0.262        0.017       69.853        6.686        0.009      330.568       -1.973      871.358
01/21/2014  08:20:00       63.315       44.231        1.358       11.895       11.583       12.467      141.503      134.158      155.437        0.320        0.022       77.235        4.769        0.004      330.681       -1.792      871.355
01/21/2014  08:21:00       69.106       57.527        3.662       12.300       12.551       15.063      151.282      157.534      226.900        0.432        0.027       89.917        5.612        0.004      330.706       -1.748      871.353
01/21/2014  08:22:00       76.565       58.952        7.799       18.437       17.993       14.894      339.911      323.755      221.839        0.514        0.044       96.631       10.306        0.011      330.858       -1.499      871.354
01/21/2014  08:23:00       62.256       42.796        4.896       25.529       17.256       20.335      651.710      297.757      413.528        0.355        0.068       75.547       13.559        0.032      330.946       -1.355      871.351
01/21/2014  08:24:00       81.564       62.212        7.212       24.477       21.332       19.848      599.128      455.041      393.931        0.601        0.072      102.582       14.113        0.019      330.817       -1.566      871.340
01/21/2014  08:25:00       54.147       49.331        5.963       21.001       16.195       16.855      441.027      262.281      284.090        0.319        0.049       73.249       12.293        0.028      330.868       -1.483      871.344
01/21/2014  08:26:00       58.448       20.733        0.548       23.799       15.836       20.558      566.410      250.791      422.650        0.254        0.062       62.017       15.151        0.060      330.830       -1.547      871.354
01/21/2014  08:27:00       48.756       27.132       -1.684       14.589       14.331       12.885      212.847      205.367      166.012        0.185        0.029       55.797        6.835        0.015      330.861       -1.495      871.367
01/21/2014  08:28:00       50.791       38.112        9.551       28.010       22.894       21.569      784.543      524.140      465.218        0.295        0.089       63.501       20.833        0.108      330.952       -1.346      871.381
01/21/2014  08:29:00       34.980       37.855       10.870       23.923       21.853       21.577      572.290      477.564      465.548        0.214        0.076       51.542       15.821        0.094      331.107       -1.091      871.394
01/21/2014  08:30:00       19.011       58.393       50.252       28.828       18.990       20.976      831.047      360.625      439.986        0.396        0.082       61.410       16.402        0.071      331.187       -0.959      871.390
01/21/2014  08:31:00       54.657       40.614       21.530       20.371       19.746       23.643      414.978      389.895      558.992        0.323        0.068       68.094       15.710        0.053      331.016       -1.241      871.393
01/21/2014  08:32:00       43.718       55.732       32.835       27.154       21.104       19.067      737.337      445.399      363.532        0.382        0.077       70.833       10.046        0.020      331.076       -1.143      871.401
01/21/2014  08:33:00       52.352       26.608       14.522       21.271       15.012       20.978      452.467      225.353      440.090        0.239        0.056       58.725       12.208        0.043      331.198       -0.941      871.410
01/21/2014  08:34:00       39.353       28.347       10.622       28.368       21.249       17.215      804.727      451.536      296.352        0.201        0.078       48.500       13.028        0.072      331.333       -0.718      871.419
01/21/2014  08:35:00       37.810       50.412       -3.187       19.647       25.019       19.397      386.015      625.942      376.243        0.268        0.069       63.016        9.225        0.021      331.356       -0.682      871.424
01/21/2014  08:36:00       55.168       51.115        0.619       22.806       19.160       18.523      520.098      367.111      343.116        0.344        0.062       75.208       12.379        0.027      331.349       -0.694      871.439
01/21/2014  08:37:00       68.078       53.754        4.581       27.096       20.584       19.711      734.168      423.687      388.534        0.455        0.077       86.742       11.001        0.016      331.443       -0.539      871.462
01/21/2014  08:38:00       72.227       50.178        3.650       25.819       19.867       21.469      666.646      394.709      460.921        0.463        0.076       87.946       15.493        0.031      331.401       -0.607      871.480
01/21/2014  08:39:00       10.552       26.746       41.393       26.236       21.910       13.964      688.327      480.065      194.990        0.195        0.068       28.752       13.191        0.210      331.691       -0.130      871.498
01/21/2014  08:40:00        2.369       46.314       55.530       19.072       29.405       13.271      363.739      864.626      176.130        0.332        0.070       46.375       12.291        0.070      331.644       -0.208      871.500
01/21/2014  08:41:00       29.862       33.130       22.795       20.225       18.910       22.612      409.057      357.574      511.309        0.189        0.064       44.602       15.172        0.116      331.528       -0.399      871.510
01/21/2014  08:42:00       35.030       26.825       14.762       18.369       18.645       25.303      337.430      347.637      640.243        0.174        0.066       44.121       18.435        0.175      331.727       -0.071      871.511
01/21/2014  08:43:00       33.847       46.475        1.887       22.933       21.927       21.981      525.926      480.815      483.151        0.240        0.074       57.494       11.273        0.038      331.659       -0.183      871.518
01/21/2014  08:44:00       36.534       60.409        0.724       22.592       30.161       23.629      510.399      909.712      558.319        0.348        0.099       70.598       19.605        0.077      331.722       -0.078      871.529
01/21/2014  08:45:00       63.335       41.026        1.095       31.542       20.951       21.931      994.883      438.962      480.968        0.380        0.096       75.462       13.089        0.030      331.690       -0.132      871.542
01/21/2014  08:46:00       61.987       46.091       13.283       27.918       17.643       20.647      779.431      311.285      426.298        0.383        0.076       77.245       10.160        0.017      331.634       -0.225      871.552
01/21/2014  08:47:00       52.305       64.841        9.129       28.185       30.263       26.703      794.403      915.868      713.052        0.472        0.121       83.308       17.159        0.042      331.668       -0.168      871.557
01/21/2014  08:48:00       97.366       61.770       -4.155       18.955       16.486       19.770      359.298      271.776      390.862        0.717        0.051      115.307        8.616        0.006      331.434       -0.553      871.556
01/21/2014  08:49:00      106.854       54.492       11.474       25.323       26.498       24.444      641.255      702.131      597.522        0.823        0.097      119.946       14.625        0.015      331.432       -0.556      871.555
01/21/2014  08:50:00      105.238       65.517        0.983       25.615       17.294       16.624      656.147      299.094      276.354        0.830        0.062      123.966        9.032        0.005      331.503       -0.439      871.574
01/21/2014  08:51:00       75.563       55.134        1.394       24.637       18.318       19.174      607.002      335.560      367.641        0.503        0.066       93.539        5.039        0.003      331.559       -0.348      871.599
01/21/2014  08:52:00       63.152       53.834       -2.825       16.715       18.382       20.319      279.394      337.887      412.846        0.396        0.052       82.983       11.758        0.020      331.560       -0.346      871.617
01/21/2014  08:53:00       53.939       14.761       11.779       32.202       35.922       20.186     1036.982     1290.369      407.463        0.300        0.137       55.922       12.490        0.050      331.775        0.008      871.634
01/21/2014  08:54:00       21.723        3.580       24.190       25.193       23.388       20.191      634.684      546.977      407.663        0.133        0.079       22.016       11.457        0.271      332.012        0.400      871.655
01/21/2014  08:55:00       21.657       42.546       13.105       26.268       23.301       25.486      690.007      542.924      649.531        0.217        0.094       47.741       17.127        0.129      331.986        0.355      871.674
01/21/2014  08:56:00       15.822       27.624       14.794       26.511       27.136       25.098      702.840      736.388      629.903        0.165        0.103       31.834       19.762        0.385      332.129        0.591      871.684
01/21/2014  08:57:00       77.013       58.079       31.649       42.286       35.426       34.075     1788.138     1254.969     1161.080        0.725        0.210       96.458       17.863        0.034      331.914        0.237      871.695
01/21/2014  08:58:00       83.119       59.356       21.066       29.272       21.578       30.768      856.831      465.590      946.686        0.657        0.113      102.136       22.615        0.049      331.611       -0.264      871.698
01/21/2014  08:59:00       21.671       54.146       39.850       22.683       25.962       27.595      514.541      674.041      761.457        0.347        0.098       58.321       14.135        0.059      331.932        0.266      871.698
01/21/2014  09:00:00       36.447       58.933       43.041       56.450       32.521       49.311     3186.597     1057.591     2431.579        0.666        0.334       69.293       48.309        0.486      331.964        0.319      871.703
01/21/2014  09:01:00       46.599       51.508       -6.161       29.705       24.327       26.039      882.362      591.805      678.011        0.351        0.108       69.459       18.798        0.073      331.774        0.008      871.700
01/21/2014  09:02:00       84.428       65.883        3.704       44.096       28.438       26.868     1944.454      808.692      721.897        0.748        0.174      107.092       19.618        0.034      331.984        0.352      871.707
01/21/2014  09:03:00       99.385       97.275        8.218       45.422       27.191       22.697     2063.178      739.353      515.141        1.136        0.166      139.068       16.078        0.013      331.749       -0.036      871.708
01/21/2014  09:04:00       75.789       56.975        1.214       24.594       20.557       21.277      604.873      422.571      452.693        0.524        0.074       94.817       11.235        0.014      331.733       -0.063      871.716
01/21/2014  09:05:00      100.588       73.508        2.520       22.350       21.896       22.036      499.526      479.455      485.604        0.850        0.073      124.585       12.436        0.010      331.702       -0.113      871.715
01/21/2014  09:06:00       72.631       69.992        6.230       23.211       18.266       24.472      538.768      333.632      598.875        0.584        0.074      100.868       11.760        0.014      331.816        0.074      871.718
01/21/2014  09:07:00       75.635       62.240        9.835       29.262       31.066       34.040      856.247      965.125     1158.704        0.634        0.149       97.952       21.668        0.049      331.989        0.362      871.717
01/21/2014  09:08:00        4.507       49.521       58.222       28.236       35.465       29.673      797.277     1257.771      880.475        0.440        0.147       49.726       23.957        0.232      332.407        1.049      871.720
01/21/2014  09:09:00       27.300       44.849       56.714       50.511       33.946       31.141     2551.347     1152.359      969.778        0.532        0.234       52.504       28.547        0.296      332.278        0.836      871.722
01/21/2014  09:10:00       63.898       49.400        2.032       29.036       30.269       34.283      843.098      916.228     1175.306        0.473        0.147       80.767       18.488        0.052      331.942        0.284      871.736
01/21/2014  09:11:00       27.916       41.402        8.251       25.680       35.033       23.296      659.475     1227.313      542.717        0.250        0.121       49.934       22.025        0.195      332.199        0.707      871.738
01/21/2014  09:12:00       12.727       32.115       -3.358       28.005       31.767       19.223      784.285     1009.129      369.532        0.168        0.108       34.545       18.169        0.277      332.197        0.701      871.741
01/21/2014  09:13:00       17.278       47.704       56.952       25.128       39.486       24.446      631.434     1559.152      597.609        0.430        0.139       50.737       24.654        0.236      332.367        0.983      871.740
01/21/2014  09:14:00       27.498       51.307       49.609       28.413       29.799       28.522      807.284      888.007      813.477        0.418        0.125       58.211       14.855        0.065      332.287        0.851      871.737
01/21/2014  09:15:00       77.641       40.394        7.538       28.991       33.292       26.487      840.478     1108.360      701.548        0.518        0.133       87.520       17.833        0.042      331.938        0.278      871.730
01/21/2014  09:16:00      -20.162      -15.755        0.272       17.540       24.304       15.649      307.647      590.692      244.878        0.090        0.057       25.588       10.788        0.178      332.200        0.709      871.711
01/21/2014  09:17:00      -13.844       68.455       10.536       22.678       36.096       23.496      514.271     1302.888      552.065        0.368        0.118       69.841       19.149        0.075      332.428        1.086      871.703
01/21/2014  09:18:00       13.573       27.567       31.930       21.537       20.949       16.411      463.842      438.860      269.331        0.157        0.059       30.727       10.831        0.124      332.990        2.013      871.707
01/21/2014  09:19:00        5.178       49.242        4.892       22.324       29.023       23.594      498.377      842.356      556.682        0.219        0.095       49.513       13.119        0.070      332.778        1.661      871.702
01/21/2014  09:20:00       49.973       66.536       -3.503       33.407       34.251       32.695     1116.048     1173.149     1068.957        0.515        0.168       83.213       26.766        0.103      332.616        1.394      871.691
01/21/2014  09:21:00       46.787       20.678       21.583       22.792       32.964       31.110      519.470     1086.599      967.818        0.283        0.129       51.152       19.495        0.145      332.576        1.326      871.689
01/21/2014  09:22:00       48.758       51.564       33.612       41.434       24.522       21.538     1716.796      601.334      463.868        0.447        0.139       70.967       14.987        0.045      332.511        1.220      871.692
01/21/2014  09:23:00       70.491       40.468       24.174       38.308       29.401       25.499     1467.515      864.423      650.179        0.509        0.149       81.281       17.953        0.049      332.392        1.024      871.699
01/21/2014  09:24:00       64.947       60.829        0.428       21.433       23.112       29.823      459.377      534.159      889.420        0.490        0.094       88.985       17.816        0.040      332.472        1.157      871.699
01/21/2014  09:25:00       -0.846       42.285        2.632       17.209       21.429       23.197      296.164      459.213      538.082        0.154        0.065       42.294       13.869        0.108      332.568        1.315      871.697
01/21/2014  09:26:00      -11.560       17.544        4.407       21.905       22.033       19.515      479.814      485.475      380.818        0.090        0.067       21.010       16.987        0.654      332.656        1.460      871.702
01/21/2014  09:27:00       21.593       21.557        7.215       21.032       21.811       22.544      442.350      475.722      508.222        0.120        0.071       30.512       15.411        0.255      332.967        1.974      871.693
01/21/2014  09:28:00       -9.303       -3.837       24.033       15.330       20.855       14.616      235.021      434.949      213.630        0.078        0.044       10.063       12.550        1.555      333.449        2.771      871.684
01/21/2014  09:29:00       39.311       36.120       21.835       40.101       35.204       28.078     1608.064     1239.296      788.372        0.348        0.182       53.385       26.032        0.238      333.130        2.244      871.674
01/21/2014  09:30:00       -4.481       43.856       62.859       21.894       29.330       25.897      479.358      860.237      670.680        0.395        0.101       44.084       18.204        0.171      333.271        2.477      871.665
01/21/2014  09:31:00       -2.815       61.128       83.665       20.416       32.103       23.322      416.814     1030.589      543.917        0.637        0.100       61.192       16.626        0.074      333.168        2.307      871.667
01/21/2014  09:32:00       12.088       45.547       34.705       24.863       26.088       25.111      618.154      680.607      630.579        0.268        0.096       47.124       16.033        0.116      333.071        2.148      871.661
01/21/2014  09:33:00       57.777       62.260       22.017       29.897       26.197       25.390      893.841      686.309      644.647        0.496        0.111       84.938       10.748        0.016      332.957        1.958      871.654
01/21/2014  09:34:00       41.453       49.424        4.074       30.512       24.484       22.381      930.991      599.479      500.913        0.310        0.102       64.506       18.607        0.083      332.803        1.703      871.655
01/21/2014  09:35:00       58.396       42.561        5.493       23.778       19.006       17.378      565.394      361.247      301.999        0.324        0.061       72.260        6.612        0.008      332.890        1.848      871.660
01/21/2014  09:36:00      100.321       52.694        7.582       43.803       31.119       30.464     1918.742      968.368      928.064        0.836        0.191      113.318       20.959        0.034      332.980        1.995      871.661
01/21/2014  09:37:00       92.177       77.748       -4.837       30.476       22.152       30.266      928.770      490.712      916.002        0.845        0.117      120.587       15.487        0.016      332.854        1.788      871.664
01/21/2014  09:38:00       97.575       39.282        7.525       27.683       27.367       35.456      766.356      748.959     1257.114        0.695        0.139      105.185       18.620        0.031      332.765        1.641      871.673
01/21/2014  09:39:00       61.162       59.093       20.008       18.526       21.164       26.881      343.224      447.910      722.572        0.457        0.076       85.045        9.448        0.012      332.719        1.565      871.673
01/21/2014  09:40:00       35.840       61.391        2.543       38.996       31.895       33.953     1520.680     1017.262     1152.790        0.437        0.185       71.087       17.813        0.063      333.155        2.285      871.670
01/21/2014  09:41:00       80.495       54.767       22.640       19.022       26.663       30.404      361.825      710.941      924.384        0.599        0.100       97.360       16.799        0.030      332.795        1.690      871.670
01/21/2014  09:42:00       37.505       43.233       12.660       32.730       25.840       37.774     1071.272      667.698     1426.862        0.330        0.158       57.234       30.466        0.283      333.178        2.324      871.670
01/21/2014  09:43:00       42.913       32.622       34.574       40.301       37.965       26.886     1624.198     1441.323      722.864        0.394        0.189       53.905       10.232        0.036      333.273        2.480      871.672
01/21/2014  09:44:00       51.376       63.795        8.215       25.942       20.278       23.082      672.969      411.211      532.767        0.420        0.081       81.910        8.106        0.010      332.988        2.009      871.662
01/21/2014  09:45:00       -0.220       70.040       83.455       18.627       34.641       20.847      346.972     1200.006      434.593        0.693        0.099       70.041       22.263        0.101      333.456        2.783      871.649
01/21/2014  09:46:00        2.496       56.680       74.394       23.856       35.551       24.369      569.130     1263.849      593.828        0.559        0.121       56.735       15.036        0.070      333.486        2.832      871.643
01/21/2014  09:47:00       33.305       52.312       55.294       33.669       30.373       20.046     1133.584      922.510      401.839        0.468        0.123       62.014       12.357        0.040      333.511        2.874      871.660
01/21/2014  09:48:00       45.636       53.848       44.015       30.384       26.235       20.457      923.182      688.268      418.507        0.447        0.101       70.585       10.910        0.024      333.359        2.621      871.672
01/21/2014  09:49:00       44.121       59.629       38.584       41.823       28.552       26.482     1749.188      815.242      701.315        0.513        0.163       74.177       11.820        0.025      333.339        2.590      871.683
01/21/2014  09:50:00       62.338       85.761       36.018       37.886       29.519       38.013     1435.325      871.385     1444.966        0.814        0.188      106.023       31.320        0.087      333.266        2.469      871.681
01/21/2014  09:51:00       65.975       57.707        2.788       29.485       22.671       38.436      869.376      513.973     1477.315        0.528        0.143       87.652       26.603        0.092      333.049        2.109      871.688
01/21/2014  09:52:00      -12.031        3.378       -2.655       17.945       20.344       24.289      322.025      413.880      589.958        0.074        0.066       12.497        7.994        0.409      333.649        3.104      871.703
01/21/2014  09:53:00       -5.927       13.521       40.325       14.153       18.317       14.133      200.321      335.506      199.732        0.129        0.037       14.763        8.499        0.331      334.211        4.035      871.709
01/21/2014  09:54:00       -0.310       13.823       37.579       25.761       24.962       17.459      663.629      623.109      304.824        0.160        0.080       13.827       13.548        0.960      334.284        4.155      871.712
01/21/2014  09:55:00       23.954       64.728       -0.407       36.303       44.329       23.313     1317.912     1965.031      543.490        0.429        0.191       69.018       17.116        0.062      333.548        2.935      871.717
01/21/2014  09:56:00       47.774       42.420       10.609       25.602       33.829       32.522      655.464     1144.397     1057.687        0.353        0.143       63.889       28.915        0.205      333.587        3.001      871.725
01/21/2014  09:57:00       20.629       21.154       35.155       16.783       17.540       14.348      281.657      307.634      205.877        0.145        0.040       29.547        8.313        0.079      334.100        3.850      871.724
01/21/2014  09:58:00       27.654       19.259       15.084       21.003       20.449       21.586      441.106      418.152      465.976        0.134        0.066       33.699       13.350        0.157      333.699        3.184      871.715
01/21/2014  09:59:00       45.431       40.882       11.430       32.456       21.380       17.133     1053.364      457.093      293.533        0.283        0.090       61.117       10.364        0.029      333.541        2.923      871.697
01/21/2014  10:00:00       35.505       55.596       -7.466       38.309       26.799       20.178     1467.614      718.206      407.161        0.350        0.130       65.966       13.800        0.044      333.393        2.677      871.680
01/21/2014  10:01:00       13.598       20.783       16.883       23.404       21.431       21.248      547.764      459.269      451.467        0.118        0.073       24.836       17.499        0.496      334.044        3.757      871.669
01/21/2014  10:02:00        2.060      -13.492        8.856       23.871       18.840       22.758      569.846      354.929      517.944        0.085        0.072       13.649       17.414        1.628      334.175        3.975      871.666
01/21/2014  10:03:00      -18.840       -8.286        7.238       28.571       29.968       34.980      816.280      898.107     1223.590        0.171        0.147       20.582       23.166        1.267      334.188        3.998      871.658
01/21/2014  10:04:00       30.997       57.851       75.757       32.124       40.613       26.430     1031.974     1649.439      698.551        0.671        0.169       65.632       24.589        0.140      333.923        3.557      871.644
01/21/2014  10:05:00       86.879       89.555       77.471       54.514       46.560       34.284     2971.765     2167.876     1175.422        1.394        0.316      124.772       32.380        0.067      333.706        3.197      871.630
01/21/2014  10:06:00      105.380       95.515       61.968       30.354       22.045       28.782      921.375      485.988      828.409        1.315        0.112      142.225       23.507        0.027      333.478        2.819      871.636
01/21/2014  10:07:00       92.844       81.892       46.558       49.604       30.337       43.920     2460.524      920.348     1929.008        1.140        0.265      123.799       33.228        0.072      333.665        3.129      871.642
01/21/2014  10:08:00       86.359       69.336       35.007       27.647       16.924       23.959      764.350      286.431      574.014        0.756        0.081      110.749       15.460        0.019      333.614        3.043      871.645
01/21/2014  10:09:00       55.053       26.327       43.441       59.051       42.996       36.045     3487.057     1848.642     1299.241        0.612        0.332       61.024       28.096        0.212      334.212        4.036      871.640
01/21/2014  10:10:00       42.035       84.348       65.657       68.815       46.764       42.724     4735.553     2186.866     1825.342        1.097        0.437       94.242       40.067        0.181      334.333        4.236      871.622
01/21/2014  10:11:00       35.406       44.092       40.856       58.005       46.523       39.134     3364.537     2164.410     1531.496        0.596        0.353       56.548       26.988        0.228      334.144        3.924      871.617
01/21/2014  10:12:00       81.244       97.165       64.005       46.340       31.042       38.525     2147.436      963.589     1484.142        1.237        0.230      126.655       26.381        0.043      333.911        3.536      871.611
01/21/2014  10:13:00       51.350       88.264       48.062       38.141       30.874       37.726     1454.757      953.179     1423.226        0.828        0.192      102.115       26.762        0.069      333.791        3.339      871.618
01/21/2014  10:14:00       68.902       98.835       81.215       46.888       36.727       28.131     2198.521     1348.899      791.328        1.272        0.217      120.482       17.356        0.021      333.955        3.610      871.612
01/21/2014  10:15:00       75.753       72.982       66.640       39.598       29.666       28.912     1568.023      880.066      835.901        0.939        0.164      105.189       18.129        0.030      333.951        3.602      871.606
01/21/2014  10:16:00       20.741       45.226        4.178       50.459       25.652       33.427     2546.134      658.035     1117.364        0.341        0.216       49.755       25.694        0.267      333.845        3.428      871.611
01/21/2014  10:17:00      -16.858      -25.980        1.581       21.697       34.128       21.388      470.781     1164.699      457.448        0.153        0.105       30.970        7.236        0.055      334.240        4.083      871.611
01/21/2014  10:18:00      -29.622        9.875       13.369       25.434       23.400       17.246      646.901      547.565      297.429        0.132        0.075       31.224        9.228        0.087      334.304        4.190      871.611
01/21/2014  10:19:00       18.118       14.026       39.095       30.322       15.549       18.426      919.449      241.768      339.530        0.178        0.075       22.913       10.724        0.219      334.766        4.955      871.613
01/21/2014  10:20:00       51.621       31.410       17.727       47.680       30.715       25.357     2273.392      943.427      642.962        0.391        0.193       60.426       17.446        0.083      334.429        4.397      871.612
01/21/2014  10:21:00       60.529       91.607       17.050       40.562       37.763       33.161     1645.252     1426.040     1099.662        0.826        0.209      109.798       24.718        0.051      334.275        4.141      871.599
01/21/2014  10:22:00       40.859       60.213        3.091       52.340       24.393       28.251     2739.434      595.035      798.123        0.472        0.207       72.768       27.644        0.144      334.158        3.945      871.586
01/21/2014  10:23:00       -6.764      -25.338       20.767       35.047       53.399       25.440     1228.284     2851.501      647.179        0.292        0.236       26.225       25.487        0.945      334.629        4.729      871.574
01/21/2014  10:24:00       99.105       48.357       71.032       89.484       53.393       31.495     8007.475     2850.785      991.930        1.453        0.593      110.273       33.133        0.090      334.363        4.285      871.558
01/21/2014  10:25:00       91.936       41.094       68.170       64.938       54.167       41.995     4216.974     2934.081     1763.614        1.185        0.446      100.702       37.449        0.138      334.151        3.935      871.541
01/21/2014  10:26:00       40.127       57.991       83.740       73.073       69.403       50.600     5339.624     4816.817     2560.343        1.235        0.636       70.521       52.282        0.550      334.307        4.194      871.522
01/21/2014  10:27:00       67.183       73.736       56.958       39.952       39.303       41.769     1596.183     1544.753     1744.686        0.904        0.244       99.753       33.203        0.111      334.221        4.051      871.506
01/21/2014  10:28:00       84.620       59.682       23.958       55.366       31.027       34.388     3065.380      962.696     1182.509        0.825        0.261      103.550       33.481        0.105      334.318        4.212      871.504
01/21/2014  10:29:00       59.244       60.365       47.514       45.135       41.199       34.494     2037.146     1697.389     1189.838        0.717        0.246       84.580       24.770        0.086      334.745        4.919      871.494
01/21/2014  10:30:00       80.043       75.152       32.708       46.301       39.594       37.244     2143.773     1567.700     1387.136        0.911        0.255      109.794       25.238        0.053      334.614        4.703      871.491
01/21/2014  10:31:00        3.774       45.075       92.064       28.276       54.857       31.667      799.517     3009.321     1002.771        0.767        0.241       45.233       36.460        0.650      334.997        5.339      871.478
01/21/2014  10:32:00       45.977       20.342       53.129       38.493       58.222       32.651     1481.693     3389.852     1066.098        0.564        0.297       50.276       27.461        0.298      334.771        4.964      871.464
01/21/2014  10:33:00      103.740      -91.122        5.250       50.546       96.308       43.405     2554.945     9275.215     1883.975        1.640        0.686      138.077       52.494        0.145      334.399        4.345      871.452
01/21/2014  10:34:00       58.382      -32.520       17.551       27.218       57.019       38.221      740.832     3251.213     1460.864        0.511        0.273       66.828       34.017        0.259      334.226        4.059      871.444
01/21/2014  10:35:00       54.965       22.475       23.440       38.417       38.983       32.375     1475.829     1519.640     1048.124        0.406        0.202       59.383       28.892        0.237      334.557        4.609      871.431
01/21/2014  10:36:00       25.787       28.682       47.697       39.019       34.219       24.579     1522.496     1170.940      604.112        0.353        0.165       38.570       19.616        0.259      334.924        5.218      871.424
01/21/2014  10:37:00        0.399       -6.859       59.423       20.580       51.537       25.682      423.531     2656.088      659.564        0.366        0.187        6.870       26.857       15.282      335.254        5.766      871.416
01/21/2014  10:38:00       15.244      -19.842       44.174       39.195       75.784       40.167     1536.259     5743.171     1613.386        0.573        0.445       25.022       47.733        3.639      334.948        5.259      871.420
01/21/2014  10:39:00        7.593       71.228       94.553       43.115       46.805       32.909     1858.865     2190.667     1082.996        0.960        0.257       71.632       21.245        0.088      335.065        5.452      871.419
01/21/2014  10:40:00       62.849       80.383       84.046       56.240       46.546       34.095     3162.902     2166.505     1162.446        1.198        0.325      102.037       24.730        0.059      334.612        4.699      871.409
01/21/2014  10:41:00       56.518      -30.952       24.227       40.042       54.692       36.351     1603.359     2991.173     1321.370        0.533        0.296       64.439       32.701        0.258      334.519        4.547      871.414
01/21/2014  10:42:00       75.626       57.372       32.006       45.720       40.268       33.681     2090.276     1621.528     1134.417        0.744        0.242       94.925       15.535        0.027      334.711        4.863      871.402
01/21/2014  10:43:00       44.109       61.138       29.394       44.253       46.425       37.138     1958.290     2155.263     1379.210        0.602        0.275       75.389       25.302        0.113      334.913        5.200      871.378
01/21/2014  10:44:00       75.763       97.550       88.613       81.693       43.458       31.673     6673.772     1888.637     1003.178        1.634        0.478      123.515       28.479        0.053      334.635        4.738      871.366
01/21/2014  10:45:00       56.522       82.891       75.173       58.184       37.871       38.011     3385.377     1434.180     1444.861        1.099        0.313      100.328       31.253        0.097      334.651        4.764      871.344
01/21/2014  10:46:00       87.435       94.244       73.198       39.500       41.373       43.853     1560.278     1711.693     1923.082        1.354        0.260      128.557       37.068        0.083      334.537        4.575      871.331
01/21/2014  10:47:00       85.291       64.768       28.954       29.379       25.086       29.824      863.139      629.303      889.456        0.734        0.119      107.096        3.194        0.001      334.328        4.229      871.332
01/21/2014  10:48:00       75.330       67.428       27.908       27.356       18.739       26.579      748.365      351.145      706.464        0.640        0.090      101.100       15.625        0.024      334.409        4.362      871.324
01/21/2014  10:49:00       32.519       38.911       -4.031       23.722       26.473       24.065      562.749      700.846      579.127        0.221        0.092       50.710       21.526        0.180      334.585        4.656      871.320
01/21/2014  10:50:00       17.643       -5.703       55.684       22.829       52.729       18.686      521.151     2780.374      349.150        0.355        0.183       18.542       21.865        1.391      335.131        5.561      871.307
01/21/2014  10:51:00       14.055       62.700       85.222       34.306       51.110       37.405     1176.928     2612.272     1399.132        0.829        0.259       64.256       34.877        0.295      335.113        5.530      871.298
01/21/2014  10:52:00       35.801       -2.543       47.234       50.852       73.590       41.835     2585.906     5415.550     1750.184        0.663        0.488       35.892       41.201        1.318      335.108        5.523      871.286
01/21/2014  10:53:00       71.368       35.244       21.910       40.324       32.630       41.348     1626.004     1064.742     1709.648        0.561        0.220       79.596       17.474        0.048      334.949        5.260      871.287
01/21/2014  10:54:00       37.018       50.750       50.933       46.824       52.890       55.552     2192.514     2797.402     3086.079        0.731        0.404       62.816       40.232        0.410      335.309        5.857      871.265
01/21/2014  10:55:00       78.019       76.800       58.519       58.108       52.246       53.235     3376.549     2729.666     2833.979        1.217        0.447      109.477       38.110        0.121      334.949        5.259      871.258
01/21/2014  10:56:00       86.485      119.036       73.351       53.633       37.697       46.261     2876.463     1421.066     2140.064        1.673        0.322      147.137       37.185        0.064      334.703        4.850      871.253
01/21/2014  10:57:00       93.132       71.601       39.081       27.967       19.651       26.875      782.176      386.169      722.266        0.861        0.095      117.474       16.412        0.020      334.516        4.539      871.251
01/21/2014  10:58:00       84.425       81.431       83.195       59.605       48.910       39.873     3552.765     2392.190     1589.839        1.411        0.377      117.296       26.715        0.052      334.892        5.163      871.207
01/21/2014  10:59:00       54.070       61.333       66.352       63.934       52.045       39.274     4087.569     2708.668     1542.424        0.971        0.417       81.764       27.503        0.113      335.049        5.425      871.190
01/21/2014  11:00:00       85.292       86.928       55.704       64.580       35.675       53.819     4170.632     1272.687     2896.481        1.314        0.417      121.784       43.354        0.127      334.672        4.799      871.173
01/21/2014  11:01:00      115.449       96.019       43.939       37.080       27.794       37.340     1374.946      772.520     1394.305        1.401        0.177      150.160       15.687        0.011      334.632        4.733      871.153
01/21/2014  11:02:00       60.592       41.463       21.525       63.245       51.315       35.243     3999.973     2633.238     1242.082        0.686        0.394       73.420       30.714        0.175      335.145        5.585      871.135
01/21/2014  11:03:00       42.934      -83.195        6.116       61.956       75.699       42.103     3838.587     5730.340     1772.650        1.007        0.567       93.620       44.102        0.222      334.917        5.206      871.120
01/21/2014  11:04:00       38.886       -8.131       19.839       40.565       48.300       51.025     1645.482     2332.861     2603.563        0.428        0.329       39.727       45.289        1.300      335.136        5.570      871.112
01/21/2014  11:05:00       29.142      -40.519      -18.089       32.999       48.336       31.474     1088.942     2336.364      990.612        0.362        0.221       49.910       21.845        0.192      334.905        5.186      871.090
01/21/2014  11:06:00      -34.486        8.812        1.619       28.206       26.654       23.334      795.558      710.453      544.481        0.166        0.103       35.594       14.405        0.164      334.996        5.336      871.073
01/21/2014  11:07:00      -23.576      -13.592        6.572       13.892       23.757       15.716      192.990      564.410      246.996        0.089        0.050       27.214       16.340        0.361      335.088        5.490      871.057
01/21/2014  11:08:00      -16.898        9.647       16.664       16.742       12.622       16.300      280.278      159.326      265.691        0.068        0.035       19.458       11.993        0.380      335.444        6.084      871.028
01/21/2014  11:09:00       17.505       29.006       39.856       33.988       18.753       17.513     1155.193      351.690      306.716        0.227        0.091       33.879        5.281        0.024      335.683        6.481      871.007
01/21/2014  11:10:00       26.466       45.274       36.619       32.205       34.073       42.904     1037.162     1160.981     1840.763        0.406        0.202       52.442       26.461        0.255      335.349        5.926      870.974
01/21/2014  11:11:00       31.280       37.412       63.250       46.288       42.521       39.473     2142.548     1808.063     1558.090        0.594        0.275       48.766       38.574        0.626      335.493        6.164      870.956
01/21/2014  11:12:00       45.515       43.512       11.707       42.816       38.947       38.091     1833.216     1516.857     1450.916        0.445        0.240       62.967       24.773        0.155      335.370        5.960      870.931
01/21/2014  11:13:00       76.796       30.380        9.850       45.735       36.125       40.464     2091.668     1305.041     1637.344        0.597        0.252       82.587       22.224        0.072      335.424        6.048      870.921
01/21/2014  11:14:00       59.366       24.663       12.125       58.345       44.943       35.026     3404.167     2019.838     1226.797        0.546        0.333       64.285       30.805        0.230      335.486        6.154      870.902
01/21/2014  11:15:00       52.633       37.175       43.737       63.646       42.957       26.362     4050.817     1845.326      694.951        0.633        0.330       64.438       14.138        0.048      335.717        6.538      870.884
01/21/2014  11:16:00      114.336       90.412        3.019       61.437       36.311       34.318     3774.462     1318.492     1177.710        1.376        0.314      145.764       24.287        0.028      335.085        5.485      870.868
01/21/2014  11:17:00       97.851       64.888        5.153       50.513       26.274       32.616     2551.544      690.305     1063.776        0.906        0.215      117.411       20.124        0.029      334.908        5.191      870.858
01/21/2014  11:18:00       10.288       47.066       72.413       44.953       36.232       35.149     2020.731     1312.773     1235.467        0.607        0.228       48.178       29.620        0.378      335.663        6.448      870.850
01/21/2014  11:19:00       11.154       72.219      100.655       35.199       46.407       25.557     1238.980     2153.573      653.152        0.976        0.202       73.076       25.012        0.117      335.413        6.031      870.841
01/21/2014  11:20:00       54.161      -52.181       22.239       35.626       51.520       34.096     1269.203     2654.351     1162.560        0.562        0.254       75.208       33.211        0.195      335.293        5.831      870.840
01/21/2014  11:21:00       74.108      -84.093        9.888       44.273       59.791       37.424     1960.126     3574.941     1400.572        0.980        0.347      112.088       43.571        0.151      335.259        5.774      870.815
01/21/2014  11:22:00       69.366       55.505       60.928       52.806       60.823       54.365     2788.463     3699.418     2955.563        1.052        0.472       88.839       48.097        0.293      335.329        5.891      870.801
01/21/2014  11:23:00      106.123       67.522       39.490       45.685       27.706       41.845     2087.098      767.618     1750.997        1.099        0.230      125.782       28.716        0.052      335.134        5.566      870.774
01/21/2014  11:24:00       36.560       13.901       54.260       23.237       21.774       25.559      539.953      474.126      653.238        0.307        0.083       39.114       16.266        0.173      335.457        6.104      870.747
01/21/2014  11:25:00       67.170       54.213       62.771       34.064       26.633       24.658     1160.348      709.339      608.018        0.693        0.124       86.318       12.689        0.022      335.266        5.785      870.721
01/21/2014  11:26:00       15.591       25.047       11.715       27.983       31.966       29.761      783.032     1021.814      885.714        0.185        0.135       29.504       14.668        0.247      335.289        5.823      870.689
01/21/2014  11:27:00       30.855       31.681       30.375       32.254       39.717       34.125     1040.315     1577.428     1164.525        0.333        0.189       44.224       29.277        0.438      335.553        6.263      870.672
01/21/2014  11:28:00       53.230       62.162        2.002       39.476       29.925       30.664     1558.346      895.483      940.272        0.505        0.170       81.838       22.977        0.079      335.405        6.015      870.642
01/21/2014  11:29:00       60.072       67.300       31.645       31.695       22.714       23.715     1004.558      515.925      562.385        0.561        0.104       90.210       16.214        0.032      335.356        5.935      870.616
01/21/2014  11:30:00       50.819       33.210       23.124       23.102       19.193       21.654      533.702      368.379      468.900        0.280        0.069       60.708       14.412        0.056      335.479        6.139      870.600
01/21/2014  11:31:00       10.844       38.724        5.357       25.011       31.348       16.944      625.573      982.709      287.096        0.177        0.095       40.214       16.332        0.165      335.733        6.564      870.561
01/21/2014  11:32:00       30.916       28.239       41.880       32.693       38.727       28.751     1068.803     1499.783      826.643        0.345        0.170       41.871       27.258        0.424      335.877        6.802      870.532
01/21/2014  11:33:00       28.351       81.000       78.532       39.564       48.164       39.700     1565.347     2319.750     1576.099        0.950        0.273       85.818       28.006        0.107      335.583        6.313      870.510
01/21/2014  11:34:00       65.019       59.090       84.302       37.611       46.764       29.789     1414.584     2186.862      887.366        0.966        0.224       87.858       28.725        0.107      335.450        6.092      870.486
01/21/2014  11:35:00       63.943       43.448       43.091       45.781       43.358       33.905     2095.879     1879.894     1149.521        0.648        0.256       77.308       22.509        0.085      335.563        6.279      870.472
01/21/2014  11:36:00      -28.563      -47.408       14.936       27.688       16.759       23.129      766.618      280.874      534.967        0.243        0.079       55.348        8.051        0.021      335.410        6.024      870.459
01/21/2014  11:37:00       16.995       18.562       53.868       40.391       63.107       41.223     1631.468     3982.464     1699.359        0.542        0.366       25.167       43.081        2.930      335.914        6.866      870.427
01/21/2014  11:38:00       92.107       62.118       29.901       38.618       40.453       40.613     1491.369     1636.472     1649.441        0.901        0.239      111.096       24.755        0.050      335.437        6.070      870.420
01/21/2014  11:39:00       34.497       37.836       41.584       33.852       30.446       35.396     1145.989      926.952     1252.855        0.384        0.166       51.202       31.732        0.384      335.775        6.635      870.422
01/21/2014  11:40:00       34.794       69.300       32.535       37.228       25.249       32.335     1385.892      637.526     1045.528        0.507        0.153       77.544       11.358        0.021      335.869        6.791      870.416
01/21/2014  11:41:00       19.289       23.370      -10.009       37.364       43.262       27.343     1396.053     1871.606      747.621        0.252        0.201       30.302       18.445        0.371      335.696        6.502      870.402
01/21/2014  11:42:00      -39.496       37.883       -9.456       22.101       25.745       19.557      488.473      662.815      382.472        0.231        0.077       54.727        8.728        0.025      335.672        6.462      870.399
01/21/2014  11:43:00        4.141       65.116       11.785       29.974       32.664       27.000      898.437     1066.954      729.000        0.354        0.135       65.248       20.079        0.095      335.857        6.768      870.392
01/21/2014  11:44:00       16.247       72.560       -0.596       35.622       27.229       28.404     1268.892      741.442      806.761        0.417        0.141       74.356       23.730        0.102      335.706        6.519      870.375
01/21/2014  11:45:00       52.815       50.060        8.228       26.542       22.383       23.978      704.478      500.999      574.958        0.357        0.089       72.770       15.767        0.047      335.729        6.557      870.368
01/21/2014  11:46:00        8.696       38.495       14.279       20.767       37.533       29.639      431.269     1408.706      878.457        0.224        0.136       39.465       26.158        0.439      336.156        7.269      870.347
01/21/2014  11:47:00       38.700       41.686        7.217       23.873       25.591       20.783      569.914      654.886      431.934        0.247        0.083       56.880       14.036        0.061      335.976        6.968      870.320
01/21/2014  11:48:00       49.500       49.121        0.912       23.172       23.561       31.063      536.923      555.102      964.892        0.346        0.103       69.736       21.430        0.094      335.681        6.476      870.314
01/21/2014  11:49:00       15.489       44.293       13.539       29.341       26.106       22.463      860.902      681.536      504.589        0.222        0.102       46.923       16.045        0.117      336.092        7.162      870.287
01/21/2014  11:50:00        3.763       39.125        0.036       16.747       32.436       16.507      280.475     1052.077      272.469        0.157        0.080       39.306       16.747        0.182      336.270        7.460      870.269
01/21/2014  11:51:00       16.100       10.010       37.552       38.666       35.603       40.199     1495.055     1267.565     1615.954        0.307        0.219       18.959       33.336        3.092      336.596        8.005      870.266
01/21/2014  11:52:00       46.107      -16.436       43.109       46.054       50.946       32.999     2120.979     2595.471     1088.934        0.503        0.290       48.948       35.052        0.513      336.259        7.441      870.247
01/21/2014  11:53:00       57.045       49.134       75.983       43.854       40.271       33.527     1923.175     1621.784     1124.053        0.805        0.233       75.288       33.248        0.195      336.028        7.054      870.239
01/21/2014  11:54:00       57.490       77.458       62.319       55.293       51.198       50.671     3057.364     2621.213     2567.570        1.072        0.412       96.462       38.358        0.158      336.014        7.030      870.223
01/21/2014  11:55:00       67.353       81.108       54.136       42.976       32.176       32.932     1846.902     1035.284     1084.497        0.901        0.198      105.427       30.010        0.081      336.014        7.032      870.215
01/21/2014  11:56:00       78.399       72.018       19.504       26.116       23.552       35.957      682.035      554.679     1292.909        0.712        0.126      106.456       18.595        0.031      335.996        7.003      870.197
01/21/2014  11:57:00       36.962       23.466       23.043       40.861       36.254       30.012     1669.630     1314.327      900.708        0.317        0.194       43.781       25.043        0.327      336.367        7.621      870.177
01/21/2014  11:58:00       21.161       21.114       20.611       29.333       41.055       27.457      860.404     1685.543      753.906        0.231        0.165       29.893       16.956        0.322      336.567        7.955      870.157
01/21/2014  11:59:00      -10.530       -3.933       14.202       23.320       31.328       13.854      543.831      981.475      191.942        0.102        0.086       11.240        8.993        0.640      336.822        8.382      870.131
01/21/2014  12:00:00       13.624        1.442       38.571       30.551       90.008       45.361      933.357     8101.520     2057.582        0.638        0.555       13.700       58.529       18.252      336.644        8.084      870.118
01/21/2014  12:01:00       28.162       63.473       68.175       47.354       44.320       42.137     2242.411     1964.229     1775.519        0.772        0.299       69.440       40.119        0.334      336.437        7.737      870.087
01/21/2014  12:02:00       18.054       41.578       60.986       24.797       44.686       35.499      614.903     1996.866     1260.154        0.482        0.194       45.329       26.832        0.350      336.651        8.096      870.070
01/21/2014  12:03:00        9.799      -39.972       22.207       31.058       47.475       30.263      964.594     2253.842      915.870        0.316        0.207       41.155       27.273        0.439      336.664        8.117      870.054
01/21/2014  12:04:00        2.900       17.803       28.294       27.193       27.906       23.476      739.454      778.720      551.129        0.160        0.103       18.038       12.278        0.463      336.923        8.549      870.036
01/21/2014  12:05:00       43.885       51.715       38.982       50.652       48.747       39.925     2565.629     2376.231     1593.998        0.633        0.327       67.826       31.333        0.213      336.674        8.136      870.025
01/21/2014  12:06:00       83.584       52.236       22.489       51.445       38.363       38.300     2646.550     1471.695     1466.856        0.790        0.279       98.564       26.517        0.072      336.466        7.786      870.011
01/21/2014  12:07:00        9.085       61.568       76.823       29.522       35.070       38.093      871.533     1229.926     1451.109        0.666        0.178       62.235       19.547        0.099      336.609        8.025      870.009
01/21/2014  12:08:00       41.758      106.416      103.324       56.395       51.907       32.244     3180.344     2694.321     1039.662        1.533        0.346      114.316       34.286        0.090      336.426        7.719      869.980
01/21/2014  12:09:00      117.965       96.778       55.902       41.505       36.389       38.903     1722.654     1324.152     1513.434        1.548        0.228      152.583       28.979        0.036      336.169        7.289      869.962
01/21/2014  12:10:00       91.306       91.962       56.780       54.646       51.713       51.643     2986.190     2674.226     2667.020        1.417        0.416      129.591       36.813        0.081      336.406        7.686      869.936
01/21/2014  12:11:00       40.293       62.045       53.459       48.490       44.682       27.480     2351.286     1996.494      755.136        0.672        0.255       73.981       13.474        0.033      336.645        8.087      869.919
01/21/2014  12:12:00        9.773       59.803       90.238       48.743       71.037       33.586     2375.874     5046.297     1128.034        1.018        0.428       60.597       42.273        0.487      336.743        8.249      869.895
01/21/2014  12:13:00       98.386      105.379       87.675       53.500       49.753       44.078     2862.206     2475.321     1942.873        1.787        0.364      144.168       39.093        0.074      336.342        7.578      869.872
01/21/2014  12:14:00       52.158       34.500       40.683       37.331       49.343       49.140     1393.635     2434.702     2414.774        0.590        0.312       62.536       42.308        0.458      336.443        7.748      869.858
01/21/2014  12:15:00       66.729       88.676       54.688       76.155       44.476       60.072     5799.632     1978.126     3608.590        1.334        0.569      110.978       55.954        0.254      336.709        8.193      869.821
01/21/2014  12:16:00       74.775       79.597       68.988       52.767       43.293       40.728     2784.360     1874.244     1658.789        1.150        0.316      109.211       31.086        0.081      336.681        8.147      869.800
01/21/2014  12:17:00      118.813       90.153       55.601       64.787       34.866       45.337     4197.390     1215.611     2055.477        1.640        0.373      149.144       40.024        0.072      336.473        7.799      869.777
01/21/2014  12:18:00       84.685       77.678       32.918       59.897       28.539       41.123     3587.669      814.492     1691.112        1.019        0.305      114.915       29.416        0.066      336.514        7.867      869.748
01/21/2014  12:19:00      111.316       87.944       62.501       50.258       43.400       45.123     2525.828     1883.565     2036.124        1.524        0.322      141.864       28.229        0.040      336.398        7.672      869.730
01/21/2014  12:20:00       58.913       65.135       15.105       25.987       18.268       20.461      675.301      333.706      418.643        0.468        0.071       87.826       15.015        0.029      336.420        7.710      869.712
01/21/2014  12:21:00       -0.665       28.161       54.336       24.513       36.534       31.937      600.885     1334.762     1019.957        0.335        0.148       28.169       17.303        0.377      337.167        8.959      869.674
01/21/2014  12:22:00       21.440       36.066       37.276       42.975       52.524       51.301     1846.816     2758.809     2631.759        0.519        0.362       41.958       31.274        0.556      336.841        8.413      869.644
01/21/2014  12:23:00       75.926       59.926       66.489       61.887       45.317       43.708     3830.037     2053.624     1910.364        1.078        0.390       96.725       35.748        0.137      336.589        7.993      869.611
01/21/2014  12:24:00       72.766       64.767       10.977       40.592       36.914       37.948     1647.674     1362.678     1440.071        0.703        0.223       97.415       22.228        0.052      336.512        7.864      869.587
01/21/2014  12:25:00       92.658       77.131       68.043       66.522       35.551       38.541     4425.143     1263.866     1485.415        1.317        0.359      120.559       42.928        0.127      336.608        8.025      869.563
01/21/2014  12:26:00       51.283       69.010       51.163       52.811       43.172       43.200     2789.042     1863.860     1866.208        0.826        0.326       85.978       33.050        0.148      336.807        8.356      869.538
01/21/2014  12:27:00       59.402      102.523       74.777       46.927       40.263       46.559     2202.160     1621.082     2167.781        1.281        0.300      118.489       27.324        0.053      336.704        8.185      869.522
01/21/2014  12:28:00       77.789       37.137       31.945       44.369       54.382       35.386     1968.652     2957.430     1252.135        0.731        0.309       86.199       36.520        0.179      336.529        7.893      869.521
01/21/2014  12:29:00       10.789      -33.548       23.459       29.587       72.366       19.314      875.397     5236.891      373.012        0.414        0.324       35.241       20.918        0.352      336.917        8.540      869.505
01/21/2014  12:30:00       28.853      -48.122        8.783       26.332       47.118       22.821      693.362     2220.107      520.786        0.333        0.172       56.108       23.860        0.181      336.858        8.443      869.493
01/21/2014  12:31:00      -12.136      -14.129       48.294       38.151       42.893       28.443     1455.531     1839.785      808.997        0.339        0.205       18.625       28.009        2.261      337.117        8.875      869.499
01/21/2014  12:32:00       27.360        5.883       33.810       35.962       22.254       26.400     1293.273      495.245      696.944        0.221        0.124       27.985       18.383        0.431      336.981        8.648      869.506
01/21/2014  12:33:00       63.142       79.000       75.600       54.051       45.830       37.109     2921.522     2100.407     1377.103        1.117        0.320      101.133       31.410        0.096      336.703        8.182      869.485
01/21/2014  12:34:00       60.259      108.208       95.111       43.428       42.851       40.562     1885.970     1836.196     1645.291        1.488        0.268      123.855       27.661        0.050      336.695        8.171      869.465
01/21/2014  12:35:00       87.061      120.199       96.100       53.825       42.154       36.450     2897.133     1776.927     1328.579        1.863        0.300      148.416       29.209        0.039      336.699        8.175      869.439
01/21/2014  12:36:00      116.314      104.133       31.160       33.848       30.399       38.067     1145.674      924.087     1449.079        1.443        0.176      156.118       16.279        0.011      336.616        8.037      869.425
01/21/2014  12:37:00       54.109       55.438       14.336       32.597       25.761       34.872     1062.563      663.630     1216.039        0.457        0.147       77.467       12.915        0.028      336.658        8.110      869.399
01/21/2014  12:38:00       54.849       44.558       -3.024       31.453       20.080       19.476      989.293      403.198      379.312        0.339        0.089       70.667       11.428        0.026      336.668        8.124      869.386
01/21/2014  12:39:00       29.174       44.429       27.689       41.472       28.233       43.770     1719.943      797.118     1915.799        0.401        0.222       53.151       15.743        0.088      337.016        8.705      869.372
01/21/2014  12:40:00       63.725       57.121       27.288       38.310       43.414       40.754     1467.690     1884.752     1660.895        0.654        0.251       85.579       25.868        0.091      336.794        8.335      869.348
01/21/2014  12:41:00       63.584       55.732        8.458       61.828       47.008       36.621     3822.718     2209.732     1341.121        0.730        0.369       84.552       31.413        0.138      336.896        8.504      869.313
01/21/2014  12:42:00       79.882       73.740       13.934       55.600       39.967       28.101     3091.320     1597.369      789.662        0.874        0.274      108.714       15.141        0.019      336.721        8.213      869.297
01/21/2014  12:43:00       44.641       50.937       77.611       65.101       63.149       49.143     4238.106     3987.784     2414.998        1.062        0.532       67.731       45.880        0.459      336.947        8.590      869.276
01/21/2014  12:44:00       57.218       87.504      100.459       60.456       48.434       42.108     3654.981     2345.835     1773.051        1.440        0.389      104.551       37.563        0.129      336.991        8.662      869.264
01/21/2014  12:45:00       83.840       98.501       81.943       62.295       47.632       48.550     3880.728     2268.830     2357.101        1.597        0.425      129.351       40.532        0.098      337.105        8.854      869.250
01/21/2014  12:46:00       50.345       45.960       18.331       33.871       49.247       46.876     1147.244     2425.255     2197.389        0.538        0.288       68.168       39.945        0.343      337.094        8.836      869.238
01/21/2014  12:47:00       23.612       54.111       67.330       39.655       43.662       38.643     1572.483     1906.392     1493.313        0.649        0.249       59.039       33.379        0.320      337.310        9.197      869.223
01/21/2014  12:48:00      -14.790       52.912       76.754       27.276       43.912       33.233      743.973     1928.239     1104.439        0.634        0.189       54.940       29.618        0.291      337.256        9.107      869.217
01/21/2014  12:49:00       41.584       40.567       79.418       53.824       82.405       50.123     2897.015     6790.520     2512.356        1.094        0.610       58.094       50.459        0.754      337.105        8.856      869.203
01/21/2014  12:50:00       18.517       92.190      103.865       43.001       49.679       34.763     1849.079     2468.039     1208.450        1.258        0.276       94.031       27.376        0.085      336.934        8.569      869.187
01/21/2014  12:51:00       46.678       71.671       74.413       33.212       36.316       26.308     1103.007     1318.870      692.107        0.798        0.156       85.532       24.364        0.081      336.955        8.604      869.169
01/21/2014  12:52:00       32.262       79.972       73.593       42.219       42.967       36.829     1782.453     1846.161     1356.340        0.892        0.249       86.234       34.321        0.158      337.051        8.764      869.156
01/21/2014  12:53:00       47.546       59.291       72.249       36.216       36.414       26.216     1311.608     1325.947      687.304        0.716        0.166       76.000       28.133        0.137      336.924        8.551      869.136
01/21/2014  12:54:00       52.770       43.281       65.247       37.210       53.772       32.696     1384.581     2891.466     1069.036        0.713        0.267       68.249       37.813        0.307      336.924        8.552      869.108
01/21/2014  12:55:00       59.893       40.050       45.683       29.411       33.523       21.439      865.007     1123.768      459.651        0.486        0.122       72.050       14.721        0.042      337.061        8.780      869.074
01/21/2014  12:56:00       14.528      -19.668      -12.878       35.346       20.917       19.558     1249.334      437.523      382.505        0.142        0.103       24.451       16.583        0.460      336.904        8.519      869.026
01/21/2014  12:57:00      -10.758       -7.777        9.951       23.831       12.163       17.163      567.909      147.927      294.560        0.064        0.051       13.275       15.567        1.375      337.292        9.167      868.981
01/21/2014  12:58:00       66.396       43.685       25.445       48.875       61.069       43.349     2388.787     3729.393     1879.148        0.748        0.400       79.478       30.738        0.150      336.909        8.527      868.952
01/21/2014  12:59:00       -0.734       33.277       52.970       22.795       28.368       24.104      519.629      804.770      580.998        0.291        0.095       33.286       17.840        0.287      337.545        9.592      868.928
01/21/2014  13:00:00       -5.194       36.983       64.160       30.243       34.003       23.577      914.650     1156.189      555.897        0.407        0.131       37.346       17.737        0.226      337.756        9.945      868.908
01/21/2014  13:01:00       19.264       10.602       50.516       50.756       55.655       33.217     2576.178     3097.527     1103.362        0.490        0.339       21.989       30.526        1.927      337.848       10.101      868.879
01/21/2014  13:02:00        7.323       17.897       38.447       31.842       59.968       42.907     1013.917     3596.110     1841.027        0.415        0.323       19.337       37.759        3.813      337.628        9.730      868.870
01/21/2014  13:03:00       10.847       64.183       79.454       36.125       36.788       28.127     1305.049     1353.374      791.141        0.700        0.172       65.093       22.640        0.121      337.409        9.364      868.870
01/21/2014  13:04:00      -13.911       -7.031       28.681       23.230       30.112       28.621      539.645      906.719      819.183        0.167        0.113       15.587       20.255        1.689      337.757        9.947      868.862
01/21/2014  13:05:00       55.704      -31.914       27.145       45.814       41.905       35.743     2098.929     1755.996     1277.543        0.499        0.257       64.198       30.579        0.227      337.342        9.252      868.856
01/21/2014  13:06:00       29.197      -15.307       37.330       36.218       61.275       32.706     1311.744     3754.684     1069.687        0.431        0.307       32.966       36.211        1.207      337.449        9.431      868.843
01/21/2014  13:07:00       14.165       72.414       94.064       37.690       46.058       35.668     1420.536     2121.302     1272.185        0.955        0.241       73.786       33.673        0.208      337.544        9.590      868.821
01/21/2014  13:08:00       54.268       75.701       70.382       60.629       60.787       54.070     3675.835     3695.029     2923.597        1.196        0.515       93.143       46.698        0.251      337.245        9.088      868.799
01/21/2014  13:09:00       89.753       65.884       15.647       57.508       29.287       37.857     3307.183      857.713     1433.145        0.912        0.280      111.339       29.859        0.072      337.211        9.031      868.780
01/21/2014  13:10:00       94.070       64.857        4.306       37.017       32.131       28.609     1370.276     1032.430      818.447        0.815        0.161      114.261       11.983        0.011      337.083        8.818      868.768
01/21/2014  13:11:00       15.367       23.954        2.825       27.848       42.355       31.993      775.512     1793.963     1023.576        0.220        0.180       28.459       10.195        0.128      337.395        9.341      868.740
01/21/2014  13:12:00       67.906      -81.883        7.342       51.978       38.187       35.414     2701.710     1458.248     1254.132        0.839        0.271      106.377       30.802        0.084      337.379        9.312      868.709
01/21/2014  13:13:00       49.417      -28.636       12.963       50.755       66.991       38.065     2576.051     4487.811     1448.953        0.597        0.426       57.114       42.340        0.550      337.365        9.290      868.685
01/21/2014  13:14:00       38.778      -48.048       16.400       43.547       47.735       34.507     1896.306     2278.585     1190.734        0.472        0.268       61.744       41.631        0.455      337.404        9.355      868.659
01/21/2014  13:15:00        5.985       23.906       52.617       24.699       29.733       18.868      610.050      884.061      356.012        0.261        0.093       24.644       19.590        0.632      337.791       10.003      868.650
01/21/2014  13:16:00        6.126      -48.590        0.986       20.197       40.315       19.558      407.932     1625.267      382.496        0.241        0.121       48.975       21.023        0.184      337.804       10.024      868.640
01/21/2014  13:17:00       -5.641      -57.276        6.453       61.468       31.881       22.370     3778.309     1016.418      500.398        0.432        0.265       57.553       12.539        0.047      337.567        9.628      868.630
01/21/2014  13:18:00       23.759      -77.346       -7.426       36.880       49.567       27.637     1360.157     2456.850      763.786        0.559        0.229       80.913       27.587        0.116      337.605        9.691      868.609
01/21/2014  13:19:00        6.804       -2.683       18.245       20.383       21.483       17.286      415.457      461.503      298.796        0.078        0.059        7.314       13.915        3.619      338.166       10.632      868.599
01/21/2014  13:20:00       32.978       33.667       44.115       49.837       39.111       37.822     2483.688     1529.638     1430.539        0.480        0.272       47.128       25.758        0.299      337.813       10.041      868.588
01/21/2014  13:21:00       46.496       73.566       77.986       71.309       36.439       51.613     5084.970     1327.832     2663.931        1.136        0.454       87.028       46.092        0.281      337.499        9.515      868.558
01/21/2014  13:22:00       35.832       46.639       35.258       49.973       54.660       46.752     2497.312     2987.730     2185.717        0.618        0.384       58.814       33.209        0.319      337.613        9.704      868.526
01/21/2014  13:23:00      162.241       97.115        4.611       52.492       40.812       37.349     2755.408     1665.626     1394.921        2.079        0.291      189.086       19.519        0.011      337.364        9.286      868.500
01/21/2014  13:24:00      130.804       76.649       33.149       47.263       32.229       41.556     2233.772     1038.738     1726.901        1.454        0.250      151.607       20.232        0.018      337.320        9.215      868.481
01/21/2014  13:25:00       38.492       55.207       62.251       54.543       45.268       41.655     2974.962     2049.196     1735.170        0.758        0.338       67.301       32.367        0.231      337.629        9.732      868.445
01/21/2014  13:26:00       25.855       85.314       -6.563       28.752       54.581       33.540      826.690     2979.057     1124.903        0.646        0.247       89.146       34.659        0.151      337.451        9.433      868.428
01/21/2014  13:27:00       63.073       34.222       25.379       44.166       23.081       28.361     1950.658      532.739      804.321        0.454        0.164       71.759       24.190        0.114      337.443        9.421      868.408
01/21/2014  13:28:00       26.132       55.285       -7.361       42.467       52.713       24.781     1803.406     2778.648      614.093        0.449        0.260       61.150       29.584        0.234      337.578        9.646      868.382
01/21/2014  13:29:00       35.560       36.504       11.874       37.953       30.769       24.873     1440.452      946.752      618.661        0.287        0.150       50.962       22.975        0.203      337.571        9.634      868.379
01/21/2014  13:30:00       47.416       50.710       12.242       47.383       30.889       33.679     2245.132      954.132     1134.249        0.465        0.217       69.425       23.843        0.118      337.606        9.695      868.369
01/21/2014  13:31:00       -9.817       38.525       10.423       15.886       37.432       22.684      252.371     1401.148      514.574        0.193        0.108       39.756       12.393        0.097      337.847       10.098      868.357
01/21/2014  13:32:00       39.993       28.513        5.706       23.712       22.271       19.231      562.282      496.007      369.834        0.194        0.071       49.117       14.930        0.092      337.624        9.724      868.340
01/21/2014  13:33:00       36.375       42.469       50.728       43.464       53.848       33.901     1889.101     2899.584     1149.297        0.582        0.297       55.917       34.367        0.378      337.699        9.850      868.315
01/21/2014  13:34:00       71.851       64.650       63.446       36.332       36.263       39.068     1320.002     1315.023     1526.335        0.876        0.208       96.655       19.249        0.040      337.598        9.680      868.277
01/21/2014  13:35:00       34.843       10.251        7.882       27.489       43.977       27.235      755.642     1933.982      741.735        0.241        0.172       36.320       11.110        0.094      337.719        9.883      868.254
01/21/2014  13:36:00       24.252       44.747        5.651       28.059       43.576       25.607      787.281     1898.893      655.716        0.298        0.167       50.897       27.513        0.292      337.804       10.025      868.240
01/21/2014  13:37:00       25.380       51.994       -9.478       30.649       50.586       22.701      939.361     2558.946      515.355        0.372        0.201       57.858        6.689        0.013      337.737        9.914      868.216
01/21/2014  13:38:00       80.094       72.523       57.358       47.646       45.383       41.665     2270.153     2059.628     1735.985        1.051        0.303      108.049       37.446        0.120      337.697        9.847      868.206
01/21/2014  13:39:00       72.144       23.076       33.854       55.570       47.070       44.935     3088.072     2215.595     2019.145        0.710        0.366       75.745       40.804        0.290      337.751        9.937      868.201
01/21/2014  13:40:00       52.087       82.607       91.479       46.409       48.339       29.494     2153.789     2336.626      869.924        1.163        0.268       97.657       28.049        0.082      337.680        9.817      868.188
01/21/2014  13:41:00      102.652       70.709       64.384       65.179       47.888       35.719     4248.355     2293.238     1275.839        1.375        0.391      124.648       29.041        0.054      337.651        9.768      868.172
01/21/2014  13:42:00       16.268       22.665       50.354       39.724       61.474       36.861     1577.960     3779.007     1358.738        0.501        0.336       27.899       35.595        1.628      338.056       10.448      868.174
01/21/2014  13:43:00       38.384       13.830       43.518       54.091       56.958       36.734     2925.880     3244.157     1349.376        0.554        0.376       40.799       38.391        0.885      337.936       10.246      868.167
01/21/2014  13:44:00       26.227       46.584       50.647       39.676       50.693       44.514     1574.147     2569.759     1981.532        0.577        0.306       53.459       41.616        0.606      337.997       10.349      868.159
01/21/2014  13:45:00       47.374       33.701       40.068       57.765       48.516       39.989     3336.850     2353.833     1599.108        0.614        0.364       58.138       30.866        0.282      337.863       10.125      868.161
01/21/2014  13:46:00       63.471       47.537       20.922       46.998       44.831       38.925     2208.775     2009.849     1515.160        0.623        0.287       79.300       31.147        0.154      337.818       10.049      868.161
01/21/2014  13:47:00       11.353       17.131        8.130       16.154       14.567       13.572      260.957      212.184      184.188        0.057        0.033       20.551        9.914        0.233      337.828       10.066      868.151
01/21/2014  13:48:00       29.859       56.005       50.980       37.638       42.577       35.673     1416.591     1812.793     1272.542        0.556        0.225       63.468       30.847        0.236      338.080       10.489      868.141
01/21/2014  13:49:00       52.190       67.643       34.686       40.458       30.989       31.448     1636.873      960.313      989.002        0.604        0.179       85.436       14.389        0.028      337.689        9.834      868.134
01/21/2014  13:50:00       16.144       23.694        9.601       21.395       13.059       13.335      457.741      170.530      177.813        0.086        0.040       28.671        8.787        0.094      337.807       10.031      868.113
01/21/2014  13:51:00      -16.788       19.110      -10.821       11.851       14.673       17.954      140.452      215.296      322.343        0.072        0.034       25.437        7.400        0.085      337.875       10.145      868.098
01/21/2014  13:52:00        0.960        7.837       -5.679       27.093       12.907       20.491      734.024      166.600      419.872        0.071        0.066        7.896       11.891        2.268      338.023       10.394      868.078
01/21/2014  13:53:00       28.149       -6.383       21.876       36.102       47.700       23.625     1303.349     2275.337      558.149        0.272        0.207       28.863       21.808        0.571      338.095       10.515      868.063
01/21/2014  13:54:00       45.096       57.485       56.880       49.053       46.442       34.271     2406.163     2156.877     1174.525        0.715        0.287       73.063       28.587        0.153      338.217       10.718      868.050
01/21/2014  13:55:00       25.800       24.285       45.238       36.492       35.333       32.277     1331.649     1248.454     1041.781        0.346        0.181       35.431       25.099        0.502      338.249       10.772      868.048
01/21/2014  13:56:00       69.266       27.213       27.881       40.217       41.521       36.703     1617.369     1724.008     1347.117        0.550        0.234       74.420       28.369        0.145      338.064       10.462      868.050
01/21/2014  13:57:00       52.756       15.836        9.524       15.374       28.507       20.620      236.372      812.640      425.203        0.230        0.074       55.082       11.833        0.046      337.907       10.198      868.042
01/21/2014  13:58:00        2.174      -21.640       -6.871       23.227       13.087       15.058      539.477      171.262      226.741        0.073        0.047       21.748       12.316        0.321      337.866       10.130      868.044
01/21/2014  13:59:00      -20.108       10.101        3.759       16.531       13.266       12.822      273.270      175.977      164.391        0.057        0.031       22.502        9.431        0.176      338.098       10.518      868.049
01/21/2014  14:00:00       -5.075       10.060       25.215       12.859       27.171       18.040      165.349      738.237      325.443        0.100        0.061       11.267       19.007        2.846      338.589       11.343      868.047
01/21/2014  14:01:00       -7.482       33.712       52.163       11.118       23.675       16.587      123.615      560.512      275.121        0.244        0.048       34.532       12.252        0.126      338.695       11.521      868.040
01/21/2014  14:02:00       35.022       49.765       45.843       39.217       36.313       34.407     1537.996     1318.620     1183.813        0.492        0.202       60.853       23.260        0.146      338.163       10.629      868.047
01/21/2014  14:03:00       63.481       60.054        4.425       39.847       26.981       27.883     1587.752      727.987      777.478        0.537        0.155       87.386       11.122        0.016      338.075       10.480      868.040
01/21/2014  14:04:00       55.958       63.801        9.792       41.556       36.335       29.671     1726.940     1320.260      880.373        0.561        0.196       84.863       22.128        0.068      338.123       10.560      868.033
01/21/2014  14:05:00       35.551       53.128       48.963       45.552       39.954       45.133     2074.966     1596.353     2036.967        0.609        0.285       63.925       37.019        0.335      338.195       10.682      868.043
01/21/2014  14:06:00       84.621       66.760       37.336       37.483       26.513       27.995     1405.002      702.938      783.695        0.795        0.145      107.785       21.375        0.039      338.001       10.358      868.042
01/21/2014  14:07:00       31.853       80.823       97.146       55.665       52.977       42.432     3098.560     2806.585     1800.499        1.234        0.385       86.874       43.284        0.248      338.129       10.571      868.027
01/21/2014  14:08:00       26.771      113.213      105.530       49.093       37.410       34.433     2410.171     1399.519     1185.644        1.483        0.250      116.335       28.491        0.060      337.994       10.343      868.028
01/21/2014  14:09:00      -15.151       80.498      103.990       19.319       42.454       22.992      373.231     1802.367      528.626        1.011        0.135       81.911       22.858        0.078      338.097       10.517      868.015
01/21/2014  14:10:00       30.128       36.074       47.513       53.948       54.527       41.534     2910.417     2973.181     1725.037        0.604        0.380       47.001       24.849        0.280      338.217       10.718      867.993
01/21/2014  14:11:00       59.744       82.764      -11.104       30.620       31.630       23.645      937.556     1000.439      559.088        0.652        0.125      102.074       13.544        0.018      337.998       10.352      867.981
01/21/2014  14:12:00       39.330       36.250        6.486       15.951       18.107       16.796      254.433      327.858      282.103        0.188        0.043       53.487        7.912        0.022      337.971       10.308      867.962
01/21/2014  14:13:00       10.977       27.050       23.770       19.834       20.674       26.020      393.373      427.410      677.025        0.146        0.075       29.192       19.831        0.462      338.175       10.648      867.945
01/21/2014  14:14:00       -0.347       18.180       50.781       25.549       46.963       24.873      652.775     2205.481      618.686        0.319        0.174       18.184       18.585        1.045      338.474       11.150      867.937
01/21/2014  14:15:00       24.417       26.718       44.556       22.778       38.804       21.740      518.822     1505.784      472.613        0.290        0.125       36.194       22.145        0.374      338.177       10.652      867.927
01/21/2014  14:16:00        5.642       10.720       11.718       13.415       14.941       16.608      179.966      223.229      275.818        0.048        0.034       12.114        5.904        0.238      338.190       10.673      867.913
01/21/2014  14:17:00       -4.852       18.521       -8.356        9.608       16.310        9.390       92.319      266.004       88.179        0.044        0.022       19.146        9.101        0.226      338.192       10.677      867.907
01/21/2014  14:18:00       11.677       -2.152       12.356       18.580       25.973       17.640      345.200      674.576      311.155        0.081        0.067       11.873       14.482        1.488      338.438       11.090      867.903
01/21/2014  14:19:00       41.212      -65.227       -3.756       38.945       45.889       19.432     1516.724     2105.794      377.597        0.498        0.200       77.156       23.211        0.090      338.344       10.932      867.889
01/21/2014  14:20:00       54.926      -84.348       -2.019       34.716       58.317       27.098     1205.169     3400.900      734.325        0.774        0.267      100.655       25.199        0.063      338.248       10.771      867.868
01/21/2014  14:21:00       83.053      -60.655       -3.157       45.043       47.591       25.073     2028.910     2264.923      628.662        0.775        0.246      102.844       18.093        0.031      338.097       10.517      867.868
01/21/2014  14:22:00       94.646     -106.712      -24.862       22.072       34.170       19.865      487.192     1167.577      394.635        1.151        0.102      142.637       11.663        0.007      338.089       10.502      867.866
01/21/2014  14:23:00       26.769      -80.386      -10.948       33.720       29.907       19.417     1137.018      894.441      377.024        0.485        0.120       84.726        8.696        0.011      338.133       10.577      867.876
01/21/2014  14:24:00      -14.532      -39.896        4.041       29.200       24.527       19.228      852.643      601.554      369.716        0.182        0.091       42.460       10.327        0.059      338.312       10.878      867.877
01/21/2014  14:25:00       24.686      -69.177       -4.671       43.115       57.278       34.517     1858.876     3280.757     1191.399        0.587        0.317       73.450       39.614        0.291      338.483       11.166      867.877
01/21/2014  14:26:00       -7.625       -4.402       -0.725       27.374       33.614       22.167      749.334     1129.901      491.357        0.122        0.119        8.805       12.652        2.065      338.452       11.112      867.874
01/21/2014  14:27:00        2.132        9.006        5.389       16.834       14.760       10.320      283.382      217.871      106.506        0.036        0.030        9.254        1.709        0.034      338.742       11.599      867.868
01/21/2014  14:28:00        3.244       42.281       -8.827       17.944       18.616       17.704      321.999      346.571      313.426        0.143        0.049       42.406        8.755        0.043      338.377       10.988      867.872
01/21/2014  14:29:00       10.088       -1.697       25.254       14.145       24.318       22.256      200.071      591.360      495.348        0.101        0.064       10.230       13.236        1.674      338.578       11.327      867.873
01/21/2014  14:30:00       21.861       54.241       50.228       34.676       40.043       35.606     1202.419     1603.477     1267.756        0.501        0.204       58.481       33.203        0.322      338.364       10.966      867.872
01/21/2014  14:31:00       14.756       39.554       40.613       18.825       14.376       17.862      354.389      206.672      319.045        0.216        0.044       42.217       11.855        0.079      338.349       10.940      867.874
01/21/2014  14:32:00       19.917      -13.816        1.509       13.890       31.077       26.731      192.927      965.795      714.543        0.123        0.094       24.239       21.866        0.814      338.358       10.956      867.870
01/21/2014  14:33:00       38.645      -25.032       20.161       20.879       19.474       16.418      435.933      379.228      269.553        0.181        0.054       46.043       13.460        0.085      338.398       11.023      867.861
01/21/2014  14:34:00       37.969       36.934       50.448       26.923       30.841       23.095      724.826      951.193      533.397        0.378        0.110       52.970       22.838        0.186      338.463       11.131      867.848
01/21/2014  14:35:00       71.586       76.359       73.256       32.969       32.839       28.326     1086.975     1078.393      802.380        0.964        0.148      104.668       17.557        0.028      338.343       10.930      867.838
01/21/2014  14:36:00       44.750       60.861       48.516       41.027       38.301       33.548     1683.182     1466.966     1125.462        0.617        0.214       75.543       18.517        0.060      338.421       11.061      867.834
01/21/2014  14:37:00       29.307       39.237       44.699       31.779       43.431       29.039     1009.894     1886.277      843.270        0.407        0.187       48.973       27.415        0.313      338.547       11.272      867.836
01/21/2014  14:38:00      107.972       99.159       13.104       48.249       40.141       36.381     2327.957     1611.286     1323.551        1.346        0.263      146.596       23.597        0.026      338.295       10.848      867.842
01/21/2014  14:39:00       56.931       42.855       32.834       50.032       38.256       30.082     2503.162     1463.549      904.930        0.551        0.244       71.258       21.649        0.092      338.424       11.067      867.847
01/21/2014  14:40:00       17.019       39.888       62.499       42.042       43.041       31.951     1767.500     1852.554     1020.840        0.521        0.232       43.367       33.372        0.592      338.685       11.504      867.853
01/21/2014  14:41:00       22.126       -6.328       26.402       22.304       34.319       28.328      497.480     1177.824      802.466        0.185        0.124       23.013       26.306        1.307      338.583       11.333      867.861
01/21/2014  14:42:00       14.190       14.630        1.442       12.879       33.467       12.891      165.874     1120.065      166.172        0.093        0.073       20.381       13.594        0.445      338.580       11.330      867.855
01/21/2014  14:43:00        0.769       32.958       11.191       19.235       22.532       18.426      369.969      507.691      339.524        0.121        0.061       32.967       15.205        0.213      338.641       11.431      867.854
01/21/2014  14:44:00       43.014       -2.600       -3.773       30.400       24.024       21.321      924.135      577.162      454.588        0.191        0.098       43.093       15.959        0.137      338.567       11.307      867.857
01/21/2014  14:45:00       -3.037       19.703       42.185       18.278       34.035       17.019      334.100     1158.399      289.636        0.198        0.089       19.936       16.836        0.713      338.876       11.826      867.862
01/21/2014  14:46:00       15.225      -14.367       37.375       25.371       48.779       33.287      643.706     2379.405     1108.007        0.298        0.207       20.934       37.707        3.245      338.808       11.712      867.866
01/21/2014  14:47:00       22.679      -14.137       14.923       28.029       30.001       21.802      785.611      900.047      475.326        0.155        0.108       26.725       16.616        0.387      338.705       11.538      867.862
01/21/2014  14:48:00       50.377       34.309       19.853       40.732       31.063       25.541     1659.123      964.916      652.325        0.369        0.164       60.951       17.675        0.084      338.669       11.478      867.852
01/21/2014  14:49:00       37.480       90.252        5.366       51.060       49.134       26.722     2607.152     2414.129      714.069        0.766        0.287       97.725       29.835        0.093      338.504       11.200      867.844
01/21/2014  14:50:00       62.807       50.669       25.811       40.593       24.382       26.241     1647.775      594.501      688.595        0.505        0.147       80.697       15.423        0.037      338.463       11.131      867.836
01/21/2014  14:51:00        2.173       43.166       72.992       28.447       36.492       23.861      809.222     1331.641      569.342        0.495        0.136       43.221       23.715        0.301      338.809       11.712      867.831
01/21/2014  14:52:00       37.285       38.838       27.500       25.664       27.134       33.133      658.658      736.278     1097.801        0.307        0.125       53.838       17.450        0.105      338.511       11.212      867.818
01/21/2014  14:53:00       90.546       65.894       31.262       35.442       26.919       30.424     1256.153      724.608      925.620        0.821        0.145      111.985       21.716        0.038      338.428       11.073      867.795
01/21/2014  14:54:00       57.996       33.944       26.838       43.286       34.557       30.920     1873.660     1194.167      956.069        0.463        0.201       67.200       22.386        0.111      338.480       11.160      867.784
01/21/2014  14:55:00       44.118      -22.001        6.653       39.096       31.866       15.946     1528.492     1015.413      254.262        0.264        0.140       49.300       16.759        0.116      338.731       11.582      867.767
01/21/2014  14:56:00       98.353       49.404        3.019       43.252       41.599       34.950     1870.745     1730.441     1221.522        0.847        0.241      110.064       19.847        0.033      338.575       11.318      867.759
01/21/2014  14:57:00       37.257       19.144       10.756       31.447       21.917       17.196      988.884      480.358      295.719        0.182        0.088       41.887       17.699        0.179      338.694       11.521      867.744
01/21/2014  14:58:00       15.958       68.644       77.720       33.274       43.112       28.358     1107.175     1858.675      804.160        0.739        0.189       70.475       30.115        0.183      338.806       11.708      867.729
01/21/2014  14:59:00       81.639       85.614       67.174       58.968       28.304       38.728     3477.188      801.132     1499.837        1.214        0.289      118.299       39.219        0.110      338.692       11.518      867.720
01/21/2014  15:00:00       69.344       25.662       25.034       50.841       72.319       36.841     2584.857     5230.087     1357.237        0.763        0.459       73.940       34.311        0.215      338.633       11.418      867.718
01/21/2014  15:01:00       76.735      -99.518       -7.233       40.149       35.226       21.083     1611.904     1240.865      444.509        0.957        0.165      125.667       17.295        0.019      338.535       11.252      867.715
01/21/2014  15:02:00       31.088       -0.713       30.465       36.630       17.449       22.357     1341.790      304.468      499.854        0.202        0.107       31.096       13.390        0.185      338.897       11.862      867.715
01/21/2014  15:03:00       26.980      -42.422        4.106       26.546       31.719       20.518      704.704     1006.076      421.005        0.234        0.107       50.275       12.007        0.057      338.916       11.894      867.716
01/21/2014  15:04:00       17.896        4.856       27.557       26.852       61.112       28.890      721.004     3734.632      834.607        0.320        0.265       18.543       25.747        1.928      338.830       11.748      867.731
01/21/2014  15:05:00       44.993       19.619       16.062       21.242       28.469       23.884      451.222      810.490      570.456        0.225        0.092       49.084       22.632        0.213      338.617       11.390      867.746
01/21/2014  15:06:00       15.791       41.391       -4.690       27.119       17.137       15.208      735.460      293.681      231.292        0.162        0.063       44.301       12.338        0.078      338.623       11.400      867.740
01/21/2014  15:07:00       19.773       35.945       -2.322       16.771       28.011       15.130      281.267      784.603      228.930        0.149        0.065       41.024       15.956        0.151      338.730       11.581      867.731
01/21/2014  15:08:00       42.241       18.761       11.143       21.982       16.726       23.217      483.197      279.747      539.035        0.178        0.065       46.219        8.588        0.035      338.751       11.615      867.735
01/21/2014  15:09:00       16.175       -0.655       28.152       32.498       33.551       22.607     1056.152     1125.645      511.086        0.187        0.135       16.188       18.791        1.347      339.029       12.083      867.735
01/21/2014  15:10:00       15.013       48.203       62.593       36.323       59.168       50.628     1319.339     3500.796     2563.213        0.692        0.369       50.487       47.754        0.895      338.946       11.943      867.741
01/21/2014  15:11:00       96.062       68.463       53.408       49.701       49.673       42.398     2470.172     2467.431     1797.569        1.175        0.337      117.962       31.272        0.070      338.621       11.396      867.745
01/21/2014  15:12:00       41.990       50.105       61.007       32.809       37.964       28.476     1076.402     1441.228      810.909        0.566        0.166       65.374       24.398        0.139      338.687       11.508      867.758
01/21/2014  15:13:00       51.047       60.141       52.570       36.247       32.536       25.387     1313.850     1058.573      644.479        0.600        0.151       78.884       16.912        0.046      338.658       11.458      867.778
01/21/2014  15:14:00       39.423       42.411       43.981       20.978       16.171       20.447      440.067      261.489      418.085        0.320        0.056       57.904        7.818        0.018      338.801       11.698      867.784
01/21/2014  15:15:00       30.012       30.246       38.898       39.128       51.695       31.833     1530.979     2672.416     1013.317        0.427        0.261       42.609       32.273        0.574      338.856       11.792      867.789
01/21/2014  15:16:00       16.845        4.160       58.538       32.628       87.674       40.336     1064.612     7686.812     1626.954        0.705        0.519       17.351       51.110        8.677      338.888       11.844      867.787
01/21/2014  15:17:00       45.193       36.438       37.663       42.173       35.792       30.259     1778.553     1281.070      915.579        0.438        0.199       58.052       24.240        0.174      338.883       11.839      867.799
01/21/2014  15:18:00       41.349       31.150       29.680       28.059       20.776       23.085      787.305      431.649      532.906        0.266        0.088       51.769       17.687        0.117      338.817       11.727      867.802
01/21/2014  15:19:00       32.664       61.990       55.156       24.360       24.607       17.332      593.423      605.518      300.390        0.473        0.075       70.069       15.137        0.047      338.924       11.907      867.794
01/21/2014  15:20:00        4.957       22.394       26.598       14.182       17.100        8.266      201.130      292.420       68.323        0.090        0.028       22.937        5.671        0.061      339.045       12.110      867.784
01/21/2014  15:21:00       12.549       39.505       29.261       29.683       20.641       19.210      881.072      426.067      369.038        0.212        0.084       41.450       17.512        0.178      338.966       11.976      867.767
01/21/2014  15:22:00        1.491       36.139       65.785       22.827       28.279       19.196      521.063      799.727      368.471        0.366        0.084       36.169       14.104        0.152      339.027       12.078      867.756
01/21/2014  15:23:00       14.597       69.123       85.379       27.063       34.822       20.695      732.388     1212.580      428.297        0.733        0.119       70.647       21.930        0.096      338.890       11.850      867.760
01/21/2014  15:24:00       33.520       62.998       55.388       26.715       34.248       24.798      713.709     1172.926      614.938        0.533        0.125       71.360       21.680        0.092      338.801       11.699      867.773
01/21/2014  15:25:00       46.439       77.824       63.643       41.485       32.031       27.172     1720.969     1025.999      738.330        0.787        0.174       90.626       15.329        0.029      338.803       11.702      867.785
01/21/2014  15:26:00       12.731       46.295       60.285       24.226       35.366       21.047      586.896     1250.743      442.973        0.411        0.114       48.014       23.270        0.235      338.906       11.876      867.800
01/21/2014  15:27:00       24.270      -15.707       16.177       26.207       39.820       23.995      686.813     1585.620      575.775        0.197        0.142       28.910       22.327        0.596      338.909       11.881      867.806
01/21/2014  15:28:00       25.575       15.202       26.540       22.584       22.369       24.941      510.048      500.366      622.057        0.161        0.082       29.752       21.480        0.521      338.889       11.847      867.804
01/21/2014  15:29:00       29.648       25.276       17.282       15.791       22.504       21.709      249.341      506.433      471.278        0.152        0.061       38.960       11.433        0.086      338.796       11.692      867.794
01/21/2014  15:30:00       33.356       17.303       28.424       26.451       35.558       15.953      699.651     1264.336      254.500        0.222        0.111       37.577       16.310        0.188      339.087       12.180      867.786
01/21/2014  15:31:00        9.372        1.195       -6.171       22.059       25.429       12.516      486.607      646.642      156.657        0.071        0.064        9.447       11.667        1.525      339.139       12.267      867.792
01/21/2014  15:32:00       37.010      -55.979       -2.750       23.160       38.429       27.047      536.381     1476.786      731.548        0.363        0.137       67.108       20.457        0.093      339.046       12.112      867.796
01/21/2014  15:33:00       24.311      -29.279        3.013       15.634       29.450       22.319      244.427      867.328      498.139        0.153        0.080       38.056       18.064        0.225      339.059       12.133      867.795
01/21/2014  15:34:00       21.382      -19.428        7.827       19.921       23.085       20.324      396.865      532.914      413.062        0.112        0.067       28.890       14.734        0.260      339.234       12.427      867.789
01/21/2014  15:35:00       31.854      -40.922       10.261       43.730       35.068       28.330     1912.342     1229.748      802.583        0.337        0.197       51.858       18.811        0.132      339.043       12.105      867.777
01/21/2014  15:36:00       24.494       -0.051        8.639       29.229       22.811       17.793      854.360      520.360      316.604        0.118        0.085       24.494       17.567        0.514      339.010       12.050      867.767
01/21/2014  15:37:00       -1.458      -27.387        0.964       11.702       37.367       15.495      136.930     1396.307      240.096        0.126        0.089       27.426       12.283        0.201      339.309       12.553      867.755
01/21/2014  15:38:00       12.404      -15.880       10.397       18.499       35.398       21.799      342.205     1253.030      475.215        0.129        0.104       20.151        8.674        0.185      339.048       12.115      867.752
01/21/2014  15:39:00        0.990       32.518       32.341       16.504       18.063       19.415      272.393      326.275      376.937        0.154        0.049       32.533        9.333        0.082      339.060       12.134      867.760
01/21/2014  15:40:00        2.883       21.441       24.515       15.173       14.180       15.126      230.205      201.059      228.789        0.086        0.033       21.634       10.936        0.256      339.120       12.235      867.768
01/21/2014  15:41:00       26.815       29.005        1.909       24.583       15.808       16.431      604.310      249.907      269.987        0.134        0.056       39.502       11.174        0.080      338.914       11.890      867.772
01/21/2014  15:42:00       21.018       24.360       21.454       25.179       16.952       23.195      634.000      287.384      538.021        0.148        0.073       32.174       13.603        0.179      338.927       11.910      867.772
01/21/2014  15:43:00       49.930       78.958       75.162       31.105       20.806       11.723      967.515      432.887      137.440        0.796        0.077       93.420        5.451        0.003      338.986       12.011      867.768
01/21/2014  15:44:00       38.871       63.794       51.230       27.788       23.453       28.086      772.157      550.055      788.796        0.516        0.106       74.703       17.997        0.058      339.042       12.104      867.762
01/21/2014  15:45:00       50.735       48.710       20.240       19.495       13.485       20.842      380.057      181.840      434.380        0.318        0.050       70.333        5.164        0.005      338.943       11.937      867.763
01/21/2014  15:46:00       23.452       23.276       -2.044       22.703       11.903        9.809      515.418      141.670       96.218        0.092        0.038       33.042       11.325        0.117      338.918       11.895      867.759
01/21/2014  15:47:00       27.171       24.116       31.565       30.780       26.080       30.387      947.419      680.151      923.360        0.243        0.128       36.330       27.651        0.579      339.001       12.037      867.755
01/21/2014  15:48:00       43.305       33.359       37.184       36.710       40.893       26.903     1347.643     1672.263      723.778        0.406        0.187       54.664       27.993        0.262      338.951       11.953      867.751
01/21/2014  15:49:00       59.860       73.793       70.765       49.280       34.094       29.895     2428.503     1162.431      893.698        0.926        0.224       95.019       20.550        0.047      339.031       12.086      867.744
01/21/2014  15:50:00       33.933       51.584       69.527       51.809       46.811       38.729     2684.208     2191.232     1499.962        0.751        0.319       61.744       41.660        0.455      339.013       12.056      867.754
01/21/2014  15:51:00       65.784       16.630       30.666       43.548       31.585       30.584     1896.387      997.618      935.402        0.469        0.191       67.854       21.466        0.100      338.963       11.972      867.761
01/21/2014  15:52:00       56.551       55.636       77.836       52.378       44.844       34.912     2743.502     2010.997     1218.848        0.916        0.299       79.330       30.378        0.147      338.838       11.760      867.771
01/21/2014  15:53:00       54.994       67.290       53.490       44.835       28.623       33.505     2010.141      819.303     1122.602        0.718        0.198       86.904       31.226        0.129      338.863       11.803      867.774
01/21/2014  15:54:00       45.650       78.131       61.988       36.091       32.204       26.076     1302.524     1037.127      679.977        0.752        0.151       90.490       16.177        0.032      338.935       11.924      867.778
01/21/2014  15:55:00       50.833       55.553       44.459       27.607       31.445       23.581      762.138      988.770      556.057        0.498        0.115       75.300       15.367        0.042      338.897       11.860      867.775
01/21/2014  15:56:00       61.410       62.327       48.331       38.561       32.051       39.550     1486.924     1027.237     1564.230        0.703        0.204       87.497       37.965        0.188      338.882       11.835      867.778
01/21/2014  15:57:00       77.866       48.343       12.545       24.257       29.284       21.682      588.423      857.557      470.103        0.524        0.096       91.652       14.821        0.026      338.863       11.803      867.769
01/21/2014  15:58:00       17.621       20.530       22.400       25.228       26.845       16.699      636.457      720.670      278.853        0.143        0.082       27.055        9.983        0.136      339.040       12.102      867.765
01/21/2014  15:59:00       31.089       18.082       35.857       37.779       28.009       23.459     1427.241      784.532      550.343        0.267        0.138       35.965       24.529        0.465      338.935       11.925      867.771
01/21/2014  16:00:00       99.591      -22.932       23.582       38.813       33.741       29.595     1506.442     1138.483      875.853        0.726        0.176      102.197       28.491        0.078      338.871       11.817      867.787
01/21/2014  16:01:00       46.712       34.110       46.539       36.664       54.114       37.373     1344.242     2928.376     1396.763        0.559        0.283       57.840       40.543        0.491      338.892       11.852      867.797
01/21/2014  16:02:00       15.293       52.399       74.853       34.259       36.464       24.011     1173.693     1329.593      576.536        0.583        0.154       54.585       20.789        0.145      338.929       11.914      867.820
01/21/2014  16:03:00       34.178      -28.416       19.090       25.910       35.056       24.662      671.313     1228.949      608.237        0.242        0.125       44.448       18.351        0.170      338.987       12.012      867.840
01/21/2014  16:04:00       28.591       -8.335       -5.920       16.579       20.250        8.702      274.868      410.045       75.732        0.084        0.038       29.781        3.365        0.013      338.937       11.926      867.857
01/21/2014  16:05:00       25.540       12.972        8.706       17.618       17.590       11.751      310.411      309.420      138.077        0.083        0.038       28.645        6.879        0.058      338.933       11.921      867.864
01/21/2014  16:06:00       30.890       22.898        0.809       20.959       16.971       13.112      439.280      287.999      171.934        0.119        0.045       38.451        9.647        0.063      338.899       11.864      867.866
01/21/2014  16:07:00       13.451       16.970       33.949       21.659       28.110       26.571      469.106      790.183      705.993        0.179        0.098       21.655       20.792        0.922      338.974       11.989      867.864
01/21/2014  16:08:00       23.008      -27.113       26.955       27.657       50.794       28.662      764.903     2579.994      821.512        0.308        0.208       35.560       28.942        0.662      339.082       12.172      867.876
01/21/2014  16:09:00       53.448      -77.023      -13.852       27.677       44.359       28.144      766.036     1967.716      792.061        0.625        0.176       93.751       22.570        0.058      338.962       11.968      867.885
01/21/2014  16:10:00        4.275       15.931       36.693       17.887       18.412       15.407      319.958      339.011      237.375        0.126        0.045       16.495        8.159        0.245      338.925       11.908      867.894
01/21/2014  16:11:00       24.762      -31.449        1.160       29.115       37.173       20.782      847.658     1381.866      431.911        0.213        0.133       40.027       25.995        0.422      339.036       12.095      867.904
01/21/2014  16:12:00        7.302       -6.679       10.861       18.528       33.700       25.852      343.273     1135.683      668.339        0.118        0.107        9.896       27.287        7.604      339.183       12.342      867.913
01/21/2014  16:13:00        7.700       37.577        8.385       14.984       19.071       24.432      224.512      363.719      596.912        0.136        0.059       38.357       15.482        0.163      338.961       11.968      867.923
01/21/2014  16:14:00      -15.502       50.515       -7.893       13.725       12.214       11.843      188.365      149.189      140.261        0.167        0.024       52.840        7.644        0.021      338.996       12.027      867.918
01/21/2014  16:15:00        0.016       11.253       11.737       13.355       32.492       13.236      178.359     1055.699      175.185        0.084        0.070       11.253       15.442        1.883      339.089       12.183      867.906
01/21/2014  16:16:00       -2.336       -5.751        3.388       23.286       12.940        9.304      542.251      167.443       86.570        0.042        0.040        6.208        7.093        1.306      339.110       12.219      867.898
01/21/2014  16:17:00       16.592        0.831        1.455       12.424       12.590       15.558      154.347      158.512      242.061        0.042        0.028       16.613       10.070        0.367      339.045       12.108      867.888
01/21/2014  16:18:00       29.222       -5.499       -2.488       21.966       25.634       12.179      482.514      657.104      148.325        0.109        0.064       29.735       14.432        0.236      339.024       12.075      867.872
01/21/2014  16:19:00       -3.837        9.191       23.814       13.159       19.183       11.822      173.169      368.000      139.758        0.067        0.034        9.960       12.812        1.655      339.102       12.206      867.863
01/21/2014  16:20:00       65.420      -26.917        7.258       37.013       28.095       24.665     1369.942      789.333      608.366        0.391        0.138       70.741       23.600        0.111      338.930       11.916      867.853
01/21/2014  16:21:00       32.961      -20.836       21.790       26.197       37.663       24.469      686.262     1418.474      598.743        0.235        0.135       38.994       25.535        0.429      338.943       11.937      867.852
01/21/2014  16:22:00       42.926      -45.804        7.252       28.768       30.506       22.392      827.598      930.627      501.401        0.313        0.113       62.775       20.764        0.109      338.991       12.018      867.837
01/21/2014  16:23:00       34.908      -57.222       -7.851       24.072       24.412       19.542      579.485      595.924      381.908        0.306        0.078       67.029       12.254        0.033      338.973       11.988      867.831
01/21/2014  16:24:00        5.702      -27.591        6.760       24.828       23.278       19.489      616.431      541.869      379.828        0.119        0.077       28.174       15.305        0.295      339.026       12.078      867.824
01/21/2014  16:25:00        9.631       -9.204       11.385       14.872       15.181       12.514      221.176      230.477      156.598        0.046        0.030       13.322        8.917        0.448      339.068       12.149      867.832
01/21/2014  16:26:00       37.409        1.005       -5.266       16.973       14.247        7.091      288.093      202.966       50.280        0.098        0.027       37.423        7.283        0.038      338.960       11.969      867.842
01/21/2014  16:27:00       12.136       -6.030        7.044       15.914       23.060       14.184      253.259      531.750      201.182        0.061        0.049       13.551       11.457        0.715      338.960       11.965      867.852
01/21/2014  16:28:00        7.805       10.823        8.744       11.230       11.008        7.427      126.116      121.168       55.155        0.028        0.015       13.344        6.836        0.262      339.040       12.100      867.859
01/21/2014  16:29:00       20.871        2.508        6.518       21.382       10.288       10.101      457.198      105.840      102.024        0.057        0.033       21.021       10.050        0.229      338.987       12.012      867.855
01/21/2014  16:30:00       33.614      -37.935       10.369       28.553       52.269       23.686      815.293     2732.049      561.035        0.339        0.205       50.685       30.332        0.358      338.968       11.979      867.852
01/21/2014  16:31:00       -0.420        2.414       37.041       17.252       30.660       15.941      297.642      940.017      254.125        0.143        0.075        2.450       11.144       20.692      338.960       11.967      867.848
01/21/2014  16:32:00        9.895        5.260       31.793       22.277       17.999       14.715      496.258      323.960      216.528        0.109        0.052       11.206        8.470        0.571      338.934       11.923      867.845
01/21/2014  16:33:00       21.033      -31.890       11.247       24.029       29.843       15.424      577.385      890.602      237.897        0.165        0.085       38.201       12.303        0.104      338.903       11.870      867.840
01/21/2014  16:34:00       -5.369        6.008       20.430       16.694       15.043       10.173      278.696      226.287      103.484        0.055        0.030        8.057       10.326        1.643      338.781       11.664      867.834
01/21/2014  16:35:00       11.825      -21.367        7.161       21.797       21.401       15.616      475.111      457.993      243.870        0.091        0.059       24.421       13.776        0.318      338.926       11.909      867.833
01/21/2014  16:36:00       -2.409       25.557       17.965       12.774        9.655       12.732      163.180       93.227      162.104        0.070        0.021       25.670        5.243        0.042      338.701       11.532      867.829
01/21/2014  16:37:00      -20.768      -29.507       11.468       20.009       22.356       23.031      400.373      499.786      530.437        0.143        0.072       36.082        7.114        0.039      338.908       11.878      867.815
01/21/2014  16:38:00       -4.313      -12.267        4.217       14.345       19.136       13.981      205.790      366.189      195.467        0.048        0.038       13.003       13.757        1.119      338.792       11.686      867.807
01/21/2014  16:39:00       -9.230      -20.360      -11.956       13.513       29.493       15.031      182.601      869.857      225.935        0.096        0.064       22.355       17.744        0.630      338.863       11.803      867.813
01/21/2014  16:40:00       -0.804       12.655        8.105       11.629        9.002        5.113      135.229       81.036       26.139        0.023        0.012       12.680        3.608        0.081      338.815       11.723      867.806
01/21/2014  16:41:00        1.784        7.078      -11.289       14.470       13.091       12.749      209.385      171.364      162.531        0.036        0.027        7.300        8.211        1.265      338.791       11.683      867.801
01/21/2014  16:42:00       -6.304       20.243        9.666       10.833       14.615        9.580      117.356      213.611       91.776        0.048        0.021       21.202        7.923        0.140      338.662       11.465      867.790
01/21/2014  16:43:00        0.323        5.062        5.719       13.623       12.152       11.968      185.598      147.683      143.227        0.027        0.024        5.072       10.876        4.597      338.591       11.346      867.788
01/21/2014  16:44:00       -2.279       -7.845        8.220       12.361       21.705       12.799      152.798      471.091      163.823        0.046        0.039        8.169       11.722        2.059      338.625       11.404      867.782
01/21/2014  16:45:00       14.979       -1.866        1.907       17.111        9.632        8.907      292.798       92.784       79.329        0.035        0.023       15.095        7.159        0.225      338.613       11.382      867.764
01/21/2014  16:46:00       13.095        5.875        4.386       17.008       10.368        9.103      289.265      107.487       82.861        0.035        0.024       14.352        8.200        0.326      338.547       11.272      867.747
01/21/2014  16:47:00       -2.304        4.008        5.107       12.032       11.693       10.840      144.759      136.724      117.513        0.022        0.020        4.623        4.713        1.039      338.517       11.223      867.734
01/21/2014  16:48:00        0.459       13.345       21.360       13.373       18.699       18.978      178.838      349.634      360.154        0.076        0.044       13.352       16.248        1.481      338.451       11.110      867.720
01/21/2014  16:49:00       26.290        9.494        6.425       30.537       17.745       11.131      932.507      314.900      123.889        0.110        0.069       27.952       12.339        0.195      338.501       11.194      867.706
01/21/2014  16:50:00       61.236        1.529       12.863       18.988       15.359       15.317      360.539      235.889      234.617        0.237        0.042       61.255       10.241        0.028      338.584       11.335      867.705
01/21/2014  16:51:00       28.255       19.181       28.936       24.820       22.659       19.160      616.056      513.434      367.109        0.175        0.075       34.150       20.380        0.356      338.611       11.380      867.688
01/21/2014  16:52:00       30.475       35.759       37.159       25.139       19.261       18.294      631.956      370.971      334.664        0.246        0.067       46.984       14.596        0.097      338.572       11.314      867.685
01/21/2014  16:53:00        6.851       34.871       48.863       23.087       23.925       13.130      533.002      572.429      172.385        0.246        0.064       35.538       14.156        0.159      338.570       11.311      867.687
01/21/2014  16:54:00        5.142       26.421       27.545       20.396       17.719       19.109      415.982      313.970      365.156        0.129        0.055       26.917        9.473        0.124      338.559       11.292      867.697
01/21/2014  16:55:00       10.901       18.192       14.942       16.311       11.906       11.573      266.047      141.759      133.935        0.061        0.027       21.208       10.791        0.259      338.427       11.069      867.718
01/21/2014  16:56:00       13.995        5.418        6.707       16.241       13.529       10.536      263.765      183.022      111.002        0.041        0.028       15.007        9.199        0.376      338.400       11.024      867.733
01/21/2014  16:57:00       24.693       -6.523        1.830       11.975       12.845        9.003      143.393      164.983       81.045        0.052        0.019       25.540        6.007        0.055      338.541       11.263      867.739
01/21/2014  16:58:00      -22.443      -13.902        0.982       17.039       10.734        9.473      290.312      115.217       89.732        0.060        0.025       26.400       10.119        0.147      338.151       10.607      867.743
01/21/2014  16:59:00      -50.754       -2.945       -7.523       10.517        6.523        6.648      110.600       42.553       44.199        0.142        0.010       50.839        4.180        0.007      338.078       10.485      867.754
01/21/2014  17:00:00      -58.157       -7.696      -10.157       15.351       15.985        9.676      235.650      255.513       93.626        0.206        0.029       58.664        3.130        0.003      338.029       10.403      867.757
01/21/2014  17:01:00      -68.348        5.443      -11.691       14.377       10.577        8.187      206.696      111.875       67.024        0.261        0.019       68.564        4.264        0.004      338.094       10.512      867.770
01/21/2014  17:02:00      -74.365        9.726      -11.381       14.309       11.807        7.372      204.735      139.402       54.345        0.308        0.020       74.998        2.087        0.001      338.138       10.586      867.784
01/21/2014  17:03:00      -52.811       -9.869       -7.033        9.525       16.091        8.661       90.729      258.935       75.005        0.168        0.021       53.725        5.026        0.009      337.996       10.347      867.782
01/21/2014  17:04:00      -56.985      -20.397       -7.028       10.443       12.323        7.966      109.049      151.856       63.457        0.202        0.016       60.525        5.481        0.008      337.897       10.182      867.780
01/21/2014  17:05:00      -53.958      -17.759      -14.816       14.763       14.889       12.233      217.945      221.681      149.646        0.202        0.029       56.805        8.833        0.024      337.780        9.986      867.773
01/21/2014  17:06:00      -30.015      -11.375      -12.556       17.912       23.900       10.745      320.856      571.217      115.455        0.110        0.050       32.098        9.500        0.088      337.781        9.986      867.764
01/21/2014  17:07:00      -47.849        0.827      -10.970       20.020       18.024       14.617      400.807      324.876      213.644        0.167        0.047       47.856       13.808        0.083      337.546        9.591      867.753
01/21/2014  17:08:00      -31.283      -14.378       -1.179       21.319       15.946       10.623      454.520      254.275      112.838        0.100        0.041       34.429        8.715        0.064      337.468        9.463      867.757
01/21/2014  17:09:00      -26.939      -34.430       -7.724       22.506       18.240       17.609      506.502      332.700      310.071        0.156        0.057       43.716        9.774        0.050      337.366        9.291      867.763
01/21/2014  17:10:00      -40.575      -34.677      -15.746       18.535       34.059       24.727      343.546     1160.041      611.431        0.261        0.106       53.374       18.918        0.126      337.330        9.230      867.781
01/21/2014  17:11:00      -64.570      -23.422       -7.084       32.467       19.184       21.036     1054.138      368.012      442.503        0.332        0.093       68.687       14.008        0.042      337.236        9.073      867.805
01/21/2014  17:12:00      -99.240       -2.888      -11.369       43.921       40.277       25.820     1929.077     1622.268      666.667        0.710        0.211       99.282       23.135        0.054      337.172        8.968      867.832
01/21/2014  17:13:00      -83.726        7.216      -18.143       57.805       44.581       25.772     3341.434     1987.444      664.205        0.669        0.300       84.036       30.618        0.133      337.282        9.153      867.848
01/21/2014  17:14:00     -111.232        9.809      -10.361       60.160       42.250       25.896     3619.212     1785.098      670.586        0.932        0.304      111.664       23.029        0.043      337.289        9.162      867.871
01/21/2014  17:15:00      -79.690      -18.016       -4.410       45.515       52.789       27.856     2071.572     2786.631      775.959        0.616        0.282       81.702       26.866        0.108      337.151        8.931      867.893
01/21/2014  17:16:00      -87.731      -23.296       -0.341       47.347       48.779       33.165     2241.701     2379.406     1099.915        0.698        0.286       90.771       21.922        0.058      337.022        8.713      867.914
01/21/2014  17:17:00      -61.919       -3.249       -9.255       58.171       47.455       30.106     3383.825     2251.988      906.382        0.523        0.327       62.004       24.519        0.156      337.121        8.881      867.937
01/21/2014  17:18:00      -89.079       10.122       -3.505       47.192       50.178       34.335     2227.067     2517.808     1178.902        0.699        0.296       89.652       23.141        0.067      336.966        8.621      867.952
01/21/2014  17:19:00     -116.744      -42.333       -5.932       62.082       44.079       21.666     3854.156     1942.915      469.437        1.086        0.313      124.182       12.108        0.010      336.887        8.489      867.950
01/21/2014  17:20:00      -89.389      -56.679       -0.158       66.626       52.913       22.913     4439.003     2799.767      524.991        0.948        0.388      105.844       20.595        0.038      336.852        8.432      867.941
01/21/2014  17:21:00      -68.563      -21.809      -15.844       38.017       25.399       19.123     1445.313      645.106      365.703        0.394        0.123       71.948       15.270        0.045      336.871        8.464      867.931
01/21/2014  17:22:00      -65.912       -7.444      -10.440       29.613       25.447       14.226      876.909      647.574      202.370        0.312        0.086       66.331        7.749        0.014      336.760        8.279      867.916
01/21/2014  17:23:00      -63.674      -14.833      -21.987       29.702       29.330       16.977      882.236      860.255      288.223        0.339        0.102       65.379        8.961        0.019      336.769        8.293      867.907
01/21/2014  17:24:00      -75.567        1.837      -20.305       21.965       18.802       19.782      482.457      353.504      391.328        0.368        0.061       75.589       13.620        0.032      336.743        8.250      867.907
01/21/2014  17:25:00      -81.130        0.696      -23.983       25.306       19.591       13.661      640.417      383.814      186.629        0.418        0.061       81.133       12.038        0.022      336.729        8.227      867.910
01/21/2014  17:26:00      -76.385      -10.989      -18.946       25.111       21.085       15.019      630.554      444.581      225.569        0.381        0.065       77.171       13.148        0.029      336.687        8.157      867.925
01/21/2014  17:27:00      -96.698       -7.383       -9.159       41.703       22.722       22.023     1739.132      516.288      485.026        0.611        0.137       96.980       21.458        0.049      336.529        7.894      867.963
01/21/2014  17:28:00      -89.013       -0.520      -11.986       37.839       27.823       17.010     1431.826      774.093      289.353        0.528        0.125       89.015       14.887        0.028      336.463        7.782      867.994
01/21/2014  17:29:00     -101.716      -25.760      -15.025       36.630       44.843       19.942     1341.792     2010.896      397.679        0.749        0.188      104.928       17.937        0.029      336.345        7.584      868.035
01/21/2014  17:30:00     -136.900      -43.356       -5.587       34.243       44.422       20.741     1172.567     1973.355      430.182        1.211        0.179      143.601        9.538        0.004      336.371        7.628      868.053
01/21/2014  17:31:00     -129.443      -33.175      -13.254       40.642       40.176       26.486     1651.756     1614.115      701.534        1.100        0.198      133.626       21.020        0.025      336.292        7.496      868.063
01/21/2014  17:32:00     -128.216      -39.838      -14.999       35.509       34.349       26.453     1260.918     1179.858      699.748        1.070        0.157      134.263       11.783        0.008      336.208        7.355      868.082
01/21/2014  17:33:00     -107.990      -50.154      -10.448       44.578       43.332       29.676     1987.198     1877.669      880.664        0.952        0.237      119.069       16.267        0.019      336.195        7.334      868.086
01/21/2014  17:34:00     -123.079      -40.232       -5.008       43.135       43.613       33.550     1860.617     1902.062     1125.610        1.084        0.244      129.488       15.775        0.015      336.078        7.139      868.092
01/21/2014  17:35:00     -129.412      -54.530      -12.892       61.498       51.519       30.955     3781.997     2654.186      958.195        1.364        0.370      140.431       17.974        0.016      336.082        7.144      868.104
01/21/2014  17:36:00     -116.096      -37.440       -4.305       55.121       53.559       32.753     3038.314     2868.620     1072.780        1.094        0.349      121.983       27.714        0.052      336.057        7.104      868.123
01/21/2014  17:37:00     -153.021      -33.184      -14.847       51.948       46.969       27.698     2698.554     2206.055      767.157        1.520        0.284      156.577       25.842        0.027      336.053        7.097      868.141
01/21/2014  17:38:00      -98.663      -28.089      -10.786       44.912       43.036       20.927     2017.130     1852.133      437.925        0.747        0.215      102.584       13.676        0.018      336.039        7.071      868.167
01/21/2014  17:39:00     -124.413      -68.110       -2.991       38.861       42.324       28.942     1510.212     1791.308      837.629        1.213        0.207      141.837       24.455        0.030      336.060        7.109      868.181
01/21/2014  17:40:00     -119.285      -56.600       -1.541       46.870       49.724       25.815     2196.837     2472.490      666.416        1.138        0.267      132.032       20.938        0.025      335.997        7.004      868.198
01/21/2014  17:41:00     -129.565      -75.183      -22.423       54.539       49.080       31.014     2974.496     2408.820      961.895        1.464        0.317      149.799       18.934        0.016      336.001        7.009      868.206
01/21/2014  17:42:00     -102.798      -44.228       -1.555       67.948       49.042       29.395     4616.892     2405.072      864.037        1.020        0.394      111.908       29.437        0.069      335.932        6.895      868.205
01/21/2014  17:43:00      -24.836      -38.488        1.393       52.501       52.589       33.721     2756.400     2765.624     1137.078        0.438        0.333       45.806       30.823        0.453      335.919        6.874      868.203
01/21/2014  17:44:00     -175.909      -36.851      -11.726       47.609       37.010       23.548     2266.616     1369.759      554.521        1.831        0.210      179.727       17.306        0.009      335.788        6.654      868.211
01/21/2014  17:45:00     -175.021      -32.430      -17.159       46.148       40.717       32.139     2129.644     1657.896     1032.906        1.840        0.241      178.000       23.210        0.017      335.804        6.681      868.221
01/21/2014  17:46:00     -114.071      -55.375        0.432       61.218       39.939       25.736     3747.629     1595.138      662.345        1.104        0.300      126.801       26.401        0.043      335.816        6.702      868.230
01/21/2014  17:47:00     -110.080      -39.475       -5.579       64.241       41.948       31.808     4126.958     1759.615     1011.775        1.030        0.345      116.944       25.695        0.048      335.742        6.579      868.236
01/21/2014  17:48:00     -131.147      -21.813      -16.962       77.212       36.399       26.481     5961.713     1324.867      701.260        1.297        0.399      132.949       33.592        0.064      335.760        6.607      868.244
01/21/2014  17:49:00     -109.734      -51.435      -23.660       40.410       38.530       23.083     1632.934     1484.525      532.825        0.945        0.183      121.191       14.456        0.014      335.774        6.632      868.251
01/21/2014  17:50:00      -44.420      -36.159       -7.522       63.153       46.718       29.322     3988.350     2182.618      859.754        0.518        0.352       57.276       29.732        0.269      335.706        6.519      868.247
01/21/2014  17:51:00      -80.479      -46.637        8.300       52.615       39.395       32.043     2768.318     1551.942     1026.755        0.703        0.267       93.016       27.984        0.091      335.701        6.511      868.243
01/21/2014  17:52:00      -67.983      -53.065        4.328       67.560       56.707       25.148     4564.355     3215.691      632.409        0.793        0.421       86.241       25.121        0.085      335.674        6.465      868.243
01/21/2014  17:53:00     -113.497      -46.845       -6.759       59.429       61.190       28.488     3531.764     3744.250      811.582        1.160        0.404      122.784        8.530        0.005      335.703        6.513      868.243
01/21/2014  17:54:00     -110.641      -42.542       -1.751       60.398       59.311       35.695     3647.881     3517.745     1274.102        1.125        0.422      118.537       28.303        0.057      335.620        6.373      868.243
01/21/2014  17:55:00     -132.483      -29.795      -17.540       34.112       35.358       26.313     1163.636     1250.180      692.370        1.093        0.155      135.792       20.430        0.023      335.609        6.358      868.238
01/21/2014  17:56:00      -88.335      -20.795      -21.114       48.244       29.576       24.638     2327.520      874.721      607.024        0.624        0.190       90.749       25.949        0.082      335.617        6.370      868.223
01/21/2014  17:57:00      -51.973      -19.487       -2.493       40.367       22.887       26.408     1629.485      523.794      697.403        0.297        0.143       55.506       25.155        0.205      335.561        6.277      868.215
01/21/2014  17:58:00     -119.199      -50.000      -27.701       37.444       43.559       22.577     1402.030     1897.388      509.716        1.064        0.190      129.261        6.467        0.003      335.544        6.249      868.193
01/21/2014  17:59:00     -118.898      -38.294       -7.193       41.301       33.448       24.537     1705.745     1118.791      602.084        0.954        0.171      124.913       20.397        0.027      335.585        6.317      868.170
01/21/2014  18:00:00     -131.699      -24.293      -18.226       26.865       30.567       19.195      721.752      934.368      368.451        1.015        0.101      133.921       11.932        0.008      335.594        6.332      868.158
01/21/2014  18:01:00     -126.107      -38.369      -16.807       24.796       31.563       26.244      614.841      996.243      688.763        0.998        0.115      131.815       16.528        0.016      335.604        6.349      868.148
01/21/2014  18:02:00     -150.306      -19.116      -23.932       23.493       31.134       21.482      551.943      969.328      461.480        1.276        0.099      151.517       19.058        0.016      335.612        6.363      868.150
01/21/2014  18:03:00     -122.912      -17.441      -20.002       25.280       36.718       23.599      639.073     1348.217      556.897        0.918        0.127      124.143       19.016        0.023      335.612        6.363      868.147
01/21/2014  18:04:00     -119.792      -37.175      -17.402       18.409       25.633       20.055      338.894      657.051      402.212        0.872        0.070      125.427       12.355        0.010      335.605        6.351      868.148
01/21/2014  18:05:00      -83.042      -54.555      -21.336       30.693       37.952       25.380      942.071     1440.372      644.128        0.668        0.151       99.359       16.268        0.027      335.618        6.372      868.139
01/21/2014  18:06:00     -108.367      -40.969      -15.864       34.036       29.439       20.379     1158.433      866.666      415.310        0.806        0.122      115.853       16.494        0.020      335.402        6.012      868.136
01/21/2014  18:07:00      -71.704      -36.062       -1.391       39.673       21.917       22.708     1573.970      480.341      515.670        0.451        0.128       80.261       21.817        0.074      335.389        5.988      868.135
01/21/2014  18:08:00      -99.613      -40.948      -13.721       28.298       21.085       21.416      800.782      444.557      458.656        0.675        0.085      107.701        9.624        0.008      335.439        6.073      868.138
01/21/2014  18:09:00     -103.722       -7.819      -20.245       31.636       34.477       22.161     1000.863     1188.681      491.107        0.695        0.134      104.016       14.625        0.020      335.473        6.129      868.164
01/21/2014  18:10:00     -115.428       -5.084      -24.251       31.446       25.117       17.959      988.828      630.842      322.517        0.794        0.097      115.540       12.109        0.011      335.508        6.188      868.186
01/21/2014  18:11:00     -111.843      -18.425      -20.886       35.982       30.475       23.189     1294.697      928.698      537.717        0.802        0.138      113.351       12.118        0.011      335.483        6.146      868.197
01/21/2014  18:12:00      -80.040      -16.202       -3.846       49.347       33.664       26.408     2435.088     1133.260      697.402        0.547        0.213       81.663       25.515        0.098      335.499        6.173      868.209
01/21/2014  18:13:00      -85.979      -21.670      -18.376       30.084       29.987       19.478      905.066      899.193      379.402        0.519        0.109       88.668       15.083        0.029      335.452        6.095      868.205
01/21/2014  18:14:00      -91.802      -40.353      -11.676       28.145       26.311       15.018      792.130      692.266      225.542        0.595        0.085      100.280        9.047        0.008      335.390        5.992      868.194
01/21/2014  18:15:00      -88.973      -26.663       -9.640       30.971       24.688       19.312      959.174      609.492      372.972        0.533        0.097       92.882       16.407        0.031      335.321        5.876      868.181
01/21/2014  18:16:00      -75.485      -29.124       -5.526       26.073       25.603       14.321      679.801      655.519      205.088        0.406        0.077       80.909       11.034        0.019      335.368        5.955      868.166
01/21/2014  18:17:00     -105.149      -20.043      -17.724       39.243       21.935       16.733     1540.009      481.130      279.997        0.704        0.115      107.042       15.546        0.021      335.442        6.077      868.154
01/21/2014  18:18:00      -88.467      -31.692      -16.040       27.257       18.875       10.916      742.930      356.266      119.160        0.515        0.061       93.972        8.283        0.008      335.508        6.189      868.160
01/21/2014  18:19:00      -73.953      -17.946       -3.523       23.383       23.319       13.446      546.758      543.792      180.792        0.354        0.064       76.099       10.093        0.018      335.493        6.164      868.161
01/21/2014  18:20:00      -66.599      -31.181      -10.871       28.029       16.260       13.518      785.597      264.379      182.737        0.338        0.062       73.537        9.660        0.017      335.509        6.189      868.176
01/21/2014  18:21:00      -92.902      -33.792      -17.809       18.066       19.947       14.041      326.370      397.886      197.141        0.551        0.046       98.857       10.408        0.011      335.461        6.109      868.193
01/21/2014  18:22:00     -102.989      -28.466      -10.569       14.006       16.837       13.361      196.161      283.490      178.517        0.609        0.033      106.851        8.604        0.006      335.342        5.911      868.213
01/21/2014  18:23:00      -81.427      -37.489      -16.662       21.442       17.091       10.912      459.755      292.106      119.071        0.459        0.044       89.643        5.449        0.004      335.281        5.809      868.231
01/21/2014  18:24:00     -114.352      -33.286      -15.828       15.376       26.143       13.463      236.422      683.443      181.247        0.777        0.055      119.098        7.799        0.004      335.287        5.820      868.241
01/21/2014  18:25:00     -108.860      -30.873      -11.793       25.102       18.243       18.374      630.100      332.821      337.599        0.712        0.065      113.153       12.850        0.013      335.191        5.661      868.247
01/21/2014  18:26:00     -102.007      -21.632      -15.940       23.277       25.790       14.370      541.826      665.111      206.483        0.627        0.071      104.276        9.870        0.009      335.234        5.731      868.253
01/21/2014  18:27:00      -84.933      -27.041      -12.913       20.020       16.979       12.597      400.806      288.296      158.691        0.448        0.042       89.133        5.952        0.004      335.202        5.678      868.257
01/21/2014  18:28:00      -81.356      -10.981      -17.849       30.371       20.344       13.665      922.419      413.890      186.731        0.429        0.076       82.094        9.487        0.013      335.217        5.703      868.257
01/21/2014  18:29:00      -69.670      -30.563       -5.861       37.113       27.529       22.147     1377.383      757.869      490.474        0.422        0.131       76.079       18.955        0.062      335.138        5.573      868.254
01/21/2014  18:30:00      -75.437       -1.013      -14.929       26.268       27.947       14.213      690.000      781.017      202.005        0.379        0.084       75.444        9.756        0.017      335.208        5.690      868.248
01/21/2014  18:31:00      -67.410      -13.704      -10.039       28.511       24.666       15.429      812.873      608.399      238.069        0.325        0.083       68.789       10.688        0.024      335.364        5.948      868.245
01/21/2014  18:32:00      -68.219       -8.171       -4.617       30.261       24.176       16.041      915.705      584.477      257.317        0.325        0.088       68.707       13.394        0.038      335.357        5.936      868.247
01/21/2014  18:33:00      -92.916      -17.469      -12.296       31.514       26.232       18.283      993.142      688.104      334.261        0.555        0.101       94.544       13.731        0.021      335.378        5.971      868.246
01/21/2014  18:34:00      -70.167       -7.292      -11.240       35.974       23.285       18.863     1294.149      542.204      355.800        0.365        0.110       70.545       17.610        0.062      335.328        5.888      868.255
01/21/2014  18:35:00     -102.363       10.365      -10.209       45.946       23.345       18.888     2110.989      544.988      356.751        0.685        0.151      102.886       20.489        0.040      335.342        5.913      868.273
01/21/2014  18:36:00      -94.592        3.710       -8.488       35.323       33.731       18.503     1247.695     1137.774      342.359        0.588        0.136       94.665       18.342        0.038      335.321        5.876      868.289
01/21/2014  18:37:00      -63.212       -6.525       -0.666       42.390       25.746       20.136     1796.894      662.873      405.462        0.345        0.143       63.548       22.639        0.127      335.279        5.806      868.295
01/21/2014  18:38:00      -90.921        1.633      -11.861       38.707       24.562       20.273     1498.223      603.269      411.002        0.546        0.126       90.936       17.740        0.038      335.321        5.876      868.297
01/21/2014  18:39:00     -129.496       11.076      -18.810       26.741       27.766       14.177      715.078      770.972      200.981        0.947        0.084      129.969        8.656        0.004      335.312        5.862      868.301
01/21/2014  18:40:00     -117.698       10.168      -12.916       43.996       32.337       25.444     1935.663     1045.649      647.410        0.888        0.181      118.136       24.502        0.043      335.207        5.688      868.295
01/21/2014  18:41:00     -102.602       -4.578      -13.088       40.306       26.312       23.187     1624.566      692.324      537.644        0.679        0.143      102.704       18.920        0.034      335.159        5.609      868.298
01/21/2014  18:42:00      -88.316       17.638      -12.813       40.715       30.463       21.065     1657.698      927.967      443.714        0.565        0.151       90.060       10.312        0.013      335.219        5.706      868.295
01/21/2014  18:43:00      -97.182       10.272      -19.833       43.897       29.553       19.092     1926.947      873.399      364.520        0.655        0.158       97.723       17.248        0.031      335.247        5.752      868.300
01/21/2014  18:44:00      -92.711        6.496      -11.051       21.704       23.764       14.736      471.058      564.740      217.151        0.501        0.063       92.939        7.868        0.007      335.275        5.800      868.298
01/21/2014  18:45:00      -88.526       -0.168      -14.551       30.691       21.434       17.305      941.950      459.410      299.460        0.487        0.085       88.526       12.312        0.019      335.371        5.960      868.294
01/21/2014  18:46:00      -93.064      -15.680      -13.472       23.081       21.525       13.570      532.743      463.332      184.148        0.513        0.059       94.375       12.541        0.018      335.252        5.760      868.296
01/21/2014  18:47:00     -110.266      -22.203      -12.012       24.375       19.391       14.512      594.128      375.993      210.601        0.699        0.059      112.479        6.825        0.004      335.251        5.758      868.292
01/21/2014  18:48:00      -81.294      -27.977       -6.543       26.796       19.841       15.940      718.018      393.685      254.079        0.440        0.068       85.974       15.487        0.032      335.228        5.721      868.289
01/21/2014  18:49:00      -93.212      -44.882      -10.906       14.757       12.211       10.118      217.773      149.119      102.375        0.565        0.023      103.454        7.368        0.005      335.312        5.861      868.286
01/21/2014  18:50:00      -85.667      -46.303       -6.679       18.796        8.640        9.851      353.301       74.648       97.041        0.503        0.026       97.380       10.262        0.011      335.302        5.844      868.282
01/21/2014  18:51:00      -75.885      -44.585       -8.833       16.182       13.455       13.038      261.845      181.050      169.992        0.422        0.031       88.014        8.952        0.010      335.453        6.096      868.282
01/21/2014  18:52:00      -76.937      -36.203       -9.108       19.322       13.209        8.290      373.327      174.471       68.724        0.396        0.031       85.029        6.788        0.006      335.501        6.177      868.285
01/21/2014  18:53:00      -56.902      -41.895       -3.775       15.754       14.997        9.868      248.185      224.897       97.369        0.279        0.029       70.661        8.107        0.013      335.493        6.162      868.287
01/21/2014  18:54:00      -54.818      -49.829       -9.639        9.699       14.721        7.846       94.063      216.703       61.565        0.298        0.019       74.081        3.259        0.002      335.565        6.282      868.286
01/21/2014  18:55:00      -34.262      -55.206       -0.787       21.579       15.704       14.256      465.649      246.607      203.222        0.257        0.046       64.974       12.689        0.038      335.600        6.341      868.276
01/21/2014  18:56:00      -36.868      -30.791       -2.021       14.975       11.373       11.541      224.265      129.355      133.195        0.140        0.024       48.035        4.761        0.010      335.414        6.032      868.283
01/21/2014  18:57:00      -75.534      -44.514       -6.320       22.627       13.582       11.033      511.980      184.469      121.731        0.427        0.041       87.675        8.295        0.009      335.390        5.992      868.281
01/21/2014  18:58:00      -63.392      -42.068       -2.273       25.636       16.281       10.091      657.187      265.064      101.823        0.341        0.051       76.081        8.761        0.013      335.284        5.814      868.291
01/21/2014  18:59:00     -113.913      -61.254      -13.887       27.185       21.756       17.191      739.048      473.340      295.531        0.921        0.075      129.338        9.791        0.006      335.185        5.651      868.307
01/21/2014  19:00:00     -115.487      -67.321       -7.206       24.630       19.094       17.076      606.619      364.563      291.593        0.959        0.063      133.677       11.693        0.008      335.143        5.580      868.326
01/21/2014  19:01:00     -114.935      -31.670      -15.384       18.766       21.073       12.865      352.179      444.055      165.515        0.771        0.048      119.218        8.127        0.005      335.074        5.466      868.342
01/21/2014  19:02:00     -139.134      -54.537      -10.015       22.358       18.455       12.973      499.890      340.583      168.295        1.172        0.050      149.441       11.531        0.006      335.105        5.517      868.346
01/21/2014  19:03:00     -128.804      -70.611       -9.932       19.666       22.845       13.036      386.758      521.885      169.929        1.138        0.054      146.889        9.952        0.005      335.120        5.543      868.348
01/21/2014  19:04:00     -142.585      -56.469      -10.891       14.044       17.863       12.772      197.236      319.096      163.117        1.216        0.034      153.360        5.313        0.001      335.121        5.544      868.350
01/21/2014  19:05:00     -119.514      -51.715       -9.533       16.556       15.488       13.899      274.106      239.882      193.178        0.888        0.035      130.223        8.688        0.004      335.077        5.473      868.351
01/21/2014  19:06:00     -110.696      -40.514      -12.693       18.574       16.066       11.522      344.995      258.116      132.762        0.740        0.037      117.877       10.382        0.008      335.124        5.549      868.354
01/21/2014  19:07:00     -114.014      -27.442      -12.982       14.575       18.394       10.363      212.418      338.350      107.393        0.729        0.033      117.270        6.822        0.003      335.063        5.449      868.372
01/21/2014  19:08:00     -104.752      -38.549       -6.256       17.767       22.403       14.500      315.661      501.906      210.243        0.676        0.051      111.620       11.186        0.010      335.001        5.347      868.367
01/21/2014  19:09:00      -81.115      -42.223       -0.180       22.453       17.775       17.630      504.123      315.935      310.807        0.475        0.057       91.446        8.970        0.010      334.912        5.197      868.378
01/21/2014  19:10:00      -59.062      -41.688        7.081       40.175       27.554       23.739     1614.006      759.195      563.517        0.411        0.147       72.292       24.248        0.113      334.846        5.088      868.385
01/21/2014  19:11:00      -32.268      -38.110       11.423       29.882       29.911       19.408      892.914      894.686      376.677        0.239        0.108       49.936       14.940        0.090      334.935        5.237      868.398
01/21/2014  19:12:00      -45.500      -34.037        4.217       41.191       21.431       20.353     1696.662      459.296      414.230        0.291        0.129       56.822       19.815        0.122      334.980        5.311      868.412
01/21/2014  19:13:00     -114.242      -40.216       -5.461       26.579       17.874       16.802      706.441      319.471      282.322        0.800        0.065      121.114       16.113        0.018      335.022        5.380      868.413
01/21/2014  19:14:00     -115.491      -41.491      -10.885       13.884       18.272       14.711      192.759      333.858      216.406        0.796        0.037      122.718        6.010        0.002      334.945        5.253      868.417
01/21/2014  19:15:00      -85.062      -50.255        4.751       40.030       21.316       19.267     1602.364      454.355      371.230        0.611        0.121       98.798       17.090        0.030      334.887        5.157      868.421
01/21/2014  19:16:00     -117.414      -52.672       -4.051       19.750       16.966       10.462      390.074      287.850      109.446        0.868        0.039      128.687        9.702        0.006      334.894        5.167      868.414
01/21/2014  19:17:00     -116.698      -59.527       -9.623       18.869       17.280       14.001      356.057      298.586      196.019        0.905        0.043      131.003       11.432        0.008      334.863        5.117      868.418
01/21/2014  19:18:00     -139.528      -62.279      -12.809       16.931       18.698       12.150      286.662      349.615      147.615        1.215        0.039      152.797       10.237        0.004      334.879        5.142      868.421
01/21/2014  19:19:00     -159.952      -56.298      -23.941       12.840       14.820        9.588      164.858      219.628       91.930        1.490        0.024      169.570        2.544        0.000      334.815        5.037      868.408
01/21/2014  19:20:00     -147.812      -48.447      -13.412       26.580       28.169       19.620      706.485      793.518      384.959        1.313        0.094      155.549       12.936        0.007      334.672        4.799      868.404
01/21/2014  19:21:00     -157.295      -24.036      -13.796       34.024       29.949       18.069     1157.644      896.967      326.497        1.395        0.119      159.121       15.596        0.010      334.456        4.440      868.406
01/21/2014  19:22:00      -98.468      -37.091       -1.632       33.548       34.124       21.021     1125.497     1164.416      441.882        0.690        0.137      105.222       14.419        0.019      334.364        4.290      868.405
01/21/2014  19:23:00      -91.402      -10.261       -8.477       51.755       30.040       22.355     2678.630      902.387      499.768        0.631        0.204       91.976       23.294        0.064      334.381        4.317      868.416
01/21/2014  19:24:00      -83.505      -12.660       -1.487       46.523       31.668       24.225     2164.424     1002.884      586.838        0.544        0.188       84.459       21.750        0.066      334.431        4.400      868.414
01/21/2014  19:25:00      -73.750      -29.184        0.929       45.708       25.940       15.089     2089.242      672.858      227.667        0.464        0.149       79.314       16.682        0.044      334.436        4.408      868.417
01/21/2014  19:26:00      -41.912      -31.485        6.343       21.364       24.063       14.974      456.416      579.039      224.208        0.202        0.063       52.421        3.941        0.006      334.461        4.449      868.437
01/21/2014  19:27:00      -47.092       -6.876       -1.574       14.770       22.469       12.952      218.142      504.853      167.744        0.158        0.045       47.591        7.588        0.025      334.506        4.524      868.437
01/21/2014  19:28:00      -97.307      -43.048      -10.862       24.369       18.930       11.395      593.833      358.331      129.839        0.626        0.054      106.404        8.153        0.006      334.510        4.531      868.441
01/21/2014  19:29:00     -111.008      -43.437      -10.658       18.099       16.802       13.562      327.589      282.292      183.918        0.756        0.040      119.204        7.067        0.004      334.416        4.376      868.454
01/21/2014  19:30:00      -74.965      -17.913       -1.296       36.687       27.680       19.839     1345.917      766.187      393.575        0.422        0.125       77.076       19.848        0.066      334.361        4.283      868.469
01/21/2014  19:31:00     -114.899      -11.284       -3.661       41.251       36.495       25.031     1701.604     1331.886      626.541        0.850        0.183      115.452       26.032        0.051      334.292        4.167      868.488
01/21/2014  19:32:00     -151.214        0.804      -11.472       45.954       26.752       24.965     2111.812      715.679      623.270        1.322        0.173      151.216       26.720        0.031      334.263        4.120      868.508
01/21/2014  19:33:00     -141.316       -2.621       -9.431       39.263       37.911       24.758     1541.552     1437.229      612.978        1.183        0.180      141.340       22.302        0.025      334.193        4.004      868.525
01/21/2014  19:34:00     -104.539       -5.699       -8.432       52.123       35.542       22.684     2716.845     1263.250      514.552        0.776        0.225      104.694       19.302        0.034      334.109        3.865      868.546
01/21/2014  19:35:00     -112.683      -13.040       -6.467       48.203       31.425       25.478     2323.549      987.509      649.108        0.843        0.198      113.435       26.634        0.055      334.110        3.865      868.545
01/21/2014  19:36:00     -130.888       -8.588      -18.604       36.914       36.752       27.579     1362.609     1350.687      760.628        1.051        0.174      131.169       18.179        0.019      334.145        3.926      868.543
01/21/2014  19:37:00     -137.240      -45.688      -22.965       29.910       23.983       14.025      894.615      575.190      196.693        1.156        0.083      144.645        9.879        0.005      334.088        3.829      868.530
01/21/2014  19:38:00     -111.435      -60.095      -14.979       16.069       23.296       13.233      258.220      542.715      175.124        0.861        0.049      126.606        8.499        0.005      334.038        3.746      868.521
01/21/2014  19:39:00     -135.322      -34.854      -25.392       11.923       18.403       10.549      142.164      338.687      111.275        1.038        0.030      139.738        3.339        0.001      334.139        3.914      868.507
01/21/2014  19:40:00     -156.554      -30.549      -28.278       12.153       14.191       13.175      147.700      201.388      173.578        1.338        0.026      159.506        6.762        0.002      334.135        3.907      868.489
01/21/2014  19:41:00     -154.556      -46.764      -21.005       19.098       15.445       12.111      364.738      238.540      146.681        1.363        0.037      161.476       10.531        0.004      334.079        3.814      868.476
01/21/2014  19:42:00     -121.737      -51.683      -11.177       28.926       19.940       15.950      836.741      397.623      254.392        0.955        0.074      132.254       15.220        0.013      334.113        3.872      868.475
01/21/2014  19:43:00     -119.438      -45.506      -10.573       31.847       26.115       21.669     1014.201      681.984      469.543        0.931        0.108      127.813       16.541        0.017      334.169        3.965      868.462
01/21/2014  19:44:00     -130.081      -58.522       -9.835       40.228       30.056       21.881     1618.326      903.388      478.776        1.172        0.150      142.639       23.685        0.028      334.056        3.776      868.466
01/21/2014  19:45:00     -110.360      -49.636       -9.786       23.326       23.742       16.400      544.114      563.706      268.961        0.806        0.069      121.008       10.014        0.007      334.110        3.867      868.478
01/21/2014  19:46:00     -103.822      -69.394       -7.306       20.408       22.250       13.279      416.501      495.068      176.337        0.837        0.054      124.878        9.760        0.006      334.195        4.007      868.493
01/21/2014  19:47:00     -116.726      -59.424       -7.664       21.852       28.274       14.736      477.508      799.421      217.146        0.935        0.075      130.982       11.265        0.007      334.147        3.928      868.521
01/21/2014  19:48:00      -79.645       -0.149        2.382       44.903       34.466       30.055     2016.265     1187.897      903.329        0.523        0.205       79.645       28.511        0.128      334.217        4.045      868.535
01/21/2014  19:49:00      -95.447      -13.683       -3.013       45.341       26.396       20.665     2055.843      696.743      427.025        0.624        0.159       96.423       21.262        0.049      334.374        4.304      868.557
01/21/2014  19:50:00     -113.155      -35.821       -3.175       28.645       21.904       18.057      820.523      479.802      326.062        0.786        0.081      118.689       17.101        0.021      334.313        4.204      868.568
01/21/2014  19:51:00     -100.376      -26.317       -6.185       27.281       23.224       13.905      744.236      539.353      193.349        0.614        0.074      103.769       12.410        0.014      334.234        4.074      868.579
01/21/2014  19:52:00     -136.162      -46.059      -10.096       28.604       20.904       17.210      818.187      436.997      296.182        1.116        0.078      143.741       16.338        0.013      334.151        3.934      868.600
01/21/2014  19:53:00     -134.853      -32.906      -12.580       31.084       26.094       18.727      966.194      680.896      350.712        1.071        0.100      138.810       13.593        0.010      334.009        3.699      868.605
01/21/2014  19:54:00     -123.949      -28.534       -1.374       29.643       26.376       17.856      878.683      695.684      318.829        0.904        0.095      127.191       15.876        0.016      333.965        3.627      868.628
01/21/2014  19:55:00      -94.262      -30.977       -0.444       33.975       30.717       18.572     1154.317      943.524      344.905        0.614        0.122       99.222       17.839        0.032      333.916        3.544      868.630
01/21/2014  19:56:00      -97.665      -56.272       -3.272       33.373       27.378       17.252     1113.766      749.538      297.635        0.744        0.108      112.717       15.346        0.019      333.938        3.582      868.634
01/21/2014  19:57:00      -89.530      -65.763       -0.021       47.365       29.960       23.131     2243.436      897.590      535.050        0.801        0.184      111.088       23.101        0.043      333.945        3.594      868.640
01/21/2014  19:58:00     -107.307      -70.532       -9.849       38.688       27.338       26.304     1496.731      747.385      691.891        0.976        0.147      128.411       21.772        0.029      333.915        3.544      868.645
01/21/2014  19:59:00     -131.742      -63.602       -7.452       33.189       18.759       16.626     1101.489      351.883      276.408        1.159        0.086      146.291       10.555        0.005      333.923        3.556      868.668
01/21/2014  20:00:00     -124.253      -73.036       -2.796       38.375       30.271       23.329     1472.623      916.351      544.233        1.186        0.147      144.129       22.024        0.023      333.900        3.519      868.678
01/21/2014  20:01:00      -86.083      -50.980        1.303       47.700       33.689       26.356     2275.266     1134.952      694.635        0.706        0.205      100.046       26.169        0.068      333.856        3.445      868.690
01/21/2014  20:02:00     -133.272      -82.828        3.867       61.150       34.931       23.468     3739.379     1220.197      550.725        1.507        0.276      156.914       26.808        0.029      333.894        3.508      868.692
01/21/2014  20:03:00     -128.032      -74.178        0.172       52.728       38.481       26.724     2780.279     1480.781      714.149        1.343        0.249      147.969       27.160        0.034      333.905        3.527      868.683
01/21/2014  20:04:00     -133.075      -85.814       -0.149       46.432       39.330       31.853     2155.898     1546.828     1014.619        1.489        0.236      158.345       22.752        0.021      334.058        3.780      868.697
01/21/2014  20:05:00      -97.721      -70.156        1.146       65.685       41.911       29.996     4314.578     1756.568      899.780        1.072        0.349      120.297       34.318        0.081      334.038        3.746      868.702
01/21/2014  20:06:00      -96.163      -96.161        8.081       51.249       37.241       30.132     2626.442     1386.926      907.944        1.174        0.246      135.993       28.336        0.043      334.127        3.895      868.718
01/21/2014  20:07:00     -111.719      -75.166        2.066       54.009       33.508       29.265     2916.959     1122.797      856.419        1.151        0.245      134.652       28.393        0.044      334.015        3.709      868.717
01/21/2014  20:08:00     -126.507      -99.200        3.636       59.772       41.781       35.610     3572.639     1745.647     1268.044        1.622        0.329      160.762       30.669        0.036      334.058        3.778      868.722
01/21/2014  20:09:00     -129.872      -91.618        4.337       74.752       52.421       36.835     5587.878     2747.939     1356.841        1.748        0.485      158.936       40.280        0.064      334.021        3.719      868.734
01/21/2014  20:10:00     -162.558      -95.462        2.108       69.296       45.505       35.055     4801.884     2070.674     1228.866        2.182        0.405      188.516       34.084        0.033      333.989        3.662      868.737
01/21/2014  20:11:00     -202.629      -97.966       -3.858       52.377       45.027       29.963     2743.354     2027.456      897.792        2.817        0.283      225.069       28.405        0.016      334.011        3.699      868.760
01/21/2014  20:12:00     -200.722     -100.080       -6.043       49.708       37.545       28.107     2470.924     1409.597      789.981        2.751        0.234      224.289       26.475        0.014      334.054        3.770      868.763
01/21/2014  20:13:00     -196.142      -75.854       -2.335       50.081       43.782       27.486     2508.059     1916.872      755.507        2.470        0.259      210.298       27.074        0.017      334.036        3.741      868.781
01/21/2014  20:14:00     -195.046      -67.942       -0.176       50.893       41.618       29.320     2590.082     1732.096      859.667        2.392        0.259      206.540       26.446        0.016      334.025        3.722      868.800
01/21/2014  20:15:00     -172.693      -49.731       -1.973       78.853       46.864       36.134     6217.801     2196.279     1305.643        2.101        0.486      179.711       44.441        0.061      333.907        3.526      868.817
01/21/2014  20:16:00     -160.296      -23.589        4.045       51.944       39.451       30.184     2698.203     1556.376      911.070        1.572        0.258      162.022       25.534        0.025      333.752        3.272      868.836
01/21/2014  20:17:00     -189.055      -39.715      -12.919       52.608       50.603       28.233     2767.629     2560.714      797.081        2.180        0.306      193.182       28.445        0.022      333.818        3.381      868.843
01/21/2014  20:18:00     -184.421      -52.064      -10.725       47.296       34.590       26.489     2236.958     1196.435      701.648        2.048        0.207      191.629       24.253        0.016      333.957        3.611      868.859
01/21/2014  20:19:00     -179.741      -20.075      -17.627       43.334       31.892       22.596     1877.854     1017.076      510.589        1.821        0.170      180.858       13.510        0.006      334.035        3.739      868.857
01/21/2014  20:20:00     -192.534       -2.931      -18.701       26.879       20.950       20.502      722.489      438.919      420.347        1.950        0.079      192.556       17.543        0.008      333.876        3.478      868.862
01/21/2014  20:21:00     -165.757       -6.922      -15.616       44.986       32.871       20.881     2023.749     1080.476      436.008        1.565        0.177      165.902       17.374        0.011      334.038        3.747      868.875
01/21/2014  20:22:00     -170.145       13.253      -10.869       27.475       24.006       17.286      754.861      576.293      298.792        1.544        0.081      170.661       14.142        0.007      334.012        3.703      868.885
01/21/2014  20:23:00     -150.982       27.542      -19.761       31.131       30.856       19.874      969.114      952.065      394.967        1.313        0.116      153.473       15.386        0.010      334.089        3.831      868.910
01/21/2014  20:24:00     -165.662       32.191       -8.723       55.697       30.421       19.406     3102.151      925.459      376.594        1.648        0.220      168.761       23.172        0.019      334.249        4.097      868.930
01/21/2014  20:25:00     -182.741        2.878      -19.222       28.772       24.257       12.687      827.819      588.415      160.962        1.767        0.079      182.763        7.429        0.002      334.199        4.014      868.932
01/21/2014  20:26:00     -178.576        6.328      -15.775       42.498       29.542       25.052     1806.050      872.718      627.593        1.774        0.165      178.688       26.707        0.022      333.970        3.634      868.936
01/21/2014  20:27:00     -116.695        7.994       -9.458       44.623       37.954       25.488     1991.185     1440.478      649.657        0.893        0.204      116.969       19.947        0.029      333.859        3.450      868.945
01/21/2014  20:28:00     -137.095       13.693      -11.124       42.129       46.230       29.894     1774.851     2137.189      893.659        1.196        0.240      137.777       22.546        0.027      333.964        3.624      868.937
01/21/2014  20:29:00      -79.256        1.506       -8.796       50.628       50.740       28.876     2563.232     2574.557      833.835        0.617        0.299       79.270       25.204        0.101      333.944        3.591      868.943
01/21/2014  20:30:00      -61.022        1.042       -3.764       33.149       28.122       23.693     1098.848      790.855      561.377        0.309        0.123       61.030       18.568        0.093      334.029        3.732      868.966
01/21/2014  20:31:00     -102.829        7.122      -11.000       43.485       37.204       21.604     1890.988     1384.171      466.721        0.724        0.187      103.075       17.834        0.030      333.940        3.585      868.979
01/21/2014  20:32:00     -100.341       -4.885        0.545       43.964       29.203       25.660     1932.812      852.821      658.438        0.677        0.172      100.460       25.890        0.066      333.803        3.358      868.999
01/21/2014  20:33:00      -64.301       -4.586        8.253       40.879       29.789       20.873     1671.095      887.388      435.670        0.361        0.150       64.464       19.154        0.088      333.771        3.303      869.016
01/21/2014  20:34:00      -42.465      -15.671       -3.021       28.934       28.300       22.220      837.174      800.867      493.724        0.209        0.107       45.264       14.702        0.105      333.722        3.224      869.028
01/21/2014  20:35:00      -85.743       -7.813        2.110       42.023       34.068       24.472     1765.920     1160.621      598.890        0.547        0.176       86.098       19.194        0.050      333.705        3.194      869.030
01/21/2014  20:36:00      -76.973      -16.642        0.358       40.958       39.801       23.795     1677.562     1584.128      566.203        0.501        0.191       78.752       24.154        0.094      333.544        2.928      869.028
01/21/2014  20:37:00      -97.309      -25.673        1.879       47.983       26.701       24.603     2302.397      712.950      605.323        0.688        0.181      100.638       27.572        0.075      333.393        2.678      869.029
01/21/2014  20:38:00     -108.018      -32.454        1.412       25.572       23.452       17.856      653.931      549.997      318.838        0.712        0.076      112.788       12.198        0.012      333.388        2.670      869.028
01/21/2014  20:39:00     -103.837      -20.285       -1.235       40.647       26.919       21.764     1652.204      724.626      473.687        0.702        0.143      105.800       23.575        0.050      333.451        2.774      869.014
01/21/2014  20:40:00     -116.188      -36.676        1.078       29.321       28.511       16.000      859.706      812.880      255.995        0.839        0.096      121.839       13.754        0.013      333.554        2.944      869.001
01/21/2014  20:41:00      -76.465      -22.263        2.315       29.465       28.009       14.091      868.200      784.494      198.564        0.410        0.093       79.640       16.150        0.041      333.526        2.897      868.993
01/21/2014  20:42:00     -101.242      -50.633       -6.864       15.865       25.994       14.952      251.703      675.669      223.567        0.701        0.058      113.198       10.542        0.009      333.529        2.903      868.999
01/21/2014  20:43:00      -84.913      -65.413       -3.360       29.456       15.775       14.468      867.637      248.841      209.322        0.641        0.066      107.187       12.720        0.014      333.474        2.811      869.008
01/21/2014  20:44:00      -90.588      -58.513       -8.113       15.026       18.903       14.286      225.776      357.320      204.083        0.624        0.039      107.842        7.176        0.004      333.398        2.687      869.010
01/21/2014  20:45:00      -96.938      -40.974       -9.145       17.471       15.186       12.009      305.222      230.616      144.214        0.592        0.034      105.242       10.666        0.010      333.435        2.746      869.005
01/21/2014  20:46:00      -90.994      -38.296       -6.744       19.974       14.760       11.037      398.973      217.870      121.822        0.527        0.037       98.725        5.099        0.003      333.415        2.713      868.998
01/21/2014  20:47:00     -107.438      -43.713       -6.043       16.025       19.365       13.462      256.808      375.016      181.213        0.715        0.041      115.990       11.165        0.009      333.490        2.838      868.995
01/21/2014  20:48:00      -91.621      -46.989       -8.633       39.493       15.740       15.471     1559.736      247.738      239.360        0.636        0.102      102.968       15.561        0.023      333.520        2.888      868.983
01/21/2014  20:49:00      -96.868      -54.627       -6.122       11.114       14.785       14.585      123.528      218.610      212.709        0.648        0.028      111.209        8.487        0.006      333.528        2.902      868.965
01/21/2014  20:50:00      -96.202      -52.530       -9.869       12.536       12.125       11.455      157.140      147.011      131.227        0.627        0.022      109.609        7.694        0.005      333.489        2.836      868.966
01/21/2014  20:51:00      -92.534      -61.680      -10.845       20.539       13.727       14.037      421.839      188.429      197.049        0.665        0.040      111.207       10.494        0.009      333.376        2.651      868.976
01/21/2014  20:52:00     -117.107      -52.355      -16.655       17.377       11.166        8.702      301.966      124.677       75.726        0.862        0.025      128.277        6.061        0.002      333.298        2.521      868.980
01/21/2014  20:53:00     -142.219      -48.190      -12.473       11.167       14.385        9.327      124.696      206.915       87.001        1.156        0.021      150.161        6.562        0.002      333.262        2.461      868.997
01/21/2014  20:54:00     -148.914      -43.264      -13.962        9.985       14.622       11.187       99.703      213.791      125.146        1.234        0.022      155.071        3.363        0.000      333.209        2.372      869.040
01/21/2014  20:55:00     -139.541      -31.487      -15.051       19.637       19.311       16.314      385.592      372.933      266.151        1.086        0.051      143.050       10.227        0.005      333.221        2.394      869.067
01/21/2014  20:56:00      -73.995      -40.106        3.448       37.035       24.598       15.869     1371.599      605.049      251.831        0.466        0.111       84.165       18.149        0.046      333.171        2.310      869.078
01/21/2014  20:57:00      -62.712      -40.907       -4.171       18.866       22.995       16.924      355.922      528.776      286.434        0.340        0.059       74.875       11.728        0.025      333.182        2.327      869.085
01/21/2014  20:58:00      -71.516      -46.797      -12.195       28.587       14.446       13.786      817.235      208.695      190.054        0.433        0.061       85.466       13.017        0.023      333.180        2.325      869.076
01/21/2014  20:59:00      -99.800      -36.663      -17.718        7.623        8.222        5.721       58.105       67.598       32.731        0.589        0.008      106.322        1.924        0.000      333.295        2.518      869.057
01/21/2014  21:00:00      -91.250      -36.591      -15.672        9.362        9.986        8.171       87.653       99.713       66.773        0.508        0.013       98.313        5.309        0.003      333.307        2.535      869.046
01/21/2014  21:01:00      -79.399      -30.949      -12.395       11.754        9.154        8.106      138.154       83.804       65.715        0.385        0.014       85.218        4.792        0.003      333.347        2.603      869.055
01/21/2014  21:02:00      -96.533       -9.997      -21.129       11.621        7.016        9.352      135.036       49.218       87.457        0.507        0.014       97.049        6.043        0.004      333.306        2.533      869.080
01/21/2014  21:03:00     -119.868      -12.318      -17.445       11.578       10.279        9.304      134.054      105.665       86.569        0.758        0.016      120.500        4.439        0.001      333.274        2.481      869.087
01/21/2014  21:04:00     -126.134      -32.384      -22.194       16.222       17.153       13.095      263.156      294.237      171.471        0.909        0.036      130.225        7.966        0.004      333.163        2.298      869.090
01/21/2014  21:05:00      -89.007      -24.213       -6.972       27.099       16.436       11.503      734.380      270.144      132.323        0.485        0.057       92.242        8.468        0.008      333.117        2.221      869.098
01/21/2014  21:06:00      -70.934       -8.488       -9.605       21.387       22.987       15.818      457.411      528.398      250.211        0.322        0.062       71.440       13.573        0.036      333.057        2.123      869.108
01/21/2014  21:07:00      -49.949        4.876      -13.439       20.426       10.862       12.645      417.235      117.989      159.892        0.170        0.035       50.186        8.560        0.029      333.219        2.390      869.115
01/21/2014  21:08:00      -38.528       -9.775       -7.182       10.195        6.536        6.751      103.931       42.718       45.582        0.091        0.010       39.749        6.197        0.024      333.261        2.460      869.118
01/21/2014  21:09:00      -25.412      -11.410       -4.492        6.359        8.344        7.916       40.434       69.625       62.657        0.048        0.009       27.856        6.088        0.048      333.376        2.648      869.135
01/21/2014  21:10:00      -26.786      -10.507       -1.593        5.847        7.725        4.841       34.189       59.680       23.440        0.047        0.006       28.773        2.875        0.010      333.391        2.673      869.148
01/21/2014  21:11:00      -14.377      -10.271       -7.829        7.265        8.626        4.813       52.787       74.404       23.162        0.026        0.008       17.669        4.036        0.052      333.365        2.632      869.141
01/21/2014  21:12:00      -13.093       -2.802        0.480       11.972        9.471        7.688      143.330       89.705       59.104        0.024        0.015       13.390        5.840        0.190      333.442        2.761      869.128
01/21/2014  21:13:00       -7.206      -14.004       -4.634       10.641       10.983       11.027      113.234      120.628      121.586        0.031        0.018       15.749        7.867        0.250      333.178        2.324      869.127
01/21/2014  21:14:00      -18.139      -26.345       -8.175       10.605       14.450        6.626      112.475      208.788       43.909        0.073        0.018       31.986        4.506        0.020      333.385        2.664      869.120
01/21/2014  21:15:00      -29.362      -23.683       -0.608       11.452       12.593        8.810      131.154      158.573       77.615        0.090        0.018       37.723        6.703        0.032      333.547        2.933      869.098
01/21/2014  21:16:00      -55.331      -29.309      -12.660       13.407       16.376        8.208      179.742      268.168       67.366        0.230        0.026       62.614        3.894        0.004      333.048        2.107      869.087
01/21/2014  21:17:00      -76.123      -17.656      -13.823        8.751        9.504        7.841       76.577       90.328       61.483        0.326        0.011       78.143        6.016        0.006      332.975        1.987      869.078
01/21/2014  21:18:00      -75.366      -13.901      -13.889        6.388        8.164        6.544       40.812       66.647       42.818        0.311        0.008       76.638        4.010        0.003      333.061        2.129      869.071
01/21/2014  21:19:00      -80.077      -13.423      -13.546       11.226       11.392        8.153      126.016      129.776       66.465        0.355        0.016       81.194        4.921        0.004      333.179        2.325      869.051
01/21/2014  21:20:00      -73.221      -11.623      -10.555        7.145       10.517        5.435       51.055      110.610       29.540        0.290        0.010       74.138        2.223        0.001      333.220        2.391      869.036
01/21/2014  21:21:00      -73.445      -26.977       -9.004        7.949       14.038        5.388       63.193      197.063       29.032        0.325        0.014       78.243        4.214        0.003      333.239        2.422      869.021
01/21/2014  21:22:00      -73.877      -42.846       -9.297        8.043        7.191        6.714       64.687       51.714       45.077        0.377        0.008       85.402        1.239        0.000      333.158        2.290      869.007
01/21/2014  21:23:00      -84.829      -31.761       -7.957        9.066        9.306        7.222       82.190       86.604       52.152        0.424        0.011       90.580        4.014        0.002      332.977        1.990      869.017
01/21/2014  21:24:00      -93.941      -45.674       -6.750       11.042       14.112        7.114      121.931      199.137       50.602        0.566        0.019      104.456        4.749        0.002      332.952        1.949      869.045
01/21/2014  21:25:00      -94.653      -35.573      -11.261        8.881        9.534        6.140       78.876       90.891       37.698        0.528        0.010      101.117        4.957        0.002      332.918        1.895      869.057
01/21/2014  21:26:00     -117.026      -24.149      -15.626       16.095       12.942        9.991      259.046      167.504       99.815        0.752        0.026      119.492        6.323        0.003      332.984        2.002      869.064
01/21/2014  21:27:00     -123.866      -49.116       -5.744       20.206       16.978       12.515      408.278      288.251      156.622        0.932        0.043      133.248        8.056        0.004      333.083        2.167      869.080
01/21/2014  21:28:00     -125.982      -52.745      -10.599       11.810       12.443       10.235      139.472      154.832      104.746        0.958        0.020      136.578        6.473        0.002      332.954        1.953      869.094
01/21/2014  21:29:00     -134.743      -62.403      -10.153       11.046        9.712        7.280      122.014       94.327       53.005        1.121        0.013      148.492        4.023        0.001      333.020        2.062      869.101
01/21/2014  21:30:00     -123.148      -77.032      -12.146       36.859       21.441       19.287     1358.551      459.731      371.990        1.172        0.110      145.256       17.120        0.014      332.762        1.637      869.107
01/21/2014  21:31:00     -110.364      -94.870       -1.857       52.977       43.439       28.463     2806.598     1886.963      810.161        1.334        0.275      145.535       22.376        0.024      332.847        1.776      869.101
01/21/2014  21:32:00      -84.374      -69.340       14.218       61.436       47.094       29.168     3774.396     2217.885      850.758        0.948        0.342      109.211       28.993        0.070      332.986        2.005      869.100
01/21/2014  21:33:00      -90.669      -68.757        7.029       44.403       39.727       26.504     1971.635     1578.253      702.458        0.862        0.213      113.790       24.118        0.045      333.041        2.098      869.101
01/21/2014  21:34:00      -96.380      -83.362        8.215       47.568       37.773       22.621     2262.686     1426.831      511.723        1.025        0.210      127.429       23.924        0.035      333.104        2.201      869.106
01/21/2014  21:35:00     -141.523     -104.887       -8.193       59.882       42.892       39.503     3585.899     1839.712     1560.516        1.904        0.349      176.153       26.552        0.023      333.152        2.277      869.101
01/21/2014  21:36:00     -133.243      -89.111       -1.721       61.727       48.555       39.128     3810.274     2357.547     1530.976        1.670        0.385      160.295       30.374        0.036      333.191        2.343      869.105
01/21/2014  21:37:00     -113.444      -67.208        0.269       52.277       42.864       27.351     2732.843     1837.349      748.052        1.135        0.266      131.858       28.235        0.046      333.257        2.454      869.125
01/21/2014  21:38:00      -52.253      -70.298       -2.329       48.684       27.909       19.882     2370.087      778.940      395.306        0.561        0.177       87.591       13.236        0.023      333.238        2.422      869.128
01/21/2014  21:39:00      -63.284      -77.822        0.269       43.048       29.945       20.306     1853.122      896.731      412.326        0.661        0.158      100.306       19.561        0.038      333.250        2.440      869.121
01/21/2014  21:40:00      -11.858      -26.286        8.050       36.843       23.911       22.148     1357.399      571.716      490.536        0.166        0.121       28.837       21.484        0.555      333.159        2.289      869.120
01/21/2014  21:41:00      -24.120      -16.645       10.166       35.370       21.726       14.892     1251.029      472.030      221.774        0.145        0.097       29.306       17.689        0.364      333.169        2.307      869.115
01/21/2014  21:42:00      -19.268      -31.869        3.563       25.799       23.696       14.709      665.594      561.477      216.367        0.142        0.072       37.241       15.502        0.173      333.099        2.192      869.120
01/21/2014  21:43:00      -64.112      -37.590       -3.867       18.285       26.600       11.993      334.342      707.549      143.833        0.336        0.059       74.319        5.407        0.005      333.164        2.297      869.120
01/21/2014  21:44:00      -71.189      -58.317       -3.496       29.052       20.371       16.515      844.023      414.961      272.744        0.501        0.077       92.026       11.657        0.016      333.169        2.307      869.105
01/21/2014  21:45:00      -60.216      -62.481        7.348       35.083       36.431       21.534     1230.825     1327.249      463.716        0.530        0.151       86.774       18.432        0.045      333.148        2.274      869.093
01/21/2014  21:46:00      -60.269      -65.128        4.042       51.254       36.126       16.453     2627.001     1305.094      270.714        0.605        0.210       88.736       20.701        0.054      333.161        2.294      869.081
01/21/2014  21:47:00      -93.519      -62.160       -2.540       32.496       29.848       22.865     1056.021      890.875      522.797        0.754        0.123      112.292       14.349        0.016      333.037        2.090      869.067
01/21/2014  21:48:00      -82.736      -45.789        3.143       49.026       28.396       20.614     2403.582      806.345      424.925        0.629        0.182       94.562       20.832        0.049      332.813        1.721      869.064
01/21/2014  21:49:00     -110.192      -40.313       -0.034       40.878       33.472       18.568     1670.998     1120.378      344.771        0.845        0.157      117.334       18.430        0.025      332.759        1.631      869.076
01/21/2014  21:50:00     -132.322      -30.491       -7.050       32.543       25.762       19.560     1059.025      663.661      382.577        1.030        0.105      135.789       17.581        0.017      332.746        1.610      869.090
01/21/2014  21:51:00     -124.713      -16.885       -4.815       34.309       27.392       21.809     1177.076      750.342      475.631        0.913        0.120      125.851       18.310        0.021      332.642        1.438      869.097
01/21/2014  21:52:00     -120.355      -18.696       -5.785       32.252       27.012       19.486     1040.201      729.663      379.706        0.851        0.107      121.799       16.282        0.018      332.705        1.543      869.099
01/21/2014  21:53:00     -122.219      -47.093       -1.095       42.164       32.037       19.853     1777.775     1026.383      394.125        1.018        0.160      130.978       18.980        0.021      332.636        1.428      869.090
01/21/2014  21:54:00     -134.746      -62.613       -0.626       38.424       29.906       25.256     1476.371      894.391      637.851        1.254        0.150      148.582       24.257        0.027      332.554        1.291      869.080
01/21/2014  21:55:00     -130.682      -28.811      -10.557       34.783       32.811       20.716     1209.826     1076.579      429.171        1.037        0.136      133.820       16.576        0.015      332.570        1.319      869.085
01/21/2014  21:56:00      -98.530      -16.260       -0.020       41.726       31.000       19.557     1741.079      960.996      382.466        0.653        0.154       99.863       16.674        0.028      332.446        1.112      869.081
01/21/2014  21:57:00      -56.909      -23.329        1.808       20.595       24.408       11.746      424.165      595.733      137.963        0.247        0.058       61.505        7.662        0.016      332.446        1.113      869.069
01/21/2014  21:58:00      -33.470      -10.504       -6.211       22.398       12.549       15.022      501.689      157.472      225.668        0.108        0.044       35.079       13.650        0.151      332.568        1.315      869.060
01/21/2014  21:59:00      -44.868      -20.881       -4.696       13.167       13.291       10.514      173.367      176.659      110.554        0.147        0.023       49.489        9.364        0.036      332.672        1.487      869.069
01/21/2014  22:00:00      -62.039      -12.623       -6.720       24.487       12.272        8.968      599.618      150.604       80.425        0.244        0.042       63.310       10.926        0.030      332.675        1.491      869.071
01/21/2014  22:01:00      -83.559      -12.423       -8.740       15.885       14.814       11.837      252.327      219.466      140.111        0.391        0.031       84.477        6.913        0.007      332.620        1.401      869.078
01/21/2014  22:02:00     -103.785       -3.191      -11.072       21.937       13.778       14.637      481.238      189.843      214.229        0.589        0.044      103.834       12.588        0.015      332.589        1.349      869.080
01/21/2014  22:03:00     -120.475      -20.819       -4.826       21.534       17.007       12.271      463.697      289.254      150.573        0.794        0.045      122.260       11.377        0.009      332.641        1.435      869.075
01/21/2014  22:04:00      -53.370      -21.359        3.196       36.238       16.460       13.227     1313.188      270.919      174.962        0.254        0.088       57.485       16.512        0.083      332.542        1.272      869.065
01/21/2014  22:05:00      -57.381      -42.282        2.863       32.081       24.046       14.687     1029.207      578.217      215.703        0.346        0.091       71.277       16.244        0.052      332.488        1.182      869.047
01/21/2014  22:06:00      -69.875      -57.678        0.728       44.061       30.368       20.579     1941.397      922.200      423.498        0.575        0.164       90.605       21.985        0.059      332.449        1.118      869.024
01/21/2014  22:07:00      -57.751      -44.704        2.740       40.886       23.080       18.790     1671.625      532.680      353.049        0.395        0.128       73.031       19.023        0.068      332.539        1.268      868.996
01/21/2014  22:08:00      -83.889      -39.641       -0.387       25.212       18.777       14.029      635.631      352.572      196.803        0.490        0.059       92.784        6.152        0.004      332.499        1.201      868.976
01/21/2014  22:09:00      -91.008      -49.439       -4.435       23.481       14.132       10.471      551.353      199.726      109.646        0.580        0.043      103.570        7.354        0.005      332.571        1.320      868.963
01/21/2014  22:10:00     -112.812      -25.433       -7.661       16.896       15.756       10.047      285.490      248.258      100.945        0.703        0.032      115.643        4.583        0.002      332.621        1.402      868.960
01/21/2014  22:11:00     -101.262      -26.948       -7.081       26.957       17.382       14.152      726.658      302.142      200.268        0.613        0.061      104.787       14.766        0.020      332.630        1.416      868.957
01/21/2014  22:12:00     -104.706      -19.116       -8.760       24.534       16.499       14.564      601.898      272.218      212.106        0.625        0.054      106.437       11.859        0.012      332.554        1.292      868.944
01/21/2014  22:13:00     -104.282      -29.543       -3.952       33.221       26.941       19.909     1103.640      725.841      396.372        0.699        0.111      108.386       19.442        0.032      332.428        1.084      868.914
01/21/2014  22:14:00     -120.353      -35.867       -4.215       27.500       27.676       16.128      756.264      765.963      260.112        0.879        0.089      125.584       14.250        0.013      332.375        0.997      868.889
01/21/2014  22:15:00     -129.242      -38.833       -4.150       35.040       25.425       18.531     1227.806      646.419      343.405        1.022        0.111      134.950       15.152        0.013      332.440        1.103      868.870
01/21/2014  22:16:00     -159.994      -39.291       -8.296       22.774       17.137       16.722      518.665      293.661      279.634        1.415        0.055      164.748       12.244        0.006      332.416        1.064      868.863
01/21/2014  22:17:00     -141.157      -26.509       -8.279       28.916       21.678       21.974      836.150      469.926      482.857        1.124        0.089      143.625       17.483        0.015      332.364        0.980      868.883
01/21/2014  22:18:00     -136.834      -10.887       -7.592       41.825       30.855       20.959     1749.316      952.004      439.267        1.102        0.157      137.266       21.368        0.024      332.268        0.820      868.897
01/21/2014  22:19:00     -122.534       -4.657       -5.041       62.821       34.212       30.423     3946.434     1170.440      925.563        1.055        0.302      122.623       33.085        0.073      332.322        0.910      868.907
01/21/2014  22:20:00     -143.477        2.012       -3.899       65.140       48.085       34.351     4243.190     2312.176     1179.982        1.417        0.387      143.491       37.478        0.068      332.272        0.825      868.910
01/21/2014  22:21:00     -153.701      -12.174       -8.555       63.979       49.913       30.676     4093.353     2491.318      941.011        1.568        0.376      154.182       34.031        0.049      332.153        0.631      868.909
01/21/2014  22:22:00     -142.990      -29.724       -4.089       67.011       52.355       30.522     4490.509     2741.054      931.574        1.475        0.408      146.047       33.666        0.053      332.096        0.536      868.893
01/21/2014  22:23:00     -152.443      -39.028       -5.769       53.082       36.509       26.396     2817.670     1332.877      696.742        1.482        0.242      157.360       29.113        0.034      332.043        0.448      868.872
01/21/2014  22:24:00     -139.564      -35.823       -8.829       32.480       39.538       25.811     1054.977     1563.226      666.212        1.206        0.164      144.088       24.153        0.028      332.019        0.409      868.855
01/21/2014  22:25:00     -122.985      -41.278       -2.780       28.738       37.085       19.670      825.875     1375.280      386.893        0.971        0.129      129.728       16.169        0.016      332.002        0.382      868.854
01/21/2014  22:26:00     -116.678      -31.750       -8.415       27.296       31.683       18.666      745.045     1003.829      348.428        0.839        0.105      120.921       12.611        0.011      331.962        0.316      868.850
01/21/2014  22:27:00     -122.455      -20.083      -14.293       28.216       34.651       23.283      796.129     1200.666      542.102        0.907        0.127      124.091       12.003        0.009      332.009        0.393      868.853
01/21/2014  22:28:00     -109.257      -73.914       -0.105       38.445       42.144       27.178     1478.013     1776.112      738.665        1.070        0.200      131.910       21.443        0.026      332.014        0.403      868.856
01/21/2014  22:29:00     -132.253      -31.845       -3.022       31.992       29.057       19.268     1023.487      844.300      371.250        1.038        0.112      136.033       18.116        0.018      332.048        0.458      868.859
01/21/2014  22:30:00     -128.994      -32.992       -8.143       31.387       23.174       19.530      985.152      537.029      381.413        0.985        0.095      133.146       17.808        0.018      332.042        0.447      868.852
01/21/2014  22:31:00     -120.304      -24.334       -7.312       38.262       25.342       17.705     1463.951      642.199      313.480        0.877        0.121      122.740       19.692        0.026      332.094        0.534      868.849
01/21/2014  22:32:00      -91.308      -54.475       -2.215       26.570       25.630       15.270      705.959      656.888      233.168        0.645        0.080      106.323       10.103        0.009      332.030        0.427      868.868
01/21/2014  22:33:00     -107.341      -61.535       -2.169       54.823       28.966       21.931     3005.544      839.003      480.983        0.982        0.216      123.728       27.410        0.049      332.032        0.432      868.878
01/21/2014  22:34:00      -80.029      -19.469        3.852       35.030       33.861       16.188     1227.112     1146.598      262.038        0.472        0.132       82.363       18.083        0.048      332.058        0.474      868.891
01/21/2014  22:35:00      -54.812      -28.613        3.976       30.823       23.406       15.542      950.069      547.820      241.541        0.279        0.087       61.830       10.047        0.026      332.239        0.774      868.904
01/21/2014  22:36:00      -39.322      -40.604        8.058       39.921       27.333       18.216     1593.712      747.098      331.830        0.297        0.134       56.523       21.165        0.140      332.197        0.703      868.908
01/21/2014  22:37:00     -103.892      -66.291       -6.134       41.508       39.348       28.284     1722.934     1548.255      800.005        0.965        0.204      123.239       23.535        0.036      332.266        0.817      868.911
01/21/2014  22:38:00     -123.838      -69.127       -8.433       53.076       35.742       32.711     2817.112     1277.458     1070.023        1.267        0.258      141.825       26.815        0.036      332.350        0.954      868.911
01/21/2014  22:39:00     -141.339      -96.520       -0.376       64.528       65.140       36.113     4163.896     4243.261     1304.177        1.950        0.486      171.151       34.196        0.040      332.248        0.785      868.892
01/21/2014  22:40:00     -173.225     -120.298      -11.610       60.783       57.787       32.156     3694.573     3339.288     1033.982        2.634        0.403      210.899       26.406        0.016      332.205        0.714      868.870
01/21/2014  22:41:00     -160.847     -113.783      -11.289       40.170       47.524       24.713     1613.591     2258.518      610.742        2.171        0.224      197.023       18.707        0.009      332.246        0.783      868.868
01/21/2014  22:42:00     -176.060     -123.275      -10.204       36.815       41.041       25.449     1355.377     1684.335      647.646        2.499        0.184      214.928       23.856        0.012      332.273        0.825      868.867
01/21/2014  22:43:00     -137.422      -73.431       -3.073       68.093       36.119       28.659     4636.662     1304.599      821.322        1.552        0.338      155.811       33.939        0.047      332.295        0.865      868.855
01/21/2014  22:44:00     -147.336      -66.729      -10.451       26.564       32.625       18.593      705.669     1064.374      345.682        1.419        0.106      161.743       12.080        0.006      332.282        0.844      868.854
01/21/2014  22:45:00     -147.514      -47.972        1.666       44.734       26.584       18.619     2001.157      706.734      346.680        1.356        0.153      155.118       21.459        0.019      332.284        0.848      868.857
01/21/2014  22:46:00     -105.858      -59.555       -0.141       53.046       31.297       21.151     2813.872      979.497      447.365        0.950        0.212      121.460       16.016        0.017      332.344        0.945      868.848
01/21/2014  22:47:00     -117.364      -59.462       -1.890       32.356       25.833       19.258     1046.884      667.348      370.886        0.970        0.104      131.568       15.635        0.014      332.387        1.017      868.859
01/21/2014  22:48:00     -115.478      -79.238        0.367       37.416       35.514       23.777     1399.921     1261.251      565.330        1.142        0.161      140.050       16.515        0.014      332.392        1.024      868.869
01/21/2014  22:49:00      -98.475      -30.015        1.568       40.108       25.990       18.646     1608.666      675.493      347.658        0.662        0.132      102.947       18.074        0.031      332.217        0.737      868.880
01/21/2014  22:50:00     -111.098      -12.776        1.439       38.371       25.098       18.112     1472.352      629.902      328.059        0.747        0.122      111.830       20.949        0.035      332.145        0.617      868.877
01/21/2014  22:51:00     -120.745       -3.226       -3.833       37.641       26.325       23.660     1416.812      693.011      559.815        0.864        0.133      120.788       23.960        0.039      332.103        0.549      868.877
01/21/2014  22:52:00     -115.045      -30.412        1.452       30.575       26.236       19.658      934.825      688.347      386.450        0.809        0.100      118.997       18.053        0.023      332.112        0.562      868.882
01/21/2014  22:53:00     -125.102      -35.854      -12.606       21.699       22.016       10.673      470.827      484.697      113.907        0.908        0.053      130.138       11.156        0.007      332.028        0.424      868.891
01/21/2014  22:54:00      -81.438      -20.234       -2.709       42.555       25.041       16.009     1810.937      627.037      256.275        0.487        0.135       83.914       20.824        0.062      332.017        0.406      868.891
01/21/2014  22:55:00      -12.881      -22.948        3.020       34.041       20.547       14.178     1158.765      422.193      201.004        0.124        0.089       26.316       14.801        0.316      332.158        0.639      868.891
01/21/2014  22:56:00        2.868      -11.824       10.453       10.942       14.706       15.770      119.730      216.267      248.705        0.042        0.029       12.166       12.482        1.053      332.212        0.728      868.875
01/21/2014  22:57:00      -27.297        2.740        2.266       14.199       10.771       11.153      201.620      116.015      124.387        0.060        0.022       27.434       10.458        0.145      332.266        0.816      868.848
01/21/2014  22:58:00      -32.981       34.913       -3.599       21.196       22.716       12.054      449.261      516.013      145.294        0.171        0.056       48.028       11.193        0.054      332.364        0.980      868.819
01/21/2014  22:59:00      -53.674       -4.472       -4.292       18.728       20.526       13.605      350.725      421.315      185.100        0.194        0.048       53.860       10.999        0.042      332.303        0.876      868.795
01/21/2014  23:00:00      -87.557      -21.870       -9.220       18.221       20.457       13.198      332.020      418.482      174.200        0.458        0.046       90.247       12.838        0.020      332.043        0.451      868.781
01/21/2014  23:01:00     -106.341      -27.018       -8.621       26.994       19.082       13.589      728.668      364.123      184.654        0.669        0.064      109.720       11.926        0.012      331.879        0.179      868.801
01/21/2014  23:02:00     -121.247       -5.915      -10.614       26.877       21.531       17.100      722.397      463.587      292.402        0.816        0.074      121.391       11.342        0.009      331.791        0.033      868.846
01/21/2014  23:03:00     -103.649      -26.776      -19.233       14.401       18.293       13.500      207.401      334.630      182.252        0.628        0.036      107.052        3.608        0.001      331.778        0.014      868.875
01/21/2014  23:04:00      -75.336      -20.513      -10.282       14.755       18.157       12.835      217.711      329.665      164.746        0.346        0.036       78.079        6.500        0.007      331.860        0.147      868.872
01/21/2014  23:05:00      -94.312      -29.098      -17.987       25.139       13.367       15.858      631.992      178.685      251.474        0.556        0.053       98.699       15.630        0.025      331.833        0.103      868.853
01/21/2014  23:06:00      -60.572      -52.448       -6.857       38.471       22.686       23.994     1479.992      514.655      575.697        0.452        0.129       80.123       25.523        0.101      331.763       -0.012      868.847
01/21/2014  23:07:00      -73.346      -40.338       -9.264       27.369       20.953       16.253      749.073      439.038      264.175        0.427        0.073       83.707       14.632        0.031      331.684       -0.140      868.852
01/21/2014  23:08:00      -85.098      -25.045      -20.308       18.973       15.064       12.151      359.986      226.924      147.651        0.451        0.037       88.707        9.494        0.011      331.754       -0.028      868.840
01/21/2014  23:09:00      -91.255      -30.301       -9.032       26.994       24.573       19.173      728.682      603.817      367.622        0.551        0.085       96.155       16.712        0.030      331.694       -0.124      868.827
01/21/2014  23:10:00      -42.271      -19.326       -6.555       16.596       17.903       13.483      275.421      320.532      181.799        0.149        0.039       46.480        9.869        0.045      331.706       -0.105      868.805
01/21/2014  23:11:00       -0.270       21.670       -2.682       22.951       16.999        6.548      526.765      288.983       42.871        0.067        0.043       21.672        7.158        0.109      332.387        1.018      868.785
01/21/2014  23:12:00       19.298       14.813        1.428        9.764       15.366        7.382       95.342      236.116       54.488        0.049        0.019       24.327        4.901        0.041      332.413        1.058      868.775
01/21/2014  23:13:00      -24.893        1.560       -4.262       21.735       17.632       11.840      472.392      310.884      140.196        0.078        0.046       24.941        6.649        0.071      332.256        0.800      868.783
01/21/2014  23:14:00      -38.798       -9.216       -0.075       14.685       10.600        8.500      215.663      112.357       72.250        0.100        0.020       39.878        6.417        0.026      331.980        0.345      868.791
01/21/2014  23:15:00      -45.446       -4.289       -5.146       11.603       13.576       11.483      134.624      184.312      131.857        0.128        0.023       45.648       10.759        0.056      331.914        0.238      868.786
01/21/2014  23:16:00      -67.156       -2.531      -10.679       10.865        9.523       10.319      118.038       90.696      106.478        0.247        0.016       67.204        5.597        0.007      331.795        0.040      868.786
01/21/2014  23:17:00      -82.661       -1.173       -7.224       12.424       11.416        9.779      154.353      130.325       95.623        0.363        0.019       82.669        5.283        0.004      331.719       -0.084      868.792
01/21/2014  23:18:00      -55.714        0.486       -8.548       11.555       13.820        8.909      133.517      190.995       79.373        0.179        0.020       55.716        4.292        0.006      331.778        0.014      868.802
01/21/2014  23:19:00      -53.121        1.382      -13.051       10.642       10.561        5.465      113.255      111.544       29.864        0.162        0.013       53.139        2.503        0.002      331.757       -0.022      868.800
01/21/2014  23:20:00      -75.307        0.235      -19.326       15.222       10.961        8.140      231.696      120.140       66.259        0.323        0.021       75.308        6.778        0.008      331.794        0.037      868.793
01/21/2014  23:21:00      -57.539        0.140      -11.533       20.281       10.327       10.890      411.337      106.641      118.597        0.204        0.032       57.539        6.948        0.015      331.844        0.121      868.784
01/21/2014  23:22:00      -47.535       -3.328       -1.047       26.286       18.523       18.292      690.937      343.095      334.583        0.182        0.068       47.652       19.591        0.169      331.719       -0.083      868.773
01/21/2014  23:23:00      -40.340       14.727      -18.924       10.652       11.114        8.743      113.470      123.526       76.443        0.126        0.016       42.944        5.252        0.015      331.919        0.245      868.762
01/21/2014  23:24:00      -40.573       12.947       -7.984        9.761        5.178        6.042       95.271       26.811       36.509        0.102        0.008       42.589        5.944        0.019      332.249        0.790      868.755
01/21/2014  23:25:00      -30.024        4.993       -6.611        8.571        8.737        5.248       73.461       76.342       27.541        0.057        0.009       30.436        2.438        0.006      332.351        0.955      868.755
01/21/2014  23:26:00      -42.067       -3.554       -0.422        8.712       11.618        8.248       75.897      134.982       68.026        0.103        0.014       42.217        6.757        0.026      332.198        0.706      868.765
01/21/2014  23:27:00      -67.634      -10.163       -9.952       19.191       12.925        9.241      368.303      167.056       85.400        0.270        0.031       68.393        6.977        0.010      331.882        0.185      868.772
01/21/2014  23:28:00      -76.444      -10.834      -13.806       10.768       13.369       10.631      115.952      178.729      113.015        0.328        0.020       77.208        3.964        0.003      331.724       -0.076      868.781
01/21/2014  23:29:00      -87.948        2.645      -12.864       18.755       14.513       10.540      351.742      210.636      111.085        0.429        0.034       87.987        8.049        0.008      331.712       -0.096      868.781
01/21/2014  23:30:00      -65.238      -13.215      -14.566       15.543       17.621       10.394      241.587      310.493      108.032        0.265        0.033       66.563        9.662        0.021      331.632       -0.227      868.778
01/21/2014  23:31:00      -47.962      -25.934      -13.097       17.316       14.509        9.633      299.852      210.513       92.803        0.187        0.030       54.525        5.357        0.010      331.780        0.014      868.774
01/21/2014  23:32:00      -49.632      -24.248       -9.240       13.264       10.682       10.146      175.935      114.111      102.937        0.176        0.020       55.239        1.636        0.001      331.843        0.120      868.754
01/21/2014  23:33:00      -50.900       -5.957      -14.100        9.547       14.509       12.690       91.136      210.514      161.031        0.164        0.023       51.248        9.644        0.035      332.025        0.419      868.740
01/21/2014  23:34:00      -52.289      -12.966       -6.851       11.997       17.345       11.888      143.932      300.866      141.318        0.177        0.029       53.873        7.283        0.018      332.001        0.379      868.719
01/21/2014  23:35:00      -74.321       -5.923      -12.131       14.196       13.879        8.848      201.535      192.614       78.285        0.309        0.024       74.557        2.829        0.001      331.870        0.163      868.701
01/21/2014  23:36:00      -78.273       -1.727      -14.891       11.806        8.097        8.889      139.370       65.559       79.012        0.332        0.014       78.292        6.340        0.007      331.801        0.050      868.686
01/21/2014  23:37:00     -107.252       -1.740      -15.367       33.107       13.217       11.995     1096.105      174.683      143.886        0.658        0.071      107.266       14.813        0.019      331.855        0.140      868.686
01/21/2014  23:38:00     -102.018      -11.524      -15.288       23.047       11.782        9.962      531.143      138.827       99.249        0.577        0.038      102.667        7.751        0.006      331.735       -0.056      868.693
01/21/2014  23:39:00      -72.860      -22.545      -12.692       18.619       17.010       11.990      346.683      289.339      143.770        0.338        0.039       76.269        9.322        0.015      331.697       -0.119      868.702
01/21/2014  23:40:00      -84.575      -12.693      -12.713       16.111       14.648       11.901      259.574      214.552      141.633        0.405        0.031       85.522        6.432        0.006      331.793        0.037      868.706
01/21/2014  23:41:00      -65.355       -7.119       -6.722       23.277       23.163       13.988      541.824      536.513      195.675        0.282        0.064       65.742       11.907        0.033      331.674       -0.158      868.705
01/21/2014  23:42:00      -75.405        1.385      -14.548       16.488       17.081       11.822      271.840      291.753      139.755        0.330        0.035       75.418       12.672        0.028      331.707       -0.104      868.702
01/21/2014  23:43:00      -73.262        6.196      -16.346       24.447       20.569       18.039      597.667      423.097      325.413        0.351        0.067       73.524       12.453        0.029      331.712       -0.096      868.703
01/21/2014  23:44:00      -72.076        3.051      -15.646       21.564       20.248       16.334      465.008      409.986      266.812        0.330        0.057       72.141       13.706        0.036      331.722       -0.079      868.703
01/21/2014  23:45:00      -80.982      -13.353      -16.673       14.562       13.493        8.621      212.066      182.056       74.327        0.374        0.023       82.076        4.688        0.003      331.641       -0.212      868.692
01/21/2014  23:46:00      -63.511      -24.307      -15.843       11.674        9.590        7.300      136.272       91.969       53.296        0.258        0.014       68.003        3.424        0.003      331.644       -0.208      868.678
01/21/2014  23:47:00      -93.592      -13.680      -14.311       19.268       11.540        8.936      371.260      133.174       79.850        0.487        0.029       94.586        4.630        0.002      331.560       -0.346      868.662
01/21/2014  23:48:00     -111.262      -19.440      -21.533       17.916       21.010       12.727      320.972      441.432      161.984        0.707        0.046      112.948       10.519        0.009      331.523       -0.407      868.644
01/21/2014  23:49:00     -104.648      -35.973      -16.939       19.715       19.726       11.164      388.695      389.116      124.641        0.672        0.045      110.658        9.778        0.008      331.452       -0.525      868.628
01/21/2014  23:50:00      -90.293      -35.453      -18.174       23.690       29.496       19.065      561.197      869.998      363.457        0.577        0.090       97.004       16.975        0.031      331.441       -0.543      868.625
01/21/2014  23:51:00      -57.432      -20.925       -9.141       24.737       16.129       19.278      611.902      260.130      371.648        0.253        0.062       61.125       16.950        0.077      331.508       -0.434      868.624
01/21/2014  23:52:00     -100.712        1.703      -15.958       29.108       18.961       14.186      847.269      359.501      201.257        0.590        0.070      100.727       16.552        0.027      331.530       -0.396      868.615
01/21/2014  23:53:00     -105.848       -1.681      -15.902       16.478       14.772       10.791      271.508      218.205      116.448        0.603        0.030      105.861        8.029        0.006      331.494       -0.455      868.609
01/21/2014  23:54:00      -90.881      -10.582      -20.914       19.364       13.370       12.529      374.956      178.744      156.964        0.476        0.036       91.495       11.986        0.017      331.560       -0.347      868.608
01/21/2014  23:55:00      -97.961      -19.764      -14.850       20.019       16.856       12.339      400.753      284.132      152.263        0.552        0.042       99.935        9.165        0.008      331.462       -0.508      868.603
01/21/2014  23:56:00      -92.555       -9.234      -11.183       23.760       18.897       14.346      564.534      357.095      205.805        0.495        0.056       93.015       14.161        0.023      331.475       -0.488      868.594
01/21/2014  23:57:00      -99.273      -27.286      -15.547       19.099       15.403       12.111      364.767      237.244      146.665        0.579        0.037      102.955        6.428        0.004      331.501       -0.444      868.587
01/21/2014  23:58:00     -101.674      -17.910      -14.047       25.528       17.231       15.450      651.657      296.922      238.706        0.602        0.059      103.240       17.666        0.029      331.475       -0.487      868.586
01/21/2014  23:59:00     -111.400       -9.298       -5.852       29.468       17.804       13.637      868.376      316.998      185.954        0.695        0.069      111.787       17.260        0.024      331.497       -0.450      868.591
